<?xml version="1.0" encoding="UTF-8" standalone="no" ?>
<gpx xmlns="http://www.topografix.com/GPX/1/1" xmlns:xsi="http://www.w3.org/2001/XMLSchema-instance" xsi:schemaLocation="http://www.topografix.com/GPX/1/1 http://www.topografix.com/GPX/1/1/gpx.xsd" version="1.1" creator="VisuGPX - https://www.visugpx.com">
  <metadata>
    <name>5 - &amp;quot;Via Garona&amp;quot; Carbone à Cazères</name>
    <desc><![CDATA[Parcours réalisé.

]]></desc>
  </metadata>
  <trk>
    <name><![CDATA[7 juil. 2022 à 08:03:52]]></name>
    <cmt><![CDATA[7 juil. 2022 à 08:03:52]]></cmt>
    <trkseg>
      <trkpt lat="43.29843" lon="1.21251">
        <ele>93</ele>
        <time>2022-07-07T06:03:58Z</time>
      </trkpt>
      <trkpt lat="43.29824" lon="1.21253">
        <ele>213</ele>
        <time>2022-07-07T06:05:10Z</time>
      </trkpt>
      <trkpt lat="43.2982" lon="1.21262">
        <ele>214</ele>
        <time>2022-07-07T06:05:41Z</time>
      </trkpt>
      <trkpt lat="43.29818" lon="1.21268">
        <ele>214</ele>
        <time>2022-07-07T06:05:44Z</time>
      </trkpt>
      <trkpt lat="43.29817" lon="1.21279">
        <ele>214</ele>
        <time>2022-07-07T06:05:54Z</time>
      </trkpt>
      <trkpt lat="43.29819" lon="1.21285">
        <ele>214</ele>
        <time>2022-07-07T06:05:59Z</time>
      </trkpt>
      <trkpt lat="43.29824" lon="1.21291">
        <ele>213</ele>
        <time>2022-07-07T06:06:17Z</time>
      </trkpt>
      <trkpt lat="43.29842" lon="1.21312">
        <ele>214</ele>
        <time>2022-07-07T06:06:38Z</time>
      </trkpt>
      <trkpt lat="43.29844" lon="1.21318">
        <ele>214</ele>
        <time>2022-07-07T06:06:43Z</time>
      </trkpt>
      <trkpt lat="43.29843" lon="1.21324">
        <ele>214</ele>
        <time>2022-07-07T06:06:48Z</time>
      </trkpt>
      <trkpt lat="43.29841" lon="1.21329">
        <ele>214</ele>
        <time>2022-07-07T06:07:00Z</time>
      </trkpt>
      <trkpt lat="43.29838" lon="1.21338">
        <ele>214</ele>
        <time>2022-07-07T06:07:09Z</time>
      </trkpt>
      <trkpt lat="43.29839" lon="1.21354">
        <ele>214</ele>
        <time>2022-07-07T06:07:21Z</time>
      </trkpt>
      <trkpt lat="43.29844" lon="1.21364">
        <ele>214</ele>
        <time>2022-07-07T06:07:29Z</time>
      </trkpt>
      <trkpt lat="43.29844" lon="1.21376">
        <ele>214</ele>
        <time>2022-07-07T06:07:37Z</time>
      </trkpt>
      <trkpt lat="43.29842" lon="1.21388">
        <ele>214</ele>
        <time>2022-07-07T06:07:44Z</time>
      </trkpt>
      <trkpt lat="43.29842" lon="1.21396">
        <ele>214</ele>
        <time>2022-07-07T06:08:06Z</time>
      </trkpt>
      <trkpt lat="43.29838" lon="1.21408">
        <ele>214</ele>
        <time>2022-07-07T06:08:16Z</time>
      </trkpt>
      <trkpt lat="43.29837" lon="1.21413">
        <ele>214</ele>
        <time>2022-07-07T06:08:19Z</time>
      </trkpt>
      <trkpt lat="43.29831" lon="1.21431">
        <ele>214</ele>
        <time>2022-07-07T06:08:30Z</time>
      </trkpt>
      <trkpt lat="43.29815" lon="1.21451">
        <ele>214</ele>
        <time>2022-07-07T06:08:47Z</time>
      </trkpt>
      <trkpt lat="43.29786" lon="1.2147">
        <ele>214</ele>
        <time>2022-07-07T06:09:14Z</time>
      </trkpt>
      <trkpt lat="43.29784" lon="1.21474">
        <ele>214</ele>
        <time>2022-07-07T06:09:17Z</time>
      </trkpt>
      <trkpt lat="43.29779" lon="1.21476">
        <ele>214</ele>
        <time>2022-07-07T06:09:21Z</time>
      </trkpt>
      <trkpt lat="43.29755" lon="1.21481">
        <ele>214</ele>
        <time>2022-07-07T06:09:40Z</time>
      </trkpt>
      <trkpt lat="43.29745" lon="1.21493">
        <ele>214</ele>
        <time>2022-07-07T06:09:51Z</time>
      </trkpt>
      <trkpt lat="43.29731" lon="1.21498">
        <ele>215</ele>
        <time>2022-07-07T06:10:05Z</time>
      </trkpt>
      <trkpt lat="43.29726" lon="1.21498">
        <ele>214</ele>
        <time>2022-07-07T06:10:08Z</time>
      </trkpt>
      <trkpt lat="43.29722" lon="1.21497">
        <ele>214</ele>
        <time>2022-07-07T06:10:12Z</time>
      </trkpt>
      <trkpt lat="43.29717" lon="1.21497">
        <ele>214</ele>
        <time>2022-07-07T06:10:16Z</time>
      </trkpt>
      <trkpt lat="43.297" lon="1.21507">
        <ele>215</ele>
        <time>2022-07-07T06:10:32Z</time>
      </trkpt>
      <trkpt lat="43.2969" lon="1.21509">
        <ele>215</ele>
        <time>2022-07-07T06:10:39Z</time>
      </trkpt>
      <trkpt lat="43.29686" lon="1.21512">
        <ele>215</ele>
        <time>2022-07-07T06:10:43Z</time>
      </trkpt>
      <trkpt lat="43.29684" lon="1.21516">
        <ele>215</ele>
        <time>2022-07-07T06:10:46Z</time>
      </trkpt>
      <trkpt lat="43.29677" lon="1.21513">
        <ele>215</ele>
        <time>2022-07-07T06:11:06Z</time>
      </trkpt>
      <trkpt lat="43.29673" lon="1.21519">
        <ele>215</ele>
        <time>2022-07-07T06:11:18Z</time>
      </trkpt>
      <trkpt lat="43.29673" lon="1.21526">
        <ele>215</ele>
        <time>2022-07-07T06:11:20Z</time>
      </trkpt>
      <trkpt lat="43.2967" lon="1.21528">
        <ele>215</ele>
        <time>2022-07-07T06:11:28Z</time>
      </trkpt>
      <trkpt lat="43.29661" lon="1.21528">
        <ele>215</ele>
        <time>2022-07-07T06:11:36Z</time>
      </trkpt>
      <trkpt lat="43.29653" lon="1.21532">
        <ele>215</ele>
        <time>2022-07-07T06:11:42Z</time>
      </trkpt>
      <trkpt lat="43.29648" lon="1.21538">
        <ele>215</ele>
        <time>2022-07-07T06:11:47Z</time>
      </trkpt>
      <trkpt lat="43.29644" lon="1.21542">
        <ele>215</ele>
        <time>2022-07-07T06:11:51Z</time>
      </trkpt>
      <trkpt lat="43.29638" lon="1.21544">
        <ele>214</ele>
        <time>2022-07-07T06:11:57Z</time>
      </trkpt>
      <trkpt lat="43.29625" lon="1.21547">
        <ele>214</ele>
        <time>2022-07-07T06:12:07Z</time>
      </trkpt>
      <trkpt lat="43.29613" lon="1.21557">
        <ele>213</ele>
        <time>2022-07-07T06:12:17Z</time>
      </trkpt>
      <trkpt lat="43.29608" lon="1.21558">
        <ele>213</ele>
        <time>2022-07-07T06:12:21Z</time>
      </trkpt>
      <trkpt lat="43.29601" lon="1.21564">
        <ele>213</ele>
        <time>2022-07-07T06:12:29Z</time>
      </trkpt>
      <trkpt lat="43.29591" lon="1.21567">
        <ele>213</ele>
        <time>2022-07-07T06:12:37Z</time>
      </trkpt>
      <trkpt lat="43.29582" lon="1.21567">
        <ele>213</ele>
        <time>2022-07-07T06:12:44Z</time>
      </trkpt>
      <trkpt lat="43.29578" lon="1.2157">
        <ele>213</ele>
        <time>2022-07-07T06:12:47Z</time>
      </trkpt>
      <trkpt lat="43.29565" lon="1.21571">
        <ele>213</ele>
        <time>2022-07-07T06:12:57Z</time>
      </trkpt>
      <trkpt lat="43.29561" lon="1.21576">
        <ele>213</ele>
        <time>2022-07-07T06:13:01Z</time>
      </trkpt>
      <trkpt lat="43.29557" lon="1.21576">
        <ele>213</ele>
        <time>2022-07-07T06:13:04Z</time>
      </trkpt>
      <trkpt lat="43.29543" lon="1.21588">
        <ele>212</ele>
        <time>2022-07-07T06:13:17Z</time>
      </trkpt>
      <trkpt lat="43.29525" lon="1.21592">
        <ele>212</ele>
        <time>2022-07-07T06:13:33Z</time>
      </trkpt>
      <trkpt lat="43.29521" lon="1.21592">
        <ele>212</ele>
        <time>2022-07-07T06:13:36Z</time>
      </trkpt>
      <trkpt lat="43.29512" lon="1.21595">
        <ele>212</ele>
        <time>2022-07-07T06:13:44Z</time>
      </trkpt>
      <trkpt lat="43.29507" lon="1.21602">
        <ele>212</ele>
        <time>2022-07-07T06:13:54Z</time>
      </trkpt>
      <trkpt lat="43.29506" lon="1.21608">
        <ele>212</ele>
        <time>2022-07-07T06:13:58Z</time>
      </trkpt>
      <trkpt lat="43.29507" lon="1.21613">
        <ele>212</ele>
        <time>2022-07-07T06:14:01Z</time>
      </trkpt>
      <trkpt lat="43.29507" lon="1.21619">
        <ele>212</ele>
        <time>2022-07-07T06:14:05Z</time>
      </trkpt>
      <trkpt lat="43.29503" lon="1.21625">
        <ele>212</ele>
        <time>2022-07-07T06:14:15Z</time>
      </trkpt>
      <trkpt lat="43.29499" lon="1.21627">
        <ele>212</ele>
        <time>2022-07-07T06:14:19Z</time>
      </trkpt>
      <trkpt lat="43.29496" lon="1.21624">
        <ele>212</ele>
        <time>2022-07-07T06:14:22Z</time>
      </trkpt>
      <trkpt lat="43.29493" lon="1.2162">
        <ele>212</ele>
        <time>2022-07-07T06:14:24Z</time>
      </trkpt>
      <trkpt lat="43.29467" lon="1.21608">
        <ele>212</ele>
        <time>2022-07-07T06:14:45Z</time>
      </trkpt>
      <trkpt lat="43.2946" lon="1.21607">
        <ele>212</ele>
        <time>2022-07-07T06:14:52Z</time>
      </trkpt>
      <trkpt lat="43.29456" lon="1.21607">
        <ele>212</ele>
        <time>2022-07-07T06:14:55Z</time>
      </trkpt>
      <trkpt lat="43.29448" lon="1.21607">
        <ele>212</ele>
        <time>2022-07-07T06:15:02Z</time>
      </trkpt>
      <trkpt lat="43.29437" lon="1.21609">
        <ele>211</ele>
        <time>2022-07-07T06:15:11Z</time>
      </trkpt>
      <trkpt lat="43.29425" lon="1.21608">
        <ele>212</ele>
        <time>2022-07-07T06:15:22Z</time>
      </trkpt>
      <trkpt lat="43.29417" lon="1.21611">
        <ele>211</ele>
        <time>2022-07-07T06:15:28Z</time>
      </trkpt>
      <trkpt lat="43.29403" lon="1.21611">
        <ele>211</ele>
        <time>2022-07-07T06:15:39Z</time>
      </trkpt>
      <trkpt lat="43.29398" lon="1.21612">
        <ele>211</ele>
        <time>2022-07-07T06:15:43Z</time>
      </trkpt>
      <trkpt lat="43.29387" lon="1.21612">
        <ele>211</ele>
        <time>2022-07-07T06:15:56Z</time>
      </trkpt>
      <trkpt lat="43.29383" lon="1.21613">
        <ele>211</ele>
        <time>2022-07-07T06:16:00Z</time>
      </trkpt>
      <trkpt lat="43.29369" lon="1.21614">
        <ele>211</ele>
        <time>2022-07-07T06:16:11Z</time>
      </trkpt>
      <trkpt lat="43.29359" lon="1.21618">
        <ele>210</ele>
        <time>2022-07-07T06:16:20Z</time>
      </trkpt>
      <trkpt lat="43.29355" lon="1.21619">
        <ele>211</ele>
        <time>2022-07-07T06:16:24Z</time>
      </trkpt>
      <trkpt lat="43.2935" lon="1.2162">
        <ele>211</ele>
        <time>2022-07-07T06:16:28Z</time>
      </trkpt>
      <trkpt lat="43.29345" lon="1.21619">
        <ele>210</ele>
        <time>2022-07-07T06:16:32Z</time>
      </trkpt>
      <trkpt lat="43.29341" lon="1.21621">
        <ele>211</ele>
        <time>2022-07-07T06:16:36Z</time>
      </trkpt>
      <trkpt lat="43.29336" lon="1.2162">
        <ele>211</ele>
        <time>2022-07-07T06:16:39Z</time>
      </trkpt>
      <trkpt lat="43.29332" lon="1.2162">
        <ele>211</ele>
        <time>2022-07-07T06:16:43Z</time>
      </trkpt>
      <trkpt lat="43.29328" lon="1.21622">
        <ele>210</ele>
        <time>2022-07-07T06:16:47Z</time>
      </trkpt>
      <trkpt lat="43.29319" lon="1.21621">
        <ele>210</ele>
        <time>2022-07-07T06:16:55Z</time>
      </trkpt>
      <trkpt lat="43.29314" lon="1.21621">
        <ele>210</ele>
        <time>2022-07-07T06:16:59Z</time>
      </trkpt>
      <trkpt lat="43.29309" lon="1.2162">
        <ele>210</ele>
        <time>2022-07-07T06:17:03Z</time>
      </trkpt>
      <trkpt lat="43.29305" lon="1.21622">
        <ele>211</ele>
        <time>2022-07-07T06:17:07Z</time>
      </trkpt>
      <trkpt lat="43.29266" lon="1.21628">
        <ele>210</ele>
        <time>2022-07-07T06:17:38Z</time>
      </trkpt>
      <trkpt lat="43.29262" lon="1.21628">
        <ele>210</ele>
        <time>2022-07-07T06:17:41Z</time>
      </trkpt>
      <trkpt lat="43.29258" lon="1.21628">
        <ele>210</ele>
        <time>2022-07-07T06:17:44Z</time>
      </trkpt>
      <trkpt lat="43.29245" lon="1.21632">
        <ele>210</ele>
        <time>2022-07-07T06:17:54Z</time>
      </trkpt>
      <trkpt lat="43.29242" lon="1.21631">
        <ele>210</ele>
        <time>2022-07-07T06:17:57Z</time>
      </trkpt>
      <trkpt lat="43.29234" lon="1.21634">
        <ele>211</ele>
        <time>2022-07-07T06:18:04Z</time>
      </trkpt>
      <trkpt lat="43.29229" lon="1.21635">
        <ele>211</ele>
        <time>2022-07-07T06:18:08Z</time>
      </trkpt>
      <trkpt lat="43.29225" lon="1.21635">
        <ele>211</ele>
        <time>2022-07-07T06:18:11Z</time>
      </trkpt>
      <trkpt lat="43.29213" lon="1.21634">
        <ele>211</ele>
        <time>2022-07-07T06:18:23Z</time>
      </trkpt>
      <trkpt lat="43.29209" lon="1.21634">
        <ele>210</ele>
        <time>2022-07-07T06:18:27Z</time>
      </trkpt>
      <trkpt lat="43.29205" lon="1.21635">
        <ele>211</ele>
        <time>2022-07-07T06:18:30Z</time>
      </trkpt>
      <trkpt lat="43.29197" lon="1.21636">
        <ele>210</ele>
        <time>2022-07-07T06:18:35Z</time>
      </trkpt>
      <trkpt lat="43.29193" lon="1.21637">
        <ele>211</ele>
        <time>2022-07-07T06:18:39Z</time>
      </trkpt>
      <trkpt lat="43.29173" lon="1.21638">
        <ele>210</ele>
        <time>2022-07-07T06:18:55Z</time>
      </trkpt>
      <trkpt lat="43.29169" lon="1.21638">
        <ele>210</ele>
        <time>2022-07-07T06:18:58Z</time>
      </trkpt>
      <trkpt lat="43.29162" lon="1.2164">
        <ele>210</ele>
        <time>2022-07-07T06:19:04Z</time>
      </trkpt>
      <trkpt lat="43.29158" lon="1.21641">
        <ele>211</ele>
        <time>2022-07-07T06:19:08Z</time>
      </trkpt>
      <trkpt lat="43.29149" lon="1.21642">
        <ele>210</ele>
        <time>2022-07-07T06:19:16Z</time>
      </trkpt>
      <trkpt lat="43.29135" lon="1.21646">
        <ele>210</ele>
        <time>2022-07-07T06:19:27Z</time>
      </trkpt>
      <trkpt lat="43.29125" lon="1.2165">
        <ele>210</ele>
        <time>2022-07-07T06:19:36Z</time>
      </trkpt>
      <trkpt lat="43.29121" lon="1.2165">
        <ele>210</ele>
        <time>2022-07-07T06:19:39Z</time>
      </trkpt>
      <trkpt lat="43.29117" lon="1.2165">
        <ele>210</ele>
        <time>2022-07-07T06:19:43Z</time>
      </trkpt>
      <trkpt lat="43.29105" lon="1.21648">
        <ele>210</ele>
        <time>2022-07-07T06:19:53Z</time>
      </trkpt>
      <trkpt lat="43.29095" lon="1.21652">
        <ele>210</ele>
        <time>2022-07-07T06:20:01Z</time>
      </trkpt>
      <trkpt lat="43.29075" lon="1.2165">
        <ele>210</ele>
        <time>2022-07-07T06:20:18Z</time>
      </trkpt>
      <trkpt lat="43.29071" lon="1.21652">
        <ele>210</ele>
        <time>2022-07-07T06:20:22Z</time>
      </trkpt>
      <trkpt lat="43.29067" lon="1.21652">
        <ele>211</ele>
        <time>2022-07-07T06:20:26Z</time>
      </trkpt>
      <trkpt lat="43.29055" lon="1.21654">
        <ele>211</ele>
        <time>2022-07-07T06:20:36Z</time>
      </trkpt>
      <trkpt lat="43.29052" lon="1.21654">
        <ele>210</ele>
        <time>2022-07-07T06:20:39Z</time>
      </trkpt>
      <trkpt lat="43.29047" lon="1.21653">
        <ele>210</ele>
        <time>2022-07-07T06:20:43Z</time>
      </trkpt>
      <trkpt lat="43.29042" lon="1.21653">
        <ele>211</ele>
        <time>2022-07-07T06:20:49Z</time>
      </trkpt>
      <trkpt lat="43.29026" lon="1.21651">
        <ele>211</ele>
        <time>2022-07-07T06:21:07Z</time>
      </trkpt>
      <trkpt lat="43.29018" lon="1.21653">
        <ele>211</ele>
        <time>2022-07-07T06:21:14Z</time>
      </trkpt>
      <trkpt lat="43.29013" lon="1.21653">
        <ele>211</ele>
        <time>2022-07-07T06:21:18Z</time>
      </trkpt>
      <trkpt lat="43.29008" lon="1.21652">
        <ele>211</ele>
        <time>2022-07-07T06:21:22Z</time>
      </trkpt>
      <trkpt lat="43.29004" lon="1.21654">
        <ele>211</ele>
        <time>2022-07-07T06:21:26Z</time>
      </trkpt>
      <trkpt lat="43.28995" lon="1.21654">
        <ele>211</ele>
        <time>2022-07-07T06:21:36Z</time>
      </trkpt>
      <trkpt lat="43.28987" lon="1.21655">
        <ele>211</ele>
        <time>2022-07-07T06:21:46Z</time>
      </trkpt>
      <trkpt lat="43.2896" lon="1.21661">
        <ele>212</ele>
        <time>2022-07-07T06:22:10Z</time>
      </trkpt>
      <trkpt lat="43.28941" lon="1.21661">
        <ele>212</ele>
        <time>2022-07-07T06:22:27Z</time>
      </trkpt>
      <trkpt lat="43.28932" lon="1.21667">
        <ele>212</ele>
        <time>2022-07-07T06:22:37Z</time>
      </trkpt>
      <trkpt lat="43.28928" lon="1.21669">
        <ele>212</ele>
        <time>2022-07-07T06:22:41Z</time>
      </trkpt>
      <trkpt lat="43.28918" lon="1.21669">
        <ele>212</ele>
        <time>2022-07-07T06:22:50Z</time>
      </trkpt>
      <trkpt lat="43.28914" lon="1.2167">
        <ele>212</ele>
        <time>2022-07-07T06:22:54Z</time>
      </trkpt>
      <trkpt lat="43.2891" lon="1.21668">
        <ele>213</ele>
        <time>2022-07-07T06:23:46Z</time>
      </trkpt>
      <trkpt lat="43.28906" lon="1.21671">
        <ele>213</ele>
        <time>2022-07-07T06:23:51Z</time>
      </trkpt>
      <trkpt lat="43.28884" lon="1.21677">
        <ele>213</ele>
        <time>2022-07-07T06:24:11Z</time>
      </trkpt>
      <trkpt lat="43.2888" lon="1.21676">
        <ele>213</ele>
        <time>2022-07-07T06:24:14Z</time>
      </trkpt>
      <trkpt lat="43.28875" lon="1.21678">
        <ele>213</ele>
        <time>2022-07-07T06:24:18Z</time>
      </trkpt>
      <trkpt lat="43.28849" lon="1.21681">
        <ele>214</ele>
        <time>2022-07-07T06:24:39Z</time>
      </trkpt>
      <trkpt lat="43.28845" lon="1.21678">
        <ele>213</ele>
        <time>2022-07-07T06:24:42Z</time>
      </trkpt>
      <trkpt lat="43.28842" lon="1.21678">
        <ele>213</ele>
        <time>2022-07-07T06:24:45Z</time>
      </trkpt>
      <trkpt lat="43.28827" lon="1.21687">
        <ele>213</ele>
        <time>2022-07-07T06:24:58Z</time>
      </trkpt>
      <trkpt lat="43.28818" lon="1.21688">
        <ele>213</ele>
        <time>2022-07-07T06:25:06Z</time>
      </trkpt>
      <trkpt lat="43.28813" lon="1.21687">
        <ele>214</ele>
        <time>2022-07-07T06:25:10Z</time>
      </trkpt>
      <trkpt lat="43.2878" lon="1.21685">
        <ele>214</ele>
        <time>2022-07-07T06:25:37Z</time>
      </trkpt>
      <trkpt lat="43.28743" lon="1.21691">
        <ele>214</ele>
        <time>2022-07-07T06:26:09Z</time>
      </trkpt>
      <trkpt lat="43.28703" lon="1.21695">
        <ele>214</ele>
        <time>2022-07-07T06:26:43Z</time>
      </trkpt>
      <trkpt lat="43.28698" lon="1.21696">
        <ele>214</ele>
        <time>2022-07-07T06:26:47Z</time>
      </trkpt>
      <trkpt lat="43.28688" lon="1.21697">
        <ele>214</ele>
        <time>2022-07-07T06:26:56Z</time>
      </trkpt>
      <trkpt lat="43.28684" lon="1.21698">
        <ele>214</ele>
        <time>2022-07-07T06:26:59Z</time>
      </trkpt>
      <trkpt lat="43.28679" lon="1.21698">
        <ele>214</ele>
        <time>2022-07-07T06:27:03Z</time>
      </trkpt>
      <trkpt lat="43.28675" lon="1.21698">
        <ele>214</ele>
        <time>2022-07-07T06:27:06Z</time>
      </trkpt>
      <trkpt lat="43.28644" lon="1.21697">
        <ele>214</ele>
        <time>2022-07-07T06:27:32Z</time>
      </trkpt>
      <trkpt lat="43.28636" lon="1.21698">
        <ele>214</ele>
        <time>2022-07-07T06:27:38Z</time>
      </trkpt>
      <trkpt lat="43.28598" lon="1.21701">
        <ele>213</ele>
        <time>2022-07-07T06:28:10Z</time>
      </trkpt>
      <trkpt lat="43.28594" lon="1.21699">
        <ele>213</ele>
        <time>2022-07-07T06:28:14Z</time>
      </trkpt>
      <trkpt lat="43.28578" lon="1.21698">
        <ele>213</ele>
        <time>2022-07-07T06:28:27Z</time>
      </trkpt>
      <trkpt lat="43.28564" lon="1.21695">
        <ele>213</ele>
        <time>2022-07-07T06:28:39Z</time>
      </trkpt>
      <trkpt lat="43.28539" lon="1.21693">
        <ele>214</ele>
        <time>2022-07-07T06:29:00Z</time>
      </trkpt>
      <trkpt lat="43.28535" lon="1.21691">
        <ele>214</ele>
        <time>2022-07-07T06:29:04Z</time>
      </trkpt>
      <trkpt lat="43.28521" lon="1.21688">
        <ele>215</ele>
        <time>2022-07-07T06:29:16Z</time>
      </trkpt>
      <trkpt lat="43.28513" lon="1.21686">
        <ele>214</ele>
        <time>2022-07-07T06:29:22Z</time>
      </trkpt>
      <trkpt lat="43.28504" lon="1.21684">
        <ele>214</ele>
        <time>2022-07-07T06:29:30Z</time>
      </trkpt>
      <trkpt lat="43.28501" lon="1.21682">
        <ele>214</ele>
        <time>2022-07-07T06:29:33Z</time>
      </trkpt>
      <trkpt lat="43.28461" lon="1.21666">
        <ele>214</ele>
        <time>2022-07-07T06:30:07Z</time>
      </trkpt>
      <trkpt lat="43.28449" lon="1.21661">
        <ele>214</ele>
        <time>2022-07-07T06:30:17Z</time>
      </trkpt>
      <trkpt lat="43.28445" lon="1.21659">
        <ele>214</ele>
        <time>2022-07-07T06:30:21Z</time>
      </trkpt>
      <trkpt lat="43.28441" lon="1.21657">
        <ele>214</ele>
        <time>2022-07-07T06:30:24Z</time>
      </trkpt>
      <trkpt lat="43.28433" lon="1.21654">
        <ele>214</ele>
        <time>2022-07-07T06:30:30Z</time>
      </trkpt>
      <trkpt lat="43.28424" lon="1.21649">
        <ele>215</ele>
        <time>2022-07-07T06:30:38Z</time>
      </trkpt>
      <trkpt lat="43.2842" lon="1.21648">
        <ele>215</ele>
        <time>2022-07-07T06:30:41Z</time>
      </trkpt>
      <trkpt lat="43.28385" lon="1.21627">
        <ele>215</ele>
        <time>2022-07-07T06:31:13Z</time>
      </trkpt>
      <trkpt lat="43.28377" lon="1.21622">
        <ele>215</ele>
        <time>2022-07-07T06:31:21Z</time>
      </trkpt>
      <trkpt lat="43.28373" lon="1.2162">
        <ele>216</ele>
        <time>2022-07-07T06:31:25Z</time>
      </trkpt>
      <trkpt lat="43.2837" lon="1.21617">
        <ele>216</ele>
        <time>2022-07-07T06:31:29Z</time>
      </trkpt>
      <trkpt lat="43.28365" lon="1.21615">
        <ele>216</ele>
        <time>2022-07-07T06:31:33Z</time>
      </trkpt>
      <trkpt lat="43.2836" lon="1.21612">
        <ele>216</ele>
        <time>2022-07-07T06:31:37Z</time>
      </trkpt>
      <trkpt lat="43.28356" lon="1.21609">
        <ele>216</ele>
        <time>2022-07-07T06:31:41Z</time>
      </trkpt>
      <trkpt lat="43.28352" lon="1.21607">
        <ele>216</ele>
        <time>2022-07-07T06:31:45Z</time>
      </trkpt>
      <trkpt lat="43.28348" lon="1.21603">
        <ele>215</ele>
        <time>2022-07-07T06:31:49Z</time>
      </trkpt>
      <trkpt lat="43.28344" lon="1.216">
        <ele>215</ele>
        <time>2022-07-07T06:31:53Z</time>
      </trkpt>
      <trkpt lat="43.2834" lon="1.21597">
        <ele>215</ele>
        <time>2022-07-07T06:31:56Z</time>
      </trkpt>
      <trkpt lat="43.28324" lon="1.21585">
        <ele>215</ele>
        <time>2022-07-07T06:32:12Z</time>
      </trkpt>
      <trkpt lat="43.28319" lon="1.21583">
        <ele>216</ele>
        <time>2022-07-07T06:32:16Z</time>
      </trkpt>
      <trkpt lat="43.28312" lon="1.21577">
        <ele>215</ele>
        <time>2022-07-07T06:32:23Z</time>
      </trkpt>
      <trkpt lat="43.28306" lon="1.21568">
        <ele>216</ele>
        <time>2022-07-07T06:32:32Z</time>
      </trkpt>
      <trkpt lat="43.28298" lon="1.21561">
        <ele>215</ele>
        <time>2022-07-07T06:32:40Z</time>
      </trkpt>
      <trkpt lat="43.28295" lon="1.21558">
        <ele>215</ele>
        <time>2022-07-07T06:32:43Z</time>
      </trkpt>
      <trkpt lat="43.28291" lon="1.21554">
        <ele>215</ele>
        <time>2022-07-07T06:32:47Z</time>
      </trkpt>
      <trkpt lat="43.28286" lon="1.21549">
        <ele>215</ele>
        <time>2022-07-07T06:32:51Z</time>
      </trkpt>
      <trkpt lat="43.28265" lon="1.21528">
        <ele>215</ele>
        <time>2022-07-07T06:33:12Z</time>
      </trkpt>
      <trkpt lat="43.28261" lon="1.21523">
        <ele>215</ele>
        <time>2022-07-07T06:33:16Z</time>
      </trkpt>
      <trkpt lat="43.28258" lon="1.2152">
        <ele>215</ele>
        <time>2022-07-07T06:33:19Z</time>
      </trkpt>
      <trkpt lat="43.28255" lon="1.21516">
        <ele>216</ele>
        <time>2022-07-07T06:33:23Z</time>
      </trkpt>
      <trkpt lat="43.28228" lon="1.21484">
        <ele>215</ele>
        <time>2022-07-07T06:33:53Z</time>
      </trkpt>
      <trkpt lat="43.28222" lon="1.21474">
        <ele>216</ele>
        <time>2022-07-07T06:34:01Z</time>
      </trkpt>
      <trkpt lat="43.28219" lon="1.21471">
        <ele>215</ele>
        <time>2022-07-07T06:34:04Z</time>
      </trkpt>
      <trkpt lat="43.28194" lon="1.21442">
        <ele>216</ele>
        <time>2022-07-07T06:34:31Z</time>
      </trkpt>
      <trkpt lat="43.28191" lon="1.21436">
        <ele>216</ele>
        <time>2022-07-07T06:34:35Z</time>
      </trkpt>
      <trkpt lat="43.28181" lon="1.21425">
        <ele>216</ele>
        <time>2022-07-07T06:34:47Z</time>
      </trkpt>
      <trkpt lat="43.28179" lon="1.2142">
        <ele>216</ele>
        <time>2022-07-07T06:34:51Z</time>
      </trkpt>
      <trkpt lat="43.28175" lon="1.21417">
        <ele>216</ele>
        <time>2022-07-07T06:34:55Z</time>
      </trkpt>
      <trkpt lat="43.2816" lon="1.21402">
        <ele>215</ele>
        <time>2022-07-07T06:35:09Z</time>
      </trkpt>
      <trkpt lat="43.28155" lon="1.21402">
        <ele>215</ele>
        <time>2022-07-07T06:35:12Z</time>
      </trkpt>
      <trkpt lat="43.28152" lon="1.21397">
        <ele>215</ele>
        <time>2022-07-07T06:35:16Z</time>
      </trkpt>
      <trkpt lat="43.2815" lon="1.2139">
        <ele>215</ele>
        <time>2022-07-07T06:35:21Z</time>
      </trkpt>
      <trkpt lat="43.28137" lon="1.21369">
        <ele>214</ele>
        <time>2022-07-07T06:35:38Z</time>
      </trkpt>
      <trkpt lat="43.28135" lon="1.21364">
        <ele>215</ele>
        <time>2022-07-07T06:35:42Z</time>
      </trkpt>
      <trkpt lat="43.28128" lon="1.21356">
        <ele>215</ele>
        <time>2022-07-07T06:35:50Z</time>
      </trkpt>
      <trkpt lat="43.28112" lon="1.21335">
        <ele>216</ele>
        <time>2022-07-07T06:36:08Z</time>
      </trkpt>
      <trkpt lat="43.28104" lon="1.21322">
        <ele>216</ele>
        <time>2022-07-07T06:36:20Z</time>
      </trkpt>
      <trkpt lat="43.28097" lon="1.21312">
        <ele>215</ele>
        <time>2022-07-07T06:36:29Z</time>
      </trkpt>
      <trkpt lat="43.2809" lon="1.21302">
        <ele>216</ele>
        <time>2022-07-07T06:36:37Z</time>
      </trkpt>
      <trkpt lat="43.28086" lon="1.21298">
        <ele>216</ele>
        <time>2022-07-07T06:36:41Z</time>
      </trkpt>
      <trkpt lat="43.28083" lon="1.21294">
        <ele>216</ele>
        <time>2022-07-07T06:36:45Z</time>
      </trkpt>
      <trkpt lat="43.2808" lon="1.2129">
        <ele>216</ele>
        <time>2022-07-07T06:36:48Z</time>
      </trkpt>
      <trkpt lat="43.28066" lon="1.21277">
        <ele>216</ele>
        <time>2022-07-07T06:37:02Z</time>
      </trkpt>
      <trkpt lat="43.28061" lon="1.21267">
        <ele>216</ele>
        <time>2022-07-07T06:37:10Z</time>
      </trkpt>
      <trkpt lat="43.28058" lon="1.21262">
        <ele>216</ele>
        <time>2022-07-07T06:37:14Z</time>
      </trkpt>
      <trkpt lat="43.28055" lon="1.21259">
        <ele>217</ele>
        <time>2022-07-07T06:37:18Z</time>
      </trkpt>
      <trkpt lat="43.28036" lon="1.21237">
        <ele>216</ele>
        <time>2022-07-07T06:37:38Z</time>
      </trkpt>
      <trkpt lat="43.28032" lon="1.21232">
        <ele>216</ele>
        <time>2022-07-07T06:37:42Z</time>
      </trkpt>
      <trkpt lat="43.28033" lon="1.21234">
        <ele>218</ele>
        <time>2022-07-07T06:46:35Z</time>
      </trkpt>
      <trkpt lat="43.28032" lon="1.21226">
        <ele>218</ele>
        <time>2022-07-07T06:46:58Z</time>
      </trkpt>
      <trkpt lat="43.28026" lon="1.21219">
        <ele>218</ele>
        <time>2022-07-07T06:47:05Z</time>
      </trkpt>
      <trkpt lat="43.2802" lon="1.21208">
        <ele>218</ele>
        <time>2022-07-07T06:47:14Z</time>
      </trkpt>
      <trkpt lat="43.28001" lon="1.21186">
        <ele>219</ele>
        <time>2022-07-07T06:47:37Z</time>
      </trkpt>
      <trkpt lat="43.27994" lon="1.21178">
        <ele>219</ele>
        <time>2022-07-07T06:47:44Z</time>
      </trkpt>
      <trkpt lat="43.27977" lon="1.21155">
        <ele>219</ele>
        <time>2022-07-07T06:48:04Z</time>
      </trkpt>
      <trkpt lat="43.27972" lon="1.21149">
        <ele>220</ele>
        <time>2022-07-07T06:48:10Z</time>
      </trkpt>
      <trkpt lat="43.2797" lon="1.21144">
        <ele>220</ele>
        <time>2022-07-07T06:48:13Z</time>
      </trkpt>
      <trkpt lat="43.27951" lon="1.2112">
        <ele>220</ele>
        <time>2022-07-07T06:48:35Z</time>
      </trkpt>
      <trkpt lat="43.27949" lon="1.21116">
        <ele>220</ele>
        <time>2022-07-07T06:48:38Z</time>
      </trkpt>
      <trkpt lat="43.27945" lon="1.21113">
        <ele>220</ele>
        <time>2022-07-07T06:48:42Z</time>
      </trkpt>
      <trkpt lat="43.27939" lon="1.21105">
        <ele>220</ele>
        <time>2022-07-07T06:48:49Z</time>
      </trkpt>
      <trkpt lat="43.27937" lon="1.21102">
        <ele>220</ele>
        <time>2022-07-07T06:48:52Z</time>
      </trkpt>
      <trkpt lat="43.27935" lon="1.21098">
        <ele>220</ele>
        <time>2022-07-07T06:48:55Z</time>
      </trkpt>
      <trkpt lat="43.27907" lon="1.21062">
        <ele>221</ele>
        <time>2022-07-07T06:49:29Z</time>
      </trkpt>
      <trkpt lat="43.27904" lon="1.21059">
        <ele>221</ele>
        <time>2022-07-07T06:49:33Z</time>
      </trkpt>
      <trkpt lat="43.27897" lon="1.21049">
        <ele>221</ele>
        <time>2022-07-07T06:49:43Z</time>
      </trkpt>
      <trkpt lat="43.2787" lon="1.21014">
        <ele>221</ele>
        <time>2022-07-07T06:50:14Z</time>
      </trkpt>
      <trkpt lat="43.27865" lon="1.21007">
        <ele>221</ele>
        <time>2022-07-07T06:50:20Z</time>
      </trkpt>
      <trkpt lat="43.27862" lon="1.21003">
        <ele>221</ele>
        <time>2022-07-07T06:50:23Z</time>
      </trkpt>
      <trkpt lat="43.27859" lon="1.20999">
        <ele>221</ele>
        <time>2022-07-07T06:50:26Z</time>
      </trkpt>
      <trkpt lat="43.27853" lon="1.20992">
        <ele>221</ele>
        <time>2022-07-07T06:50:32Z</time>
      </trkpt>
      <trkpt lat="43.27848" lon="1.20985">
        <ele>222</ele>
        <time>2022-07-07T06:50:39Z</time>
      </trkpt>
      <trkpt lat="43.27843" lon="1.20976">
        <ele>222</ele>
        <time>2022-07-07T06:50:45Z</time>
      </trkpt>
      <trkpt lat="43.27841" lon="1.20974">
        <ele>222</ele>
        <time>2022-07-07T06:50:48Z</time>
      </trkpt>
      <trkpt lat="43.27835" lon="1.20965">
        <ele>221</ele>
        <time>2022-07-07T06:50:55Z</time>
      </trkpt>
      <trkpt lat="43.2783" lon="1.20958">
        <ele>221</ele>
        <time>2022-07-07T06:51:01Z</time>
      </trkpt>
      <trkpt lat="43.27829" lon="1.20953">
        <ele>221</ele>
        <time>2022-07-07T06:51:04Z</time>
      </trkpt>
      <trkpt lat="43.27809" lon="1.20925">
        <ele>221</ele>
        <time>2022-07-07T06:51:28Z</time>
      </trkpt>
      <trkpt lat="43.27805" lon="1.20915">
        <ele>221</ele>
        <time>2022-07-07T06:51:35Z</time>
      </trkpt>
      <trkpt lat="43.27801" lon="1.20911">
        <ele>221</ele>
        <time>2022-07-07T06:51:39Z</time>
      </trkpt>
      <trkpt lat="43.27799" lon="1.20906">
        <ele>221</ele>
        <time>2022-07-07T06:51:42Z</time>
      </trkpt>
      <trkpt lat="43.27797" lon="1.20901">
        <ele>221</ele>
        <time>2022-07-07T06:51:45Z</time>
      </trkpt>
      <trkpt lat="43.27794" lon="1.20897">
        <ele>221</ele>
        <time>2022-07-07T06:51:48Z</time>
      </trkpt>
      <trkpt lat="43.27792" lon="1.20893">
        <ele>221</ele>
        <time>2022-07-07T06:51:51Z</time>
      </trkpt>
      <trkpt lat="43.27787" lon="1.20884">
        <ele>221</ele>
        <time>2022-07-07T06:51:58Z</time>
      </trkpt>
      <trkpt lat="43.27785" lon="1.2088">
        <ele>221</ele>
        <time>2022-07-07T06:52:01Z</time>
      </trkpt>
      <trkpt lat="43.27776" lon="1.20867">
        <ele>220</ele>
        <time>2022-07-07T06:52:11Z</time>
      </trkpt>
      <trkpt lat="43.27774" lon="1.20864">
        <ele>220</ele>
        <time>2022-07-07T06:52:14Z</time>
      </trkpt>
      <trkpt lat="43.27765" lon="1.20845">
        <ele>220</ele>
        <time>2022-07-07T06:52:27Z</time>
      </trkpt>
      <trkpt lat="43.27762" lon="1.20842">
        <ele>220</ele>
        <time>2022-07-07T06:52:30Z</time>
      </trkpt>
      <trkpt lat="43.27753" lon="1.20825">
        <ele>221</ele>
        <time>2022-07-07T06:52:43Z</time>
      </trkpt>
      <trkpt lat="43.27749" lon="1.20817">
        <ele>221</ele>
        <time>2022-07-07T06:52:49Z</time>
      </trkpt>
      <trkpt lat="43.27746" lon="1.20814">
        <ele>221</ele>
        <time>2022-07-07T06:52:52Z</time>
      </trkpt>
      <trkpt lat="43.27744" lon="1.2081">
        <ele>221</ele>
        <time>2022-07-07T06:52:55Z</time>
      </trkpt>
      <trkpt lat="43.2774" lon="1.20802">
        <ele>221</ele>
        <time>2022-07-07T06:53:01Z</time>
      </trkpt>
      <trkpt lat="43.27734" lon="1.20794">
        <ele>221</ele>
        <time>2022-07-07T06:53:08Z</time>
      </trkpt>
      <trkpt lat="43.27725" lon="1.20776">
        <ele>221</ele>
        <time>2022-07-07T06:53:20Z</time>
      </trkpt>
      <trkpt lat="43.2772" lon="1.20768">
        <ele>221</ele>
        <time>2022-07-07T06:53:27Z</time>
      </trkpt>
      <trkpt lat="43.27694" lon="1.20724">
        <ele>222</ele>
        <time>2022-07-07T06:54:00Z</time>
      </trkpt>
      <trkpt lat="43.27692" lon="1.2072">
        <ele>222</ele>
        <time>2022-07-07T06:54:03Z</time>
      </trkpt>
      <trkpt lat="43.27676" lon="1.20693">
        <ele>222</ele>
        <time>2022-07-07T06:54:23Z</time>
      </trkpt>
      <trkpt lat="43.27674" lon="1.20689">
        <ele>221</ele>
        <time>2022-07-07T06:54:26Z</time>
      </trkpt>
      <trkpt lat="43.27649" lon="1.20645">
        <ele>221</ele>
        <time>2022-07-07T06:54:59Z</time>
      </trkpt>
      <trkpt lat="43.27624" lon="1.20603">
        <ele>222</ele>
        <time>2022-07-07T06:55:33Z</time>
      </trkpt>
      <trkpt lat="43.27621" lon="1.20597">
        <ele>222</ele>
        <time>2022-07-07T06:55:37Z</time>
      </trkpt>
      <trkpt lat="43.27618" lon="1.20593">
        <ele>222</ele>
        <time>2022-07-07T06:55:40Z</time>
      </trkpt>
      <trkpt lat="43.27599" lon="1.20557">
        <ele>222</ele>
        <time>2022-07-07T06:56:07Z</time>
      </trkpt>
      <trkpt lat="43.27589" lon="1.2054">
        <ele>222</ele>
        <time>2022-07-07T06:56:21Z</time>
      </trkpt>
      <trkpt lat="43.27587" lon="1.20535">
        <ele>223</ele>
        <time>2022-07-07T06:56:24Z</time>
      </trkpt>
      <trkpt lat="43.27575" lon="1.20517">
        <ele>223</ele>
        <time>2022-07-07T06:56:39Z</time>
      </trkpt>
      <trkpt lat="43.27573" lon="1.20512">
        <ele>223</ele>
        <time>2022-07-07T06:56:42Z</time>
      </trkpt>
      <trkpt lat="43.27571" lon="1.20507">
        <ele>223</ele>
        <time>2022-07-07T06:56:45Z</time>
      </trkpt>
      <trkpt lat="43.27567" lon="1.20504">
        <ele>223</ele>
        <time>2022-07-07T06:56:49Z</time>
      </trkpt>
      <trkpt lat="43.27564" lon="1.20499">
        <ele>223</ele>
        <time>2022-07-07T06:56:53Z</time>
      </trkpt>
      <trkpt lat="43.27563" lon="1.20493">
        <ele>223</ele>
        <time>2022-07-07T06:56:57Z</time>
      </trkpt>
      <trkpt lat="43.27554" lon="1.2048">
        <ele>223</ele>
        <time>2022-07-07T06:57:08Z</time>
      </trkpt>
      <trkpt lat="43.27551" lon="1.20475">
        <ele>223</ele>
        <time>2022-07-07T06:57:12Z</time>
      </trkpt>
      <trkpt lat="43.27541" lon="1.20456">
        <ele>223</ele>
        <time>2022-07-07T06:57:25Z</time>
      </trkpt>
      <trkpt lat="43.27535" lon="1.20448">
        <ele>223</ele>
        <time>2022-07-07T06:57:31Z</time>
      </trkpt>
      <trkpt lat="43.27533" lon="1.20443">
        <ele>223</ele>
        <time>2022-07-07T06:57:34Z</time>
      </trkpt>
      <trkpt lat="43.27521" lon="1.20422">
        <ele>223</ele>
        <time>2022-07-07T06:57:51Z</time>
      </trkpt>
      <trkpt lat="43.27516" lon="1.20414">
        <ele>223</ele>
        <time>2022-07-07T06:57:57Z</time>
      </trkpt>
      <trkpt lat="43.27513" lon="1.20409">
        <ele>223</ele>
        <time>2022-07-07T06:58:00Z</time>
      </trkpt>
      <trkpt lat="43.27511" lon="1.20405">
        <ele>223</ele>
        <time>2022-07-07T06:58:03Z</time>
      </trkpt>
      <trkpt lat="43.27508" lon="1.204">
        <ele>223</ele>
        <time>2022-07-07T06:58:07Z</time>
      </trkpt>
      <trkpt lat="43.27494" lon="1.20374">
        <ele>223</ele>
        <time>2022-07-07T06:58:28Z</time>
      </trkpt>
      <trkpt lat="43.27491" lon="1.20369">
        <ele>223</ele>
        <time>2022-07-07T06:58:32Z</time>
      </trkpt>
      <trkpt lat="43.27481" lon="1.20354">
        <ele>223</ele>
        <time>2022-07-07T06:58:44Z</time>
      </trkpt>
      <trkpt lat="43.27479" lon="1.2035">
        <ele>223</ele>
        <time>2022-07-07T06:58:47Z</time>
      </trkpt>
      <trkpt lat="43.27456" lon="1.20308">
        <ele>223</ele>
        <time>2022-07-07T06:59:19Z</time>
      </trkpt>
      <trkpt lat="43.27443" lon="1.20286">
        <ele>223</ele>
        <time>2022-07-07T06:59:35Z</time>
      </trkpt>
      <trkpt lat="43.27441" lon="1.20282">
        <ele>223</ele>
        <time>2022-07-07T06:59:38Z</time>
      </trkpt>
      <trkpt lat="43.27438" lon="1.20278">
        <ele>223</ele>
        <time>2022-07-07T06:59:41Z</time>
      </trkpt>
      <trkpt lat="43.27428" lon="1.2026">
        <ele>224</ele>
        <time>2022-07-07T06:59:53Z</time>
      </trkpt>
      <trkpt lat="43.27403" lon="1.20216">
        <ele>224</ele>
        <time>2022-07-07T07:00:26Z</time>
      </trkpt>
      <trkpt lat="43.27398" lon="1.20208">
        <ele>224</ele>
        <time>2022-07-07T07:00:32Z</time>
      </trkpt>
      <trkpt lat="43.27387" lon="1.20189">
        <ele>224</ele>
        <time>2022-07-07T07:00:47Z</time>
      </trkpt>
      <trkpt lat="43.27365" lon="1.2015">
        <ele>224</ele>
        <time>2022-07-07T07:01:17Z</time>
      </trkpt>
      <trkpt lat="43.27354" lon="1.2013">
        <ele>223</ele>
        <time>2022-07-07T07:01:33Z</time>
      </trkpt>
      <trkpt lat="43.27351" lon="1.20126">
        <ele>223</ele>
        <time>2022-07-07T07:01:36Z</time>
      </trkpt>
      <trkpt lat="43.27349" lon="1.20122">
        <ele>223</ele>
        <time>2022-07-07T07:01:39Z</time>
      </trkpt>
      <trkpt lat="43.27346" lon="1.20118">
        <ele>223</ele>
        <time>2022-07-07T07:01:42Z</time>
      </trkpt>
      <trkpt lat="43.27344" lon="1.20113">
        <ele>223</ele>
        <time>2022-07-07T07:01:45Z</time>
      </trkpt>
      <trkpt lat="43.27319" lon="1.20071">
        <ele>222</ele>
        <time>2022-07-07T07:02:17Z</time>
      </trkpt>
      <trkpt lat="43.27317" lon="1.20068">
        <ele>222</ele>
        <time>2022-07-07T07:02:20Z</time>
      </trkpt>
      <trkpt lat="43.27314" lon="1.20065">
        <ele>222</ele>
        <time>2022-07-07T07:02:23Z</time>
      </trkpt>
      <trkpt lat="43.27312" lon="1.20061">
        <ele>222</ele>
        <time>2022-07-07T07:02:26Z</time>
      </trkpt>
      <trkpt lat="43.27285" lon="1.20022">
        <ele>222</ele>
        <time>2022-07-07T07:02:59Z</time>
      </trkpt>
      <trkpt lat="43.27271" lon="1.20004">
        <ele>222</ele>
        <time>2022-07-07T07:03:15Z</time>
      </trkpt>
      <trkpt lat="43.27268" lon="1.20001">
        <ele>222</ele>
        <time>2022-07-07T07:03:18Z</time>
      </trkpt>
      <trkpt lat="43.27239" lon="1.19971">
        <ele>222</ele>
        <time>2022-07-07T07:03:49Z</time>
      </trkpt>
      <trkpt lat="43.27214" lon="1.19949">
        <ele>222</ele>
        <time>2022-07-07T07:04:12Z</time>
      </trkpt>
      <trkpt lat="43.272" lon="1.19938">
        <ele>223</ele>
        <time>2022-07-07T07:04:25Z</time>
      </trkpt>
      <trkpt lat="43.27167" lon="1.19912">
        <ele>222</ele>
        <time>2022-07-07T07:04:56Z</time>
      </trkpt>
      <trkpt lat="43.27164" lon="1.1991">
        <ele>222</ele>
        <time>2022-07-07T07:05:00Z</time>
      </trkpt>
      <trkpt lat="43.27147" lon="1.19898">
        <ele>222</ele>
        <time>2022-07-07T07:05:15Z</time>
      </trkpt>
      <trkpt lat="43.27144" lon="1.19895">
        <ele>222</ele>
        <time>2022-07-07T07:05:18Z</time>
      </trkpt>
      <trkpt lat="43.27141" lon="1.19892">
        <ele>222</ele>
        <time>2022-07-07T07:05:21Z</time>
      </trkpt>
      <trkpt lat="43.27131" lon="1.19884">
        <ele>222</ele>
        <time>2022-07-07T07:05:30Z</time>
      </trkpt>
      <trkpt lat="43.27127" lon="1.19881">
        <ele>222</ele>
        <time>2022-07-07T07:05:33Z</time>
      </trkpt>
      <trkpt lat="43.27124" lon="1.19879">
        <ele>222</ele>
        <time>2022-07-07T07:05:37Z</time>
      </trkpt>
      <trkpt lat="43.27108" lon="1.19867">
        <ele>222</ele>
        <time>2022-07-07T07:05:52Z</time>
      </trkpt>
      <trkpt lat="43.27104" lon="1.19864">
        <ele>222</ele>
        <time>2022-07-07T07:05:55Z</time>
      </trkpt>
      <trkpt lat="43.27088" lon="1.19851">
        <ele>222</ele>
        <time>2022-07-07T07:06:11Z</time>
      </trkpt>
      <trkpt lat="43.27083" lon="1.19846">
        <ele>222</ele>
        <time>2022-07-07T07:06:17Z</time>
      </trkpt>
      <trkpt lat="43.27079" lon="1.19844">
        <ele>222</ele>
        <time>2022-07-07T07:06:21Z</time>
      </trkpt>
      <trkpt lat="43.27075" lon="1.19843">
        <ele>222</ele>
        <time>2022-07-07T07:06:24Z</time>
      </trkpt>
      <trkpt lat="43.27072" lon="1.1984">
        <ele>222</ele>
        <time>2022-07-07T07:06:31Z</time>
      </trkpt>
      <trkpt lat="43.27065" lon="1.19832">
        <ele>222</ele>
        <time>2022-07-07T07:06:39Z</time>
      </trkpt>
      <trkpt lat="43.27061" lon="1.1983">
        <ele>222</ele>
        <time>2022-07-07T07:06:42Z</time>
      </trkpt>
      <trkpt lat="43.27057" lon="1.19827">
        <ele>222</ele>
        <time>2022-07-07T07:06:46Z</time>
      </trkpt>
      <trkpt lat="43.27037" lon="1.19814">
        <ele>222</ele>
        <time>2022-07-07T07:07:04Z</time>
      </trkpt>
      <trkpt lat="43.27025" lon="1.19802">
        <ele>222</ele>
        <time>2022-07-07T07:07:17Z</time>
      </trkpt>
      <trkpt lat="43.27021" lon="1.198">
        <ele>222</ele>
        <time>2022-07-07T07:07:20Z</time>
      </trkpt>
      <trkpt lat="43.27017" lon="1.19798">
        <ele>222</ele>
        <time>2022-07-07T07:07:24Z</time>
      </trkpt>
      <trkpt lat="43.27008" lon="1.19791">
        <ele>223</ele>
        <time>2022-07-07T07:07:31Z</time>
      </trkpt>
      <trkpt lat="43.27004" lon="1.19788">
        <ele>222</ele>
        <time>2022-07-07T07:07:35Z</time>
      </trkpt>
      <trkpt lat="43.27001" lon="1.19784">
        <ele>223</ele>
        <time>2022-07-07T07:07:38Z</time>
      </trkpt>
      <trkpt lat="43.26968" lon="1.19759">
        <ele>223</ele>
        <time>2022-07-07T07:08:11Z</time>
      </trkpt>
      <trkpt lat="43.26953" lon="1.19747">
        <ele>223</ele>
        <time>2022-07-07T07:08:26Z</time>
      </trkpt>
      <trkpt lat="43.26948" lon="1.19745">
        <ele>223</ele>
        <time>2022-07-07T07:08:30Z</time>
      </trkpt>
      <trkpt lat="43.26938" lon="1.19735">
        <ele>223</ele>
        <time>2022-07-07T07:08:42Z</time>
      </trkpt>
      <trkpt lat="43.26929" lon="1.19729">
        <ele>224</ele>
        <time>2022-07-07T07:08:58Z</time>
      </trkpt>
      <trkpt lat="43.2692" lon="1.19721">
        <ele>223</ele>
        <time>2022-07-07T07:09:07Z</time>
      </trkpt>
      <trkpt lat="43.26915" lon="1.19719">
        <ele>223</ele>
        <time>2022-07-07T07:09:10Z</time>
      </trkpt>
      <trkpt lat="43.26913" lon="1.19716">
        <ele>223</ele>
        <time>2022-07-07T07:09:13Z</time>
      </trkpt>
      <trkpt lat="43.26909" lon="1.19713">
        <ele>224</ele>
        <time>2022-07-07T07:09:18Z</time>
      </trkpt>
      <trkpt lat="43.26905" lon="1.19709">
        <ele>224</ele>
        <time>2022-07-07T07:09:21Z</time>
      </trkpt>
      <trkpt lat="43.26898" lon="1.19705">
        <ele>223</ele>
        <time>2022-07-07T07:09:27Z</time>
      </trkpt>
      <trkpt lat="43.26891" lon="1.19699">
        <ele>224</ele>
        <time>2022-07-07T07:09:34Z</time>
      </trkpt>
      <trkpt lat="43.26887" lon="1.19696">
        <ele>223</ele>
        <time>2022-07-07T07:09:37Z</time>
      </trkpt>
      <trkpt lat="43.26879" lon="1.1969">
        <ele>224</ele>
        <time>2022-07-07T07:09:44Z</time>
      </trkpt>
      <trkpt lat="43.26875" lon="1.19687">
        <ele>224</ele>
        <time>2022-07-07T07:09:47Z</time>
      </trkpt>
      <trkpt lat="43.26871" lon="1.19684">
        <ele>224</ele>
        <time>2022-07-07T07:09:51Z</time>
      </trkpt>
      <trkpt lat="43.26862" lon="1.19676">
        <ele>224</ele>
        <time>2022-07-07T07:10:00Z</time>
      </trkpt>
      <trkpt lat="43.26858" lon="1.19674">
        <ele>224</ele>
        <time>2022-07-07T07:10:04Z</time>
      </trkpt>
      <trkpt lat="43.26822" lon="1.19645">
        <ele>224</ele>
        <time>2022-07-07T07:10:38Z</time>
      </trkpt>
      <trkpt lat="43.26818" lon="1.19642">
        <ele>224</ele>
        <time>2022-07-07T07:10:42Z</time>
      </trkpt>
      <trkpt lat="43.26807" lon="1.19635">
        <ele>225</ele>
        <time>2022-07-07T07:10:52Z</time>
      </trkpt>
      <trkpt lat="43.26805" lon="1.19632">
        <ele>225</ele>
        <time>2022-07-07T07:10:55Z</time>
      </trkpt>
      <trkpt lat="43.26769" lon="1.19604">
        <ele>224</ele>
        <time>2022-07-07T07:11:29Z</time>
      </trkpt>
      <trkpt lat="43.26758" lon="1.19595">
        <ele>224</ele>
        <time>2022-07-07T07:11:39Z</time>
      </trkpt>
      <trkpt lat="43.2674" lon="1.19581">
        <ele>225</ele>
        <time>2022-07-07T07:11:57Z</time>
      </trkpt>
      <trkpt lat="43.26735" lon="1.19578">
        <ele>224</ele>
        <time>2022-07-07T07:12:03Z</time>
      </trkpt>
      <trkpt lat="43.26702" lon="1.19556">
        <ele>224</ele>
        <time>2022-07-07T07:12:31Z</time>
      </trkpt>
      <trkpt lat="43.26698" lon="1.19554">
        <ele>224</ele>
        <time>2022-07-07T07:12:35Z</time>
      </trkpt>
      <trkpt lat="43.26689" lon="1.19554">
        <ele>224</ele>
        <time>2022-07-07T07:12:43Z</time>
      </trkpt>
      <trkpt lat="43.26685" lon="1.19556">
        <ele>224</ele>
        <time>2022-07-07T07:12:47Z</time>
      </trkpt>
      <trkpt lat="43.26681" lon="1.19554">
        <ele>224</ele>
        <time>2022-07-07T07:12:52Z</time>
      </trkpt>
      <trkpt lat="43.26678" lon="1.19555">
        <ele>224</ele>
        <time>2022-07-07T07:13:11Z</time>
      </trkpt>
      <trkpt lat="43.26674" lon="1.19552">
        <ele>224</ele>
        <time>2022-07-07T07:13:15Z</time>
      </trkpt>
      <trkpt lat="43.26672" lon="1.19548">
        <ele>224</ele>
        <time>2022-07-07T07:13:18Z</time>
      </trkpt>
      <trkpt lat="43.26661" lon="1.19552">
        <ele>223</ele>
        <time>2022-07-07T07:13:37Z</time>
      </trkpt>
      <trkpt lat="43.26648" lon="1.19554">
        <ele>224</ele>
        <time>2022-07-07T07:13:50Z</time>
      </trkpt>
      <trkpt lat="43.26638" lon="1.19553">
        <ele>224</ele>
        <time>2022-07-07T07:14:00Z</time>
      </trkpt>
      <trkpt lat="43.26636" lon="1.19546">
        <ele>223</ele>
        <time>2022-07-07T07:14:14Z</time>
      </trkpt>
      <trkpt lat="43.2663" lon="1.19539">
        <ele>224</ele>
        <time>2022-07-07T07:16:14Z</time>
      </trkpt>
      <trkpt lat="43.26634" lon="1.1953">
        <ele>230</ele>
        <time>2022-07-07T07:25:09Z</time>
      </trkpt>
      <trkpt lat="43.26637" lon="1.19525">
        <ele>229</ele>
        <time>2022-07-07T07:25:13Z</time>
      </trkpt>
      <trkpt lat="43.2664" lon="1.19521">
        <ele>229</ele>
        <time>2022-07-07T07:25:17Z</time>
      </trkpt>
      <trkpt lat="43.26644" lon="1.19521">
        <ele>230</ele>
        <time>2022-07-07T07:25:20Z</time>
      </trkpt>
      <trkpt lat="43.26646" lon="1.19526">
        <ele>230</ele>
        <time>2022-07-07T07:25:23Z</time>
      </trkpt>
      <trkpt lat="43.26652" lon="1.19534">
        <ele>230</ele>
        <time>2022-07-07T07:25:31Z</time>
      </trkpt>
      <trkpt lat="43.26656" lon="1.19537">
        <ele>230</ele>
        <time>2022-07-07T07:25:38Z</time>
      </trkpt>
      <trkpt lat="43.26663" lon="1.1955">
        <ele>230</ele>
        <time>2022-07-07T07:25:48Z</time>
      </trkpt>
      <trkpt lat="43.26667" lon="1.19549">
        <ele>230</ele>
        <time>2022-07-07T07:25:56Z</time>
      </trkpt>
      <trkpt lat="43.26669" lon="1.19541">
        <ele>231</ele>
        <time>2022-07-07T07:26:08Z</time>
      </trkpt>
      <trkpt lat="43.26666" lon="1.19537">
        <ele>231</ele>
        <time>2022-07-07T07:26:13Z</time>
      </trkpt>
      <trkpt lat="43.26665" lon="1.1953">
        <ele>231</ele>
        <time>2022-07-07T07:26:19Z</time>
      </trkpt>
      <trkpt lat="43.26656" lon="1.19523">
        <ele>230</ele>
        <time>2022-07-07T07:26:30Z</time>
      </trkpt>
      <trkpt lat="43.26649" lon="1.19519">
        <ele>231</ele>
        <time>2022-07-07T07:26:37Z</time>
      </trkpt>
      <trkpt lat="43.26645" lon="1.19514">
        <ele>231</ele>
        <time>2022-07-07T07:26:40Z</time>
      </trkpt>
      <trkpt lat="43.26641" lon="1.19512">
        <ele>231</ele>
        <time>2022-07-07T07:26:43Z</time>
      </trkpt>
      <trkpt lat="43.26629" lon="1.19503">
        <ele>230</ele>
        <time>2022-07-07T07:26:56Z</time>
      </trkpt>
      <trkpt lat="43.26626" lon="1.195">
        <ele>230</ele>
        <time>2022-07-07T07:27:00Z</time>
      </trkpt>
      <trkpt lat="43.26622" lon="1.19498">
        <ele>230</ele>
        <time>2022-07-07T07:27:04Z</time>
      </trkpt>
      <trkpt lat="43.26618" lon="1.19498">
        <ele>230</ele>
        <time>2022-07-07T07:27:07Z</time>
      </trkpt>
      <trkpt lat="43.2661" lon="1.19492">
        <ele>229</ele>
        <time>2022-07-07T07:27:13Z</time>
      </trkpt>
      <trkpt lat="43.26605" lon="1.19487">
        <ele>230</ele>
        <time>2022-07-07T07:27:19Z</time>
      </trkpt>
      <trkpt lat="43.26594" lon="1.1948">
        <ele>229</ele>
        <time>2022-07-07T07:27:30Z</time>
      </trkpt>
      <trkpt lat="43.2659" lon="1.19477">
        <ele>229</ele>
        <time>2022-07-07T07:27:33Z</time>
      </trkpt>
      <trkpt lat="43.26579" lon="1.19469">
        <ele>229</ele>
        <time>2022-07-07T07:27:44Z</time>
      </trkpt>
      <trkpt lat="43.26574" lon="1.19466">
        <ele>229</ele>
        <time>2022-07-07T07:27:48Z</time>
      </trkpt>
      <trkpt lat="43.26567" lon="1.19463">
        <ele>229</ele>
        <time>2022-07-07T07:27:54Z</time>
      </trkpt>
      <trkpt lat="43.26563" lon="1.1946">
        <ele>229</ele>
        <time>2022-07-07T07:27:58Z</time>
      </trkpt>
      <trkpt lat="43.26555" lon="1.19458">
        <ele>229</ele>
        <time>2022-07-07T07:28:05Z</time>
      </trkpt>
      <trkpt lat="43.26551" lon="1.19457">
        <ele>229</ele>
        <time>2022-07-07T07:28:08Z</time>
      </trkpt>
      <trkpt lat="43.26546" lon="1.19456">
        <ele>229</ele>
        <time>2022-07-07T07:28:12Z</time>
      </trkpt>
      <trkpt lat="43.26541" lon="1.19456">
        <ele>229</ele>
        <time>2022-07-07T07:28:16Z</time>
      </trkpt>
      <trkpt lat="43.26536" lon="1.19454">
        <ele>230</ele>
        <time>2022-07-07T07:28:20Z</time>
      </trkpt>
      <trkpt lat="43.26532" lon="1.19453">
        <ele>229</ele>
        <time>2022-07-07T07:28:24Z</time>
      </trkpt>
      <trkpt lat="43.26527" lon="1.19454">
        <ele>230</ele>
        <time>2022-07-07T07:28:29Z</time>
      </trkpt>
      <trkpt lat="43.26521" lon="1.19454">
        <ele>229</ele>
        <time>2022-07-07T07:28:36Z</time>
      </trkpt>
      <trkpt lat="43.26518" lon="1.1945">
        <ele>229</ele>
        <time>2022-07-07T07:28:39Z</time>
      </trkpt>
      <trkpt lat="43.265" lon="1.19442">
        <ele>229</ele>
        <time>2022-07-07T07:28:53Z</time>
      </trkpt>
      <trkpt lat="43.26491" lon="1.19442">
        <ele>230</ele>
        <time>2022-07-07T07:29:01Z</time>
      </trkpt>
      <trkpt lat="43.26482" lon="1.19439">
        <ele>230</ele>
        <time>2022-07-07T07:29:09Z</time>
      </trkpt>
      <trkpt lat="43.2647" lon="1.19435">
        <ele>229</ele>
        <time>2022-07-07T07:29:20Z</time>
      </trkpt>
      <trkpt lat="43.26465" lon="1.19435">
        <ele>229</ele>
        <time>2022-07-07T07:29:23Z</time>
      </trkpt>
      <trkpt lat="43.26458" lon="1.19433">
        <ele>228</ele>
        <time>2022-07-07T07:29:29Z</time>
      </trkpt>
      <trkpt lat="43.26455" lon="1.19431">
        <ele>229</ele>
        <time>2022-07-07T07:29:32Z</time>
      </trkpt>
      <trkpt lat="43.26446" lon="1.19431">
        <ele>228</ele>
        <time>2022-07-07T07:29:39Z</time>
      </trkpt>
      <trkpt lat="43.26442" lon="1.19431">
        <ele>229</ele>
        <time>2022-07-07T07:29:43Z</time>
      </trkpt>
      <trkpt lat="43.26404" lon="1.19421">
        <ele>228</ele>
        <time>2022-07-07T07:30:13Z</time>
      </trkpt>
      <trkpt lat="43.264" lon="1.1942">
        <ele>228</ele>
        <time>2022-07-07T07:30:16Z</time>
      </trkpt>
      <trkpt lat="43.26388" lon="1.1942">
        <ele>228</ele>
        <time>2022-07-07T07:30:26Z</time>
      </trkpt>
      <trkpt lat="43.26377" lon="1.19416">
        <ele>228</ele>
        <time>2022-07-07T07:30:36Z</time>
      </trkpt>
      <trkpt lat="43.26364" lon="1.19415">
        <ele>229</ele>
        <time>2022-07-07T07:30:47Z</time>
      </trkpt>
      <trkpt lat="43.26355" lon="1.19413">
        <ele>228</ele>
        <time>2022-07-07T07:30:54Z</time>
      </trkpt>
      <trkpt lat="43.26351" lon="1.19413">
        <ele>229</ele>
        <time>2022-07-07T07:30:57Z</time>
      </trkpt>
      <trkpt lat="43.26339" lon="1.19411">
        <ele>229</ele>
        <time>2022-07-07T07:31:07Z</time>
      </trkpt>
      <trkpt lat="43.26334" lon="1.1941">
        <ele>229</ele>
        <time>2022-07-07T07:31:11Z</time>
      </trkpt>
      <trkpt lat="43.2633" lon="1.19409">
        <ele>229</ele>
        <time>2022-07-07T07:31:15Z</time>
      </trkpt>
      <trkpt lat="43.26321" lon="1.19408">
        <ele>229</ele>
        <time>2022-07-07T07:31:22Z</time>
      </trkpt>
      <trkpt lat="43.26316" lon="1.19408">
        <ele>229</ele>
        <time>2022-07-07T07:31:26Z</time>
      </trkpt>
      <trkpt lat="43.26312" lon="1.19405">
        <ele>228</ele>
        <time>2022-07-07T07:31:30Z</time>
      </trkpt>
      <trkpt lat="43.26307" lon="1.19405">
        <ele>228</ele>
        <time>2022-07-07T07:31:34Z</time>
      </trkpt>
      <trkpt lat="43.26297" lon="1.19403">
        <ele>229</ele>
        <time>2022-07-07T07:31:42Z</time>
      </trkpt>
      <trkpt lat="43.26293" lon="1.19402">
        <ele>229</ele>
        <time>2022-07-07T07:31:46Z</time>
      </trkpt>
      <trkpt lat="43.26286" lon="1.19403">
        <ele>228</ele>
        <time>2022-07-07T07:31:52Z</time>
      </trkpt>
      <trkpt lat="43.26279" lon="1.19399">
        <ele>228</ele>
        <time>2022-07-07T07:31:58Z</time>
      </trkpt>
      <trkpt lat="43.26275" lon="1.19398">
        <ele>228</ele>
        <time>2022-07-07T07:32:02Z</time>
      </trkpt>
      <trkpt lat="43.2627" lon="1.19397">
        <ele>228</ele>
        <time>2022-07-07T07:32:06Z</time>
      </trkpt>
      <trkpt lat="43.26266" lon="1.19396">
        <ele>228</ele>
        <time>2022-07-07T07:32:09Z</time>
      </trkpt>
      <trkpt lat="43.26262" lon="1.19395">
        <ele>228</ele>
        <time>2022-07-07T07:32:13Z</time>
      </trkpt>
      <trkpt lat="43.26259" lon="1.19392">
        <ele>228</ele>
        <time>2022-07-07T07:32:17Z</time>
      </trkpt>
      <trkpt lat="43.26254" lon="1.19394">
        <ele>228</ele>
        <time>2022-07-07T07:32:24Z</time>
      </trkpt>
      <trkpt lat="43.26248" lon="1.19395">
        <ele>228</ele>
        <time>2022-07-07T07:32:30Z</time>
      </trkpt>
      <trkpt lat="43.26243" lon="1.19394">
        <ele>228</ele>
        <time>2022-07-07T07:32:33Z</time>
      </trkpt>
      <trkpt lat="43.26238" lon="1.19394">
        <ele>228</ele>
        <time>2022-07-07T07:32:37Z</time>
      </trkpt>
      <trkpt lat="43.26226" lon="1.19389">
        <ele>228</ele>
        <time>2022-07-07T07:32:48Z</time>
      </trkpt>
      <trkpt lat="43.26222" lon="1.19387">
        <ele>227</ele>
        <time>2022-07-07T07:32:51Z</time>
      </trkpt>
      <trkpt lat="43.26212" lon="1.19384">
        <ele>228</ele>
        <time>2022-07-07T07:33:00Z</time>
      </trkpt>
      <trkpt lat="43.26199" lon="1.19382">
        <ele>227</ele>
        <time>2022-07-07T07:33:12Z</time>
      </trkpt>
      <trkpt lat="43.26188" lon="1.1938">
        <ele>227</ele>
        <time>2022-07-07T07:33:22Z</time>
      </trkpt>
      <trkpt lat="43.26183" lon="1.19379">
        <ele>227</ele>
        <time>2022-07-07T07:33:26Z</time>
      </trkpt>
      <trkpt lat="43.26179" lon="1.19378">
        <ele>227</ele>
        <time>2022-07-07T07:33:29Z</time>
      </trkpt>
      <trkpt lat="43.26157" lon="1.19373">
        <ele>227</ele>
        <time>2022-07-07T07:33:46Z</time>
      </trkpt>
      <trkpt lat="43.26153" lon="1.19373">
        <ele>227</ele>
        <time>2022-07-07T07:33:50Z</time>
      </trkpt>
      <trkpt lat="43.26149" lon="1.19371">
        <ele>227</ele>
        <time>2022-07-07T07:33:53Z</time>
      </trkpt>
      <trkpt lat="43.26142" lon="1.1937">
        <ele>226</ele>
        <time>2022-07-07T07:34:00Z</time>
      </trkpt>
      <trkpt lat="43.26134" lon="1.19369">
        <ele>226</ele>
        <time>2022-07-07T07:34:06Z</time>
      </trkpt>
      <trkpt lat="43.26127" lon="1.19364">
        <ele>226</ele>
        <time>2022-07-07T07:34:14Z</time>
      </trkpt>
      <trkpt lat="43.26113" lon="1.19363">
        <ele>226</ele>
        <time>2022-07-07T07:34:24Z</time>
      </trkpt>
      <trkpt lat="43.2611" lon="1.19362">
        <ele>226</ele>
        <time>2022-07-07T07:34:28Z</time>
      </trkpt>
      <trkpt lat="43.26104" lon="1.19361">
        <ele>226</ele>
        <time>2022-07-07T07:34:32Z</time>
      </trkpt>
      <trkpt lat="43.261" lon="1.19362">
        <ele>226</ele>
        <time>2022-07-07T07:34:36Z</time>
      </trkpt>
      <trkpt lat="43.26091" lon="1.19358">
        <ele>226</ele>
        <time>2022-07-07T07:34:44Z</time>
      </trkpt>
      <trkpt lat="43.26086" lon="1.19358">
        <ele>226</ele>
        <time>2022-07-07T07:34:47Z</time>
      </trkpt>
      <trkpt lat="43.26079" lon="1.19355">
        <ele>226</ele>
        <time>2022-07-07T07:34:54Z</time>
      </trkpt>
      <trkpt lat="43.26065" lon="1.19353">
        <ele>225</ele>
        <time>2022-07-07T07:35:07Z</time>
      </trkpt>
      <trkpt lat="43.26061" lon="1.19351">
        <ele>225</ele>
        <time>2022-07-07T07:35:10Z</time>
      </trkpt>
      <trkpt lat="43.26057" lon="1.19351">
        <ele>226</ele>
        <time>2022-07-07T07:35:13Z</time>
      </trkpt>
      <trkpt lat="43.26053" lon="1.19347">
        <ele>226</ele>
        <time>2022-07-07T07:35:17Z</time>
      </trkpt>
      <trkpt lat="43.26049" lon="1.19347">
        <ele>225</ele>
        <time>2022-07-07T07:35:20Z</time>
      </trkpt>
      <trkpt lat="43.26045" lon="1.19349">
        <ele>225</ele>
        <time>2022-07-07T07:35:24Z</time>
      </trkpt>
      <trkpt lat="43.26032" lon="1.19349">
        <ele>225</ele>
        <time>2022-07-07T07:35:35Z</time>
      </trkpt>
      <trkpt lat="43.26027" lon="1.19344">
        <ele>225</ele>
        <time>2022-07-07T07:35:41Z</time>
      </trkpt>
      <trkpt lat="43.26011" lon="1.19343">
        <ele>226</ele>
        <time>2022-07-07T07:35:54Z</time>
      </trkpt>
      <trkpt lat="43.26007" lon="1.19341">
        <ele>226</ele>
        <time>2022-07-07T07:35:58Z</time>
      </trkpt>
      <trkpt lat="43.26003" lon="1.1934">
        <ele>226</ele>
        <time>2022-07-07T07:36:02Z</time>
      </trkpt>
      <trkpt lat="43.25998" lon="1.19337">
        <ele>226</ele>
        <time>2022-07-07T07:36:06Z</time>
      </trkpt>
      <trkpt lat="43.25991" lon="1.19336">
        <ele>226</ele>
        <time>2022-07-07T07:36:14Z</time>
      </trkpt>
      <trkpt lat="43.25985" lon="1.19337">
        <ele>226</ele>
        <time>2022-07-07T07:36:19Z</time>
      </trkpt>
      <trkpt lat="43.25953" lon="1.19327">
        <ele>227</ele>
        <time>2022-07-07T07:36:50Z</time>
      </trkpt>
      <trkpt lat="43.25947" lon="1.19325">
        <ele>226</ele>
        <time>2022-07-07T07:36:55Z</time>
      </trkpt>
      <trkpt lat="43.25945" lon="1.19319">
        <ele>228</ele>
        <time>2022-07-07T07:37:16Z</time>
      </trkpt>
      <trkpt lat="43.25924" lon="1.19323">
        <ele>228</ele>
        <time>2022-07-07T07:37:53Z</time>
      </trkpt>
      <trkpt lat="43.2592" lon="1.19322">
        <ele>228</ele>
        <time>2022-07-07T07:37:57Z</time>
      </trkpt>
      <trkpt lat="43.25917" lon="1.1932">
        <ele>228</ele>
        <time>2022-07-07T07:38:01Z</time>
      </trkpt>
      <trkpt lat="43.25913" lon="1.19319">
        <ele>228</ele>
        <time>2022-07-07T07:38:04Z</time>
      </trkpt>
      <trkpt lat="43.25907" lon="1.19314">
        <ele>227</ele>
        <time>2022-07-07T07:38:10Z</time>
      </trkpt>
      <trkpt lat="43.25907" lon="1.19309">
        <ele>227</ele>
        <time>2022-07-07T07:38:18Z</time>
      </trkpt>
      <trkpt lat="43.25892" lon="1.19317">
        <ele>227</ele>
        <time>2022-07-07T07:38:32Z</time>
      </trkpt>
      <trkpt lat="43.25889" lon="1.19322">
        <ele>227</ele>
        <time>2022-07-07T07:38:36Z</time>
      </trkpt>
      <trkpt lat="43.25879" lon="1.19338">
        <ele>226</ele>
        <time>2022-07-07T07:38:52Z</time>
      </trkpt>
      <trkpt lat="43.25879" lon="1.19344">
        <ele>226</ele>
        <time>2022-07-07T07:38:55Z</time>
      </trkpt>
      <trkpt lat="43.25872" lon="1.19361">
        <ele>227</ele>
        <time>2022-07-07T07:39:09Z</time>
      </trkpt>
      <trkpt lat="43.25865" lon="1.19374">
        <ele>226</ele>
        <time>2022-07-07T07:39:17Z</time>
      </trkpt>
      <trkpt lat="43.2586" lon="1.1938">
        <ele>226</ele>
        <time>2022-07-07T07:39:21Z</time>
      </trkpt>
      <trkpt lat="43.25858" lon="1.19387">
        <ele>226</ele>
        <time>2022-07-07T07:39:25Z</time>
      </trkpt>
      <trkpt lat="43.25857" lon="1.19396">
        <ele>226</ele>
        <time>2022-07-07T07:39:31Z</time>
      </trkpt>
      <trkpt lat="43.25855" lon="1.19403">
        <ele>226</ele>
        <time>2022-07-07T07:39:35Z</time>
      </trkpt>
      <trkpt lat="43.25854" lon="1.1941">
        <ele>226</ele>
        <time>2022-07-07T07:39:40Z</time>
      </trkpt>
      <trkpt lat="43.25851" lon="1.19419">
        <ele>226</ele>
        <time>2022-07-07T07:39:47Z</time>
      </trkpt>
      <trkpt lat="43.25845" lon="1.19435">
        <ele>225</ele>
        <time>2022-07-07T07:39:56Z</time>
      </trkpt>
      <trkpt lat="43.25844" lon="1.19442">
        <ele>225</ele>
        <time>2022-07-07T07:40:01Z</time>
      </trkpt>
      <trkpt lat="43.25837" lon="1.19466">
        <ele>225</ele>
        <time>2022-07-07T07:40:16Z</time>
      </trkpt>
      <trkpt lat="43.25838" lon="1.19474">
        <ele>225</ele>
        <time>2022-07-07T07:40:22Z</time>
      </trkpt>
      <trkpt lat="43.25836" lon="1.19482">
        <ele>225</ele>
        <time>2022-07-07T07:40:27Z</time>
      </trkpt>
      <trkpt lat="43.25834" lon="1.19489">
        <ele>226</ele>
        <time>2022-07-07T07:40:32Z</time>
      </trkpt>
      <trkpt lat="43.25834" lon="1.19497">
        <ele>226</ele>
        <time>2022-07-07T07:40:38Z</time>
      </trkpt>
      <trkpt lat="43.2583" lon="1.195">
        <ele>227</ele>
        <time>2022-07-07T07:40:58Z</time>
      </trkpt>
      <trkpt lat="43.25824" lon="1.19514">
        <ele>226</ele>
        <time>2022-07-07T07:41:46Z</time>
      </trkpt>
      <trkpt lat="43.25821" lon="1.1952">
        <ele>226</ele>
        <time>2022-07-07T07:41:50Z</time>
      </trkpt>
      <trkpt lat="43.2582" lon="1.19536">
        <ele>226</ele>
        <time>2022-07-07T07:42:25Z</time>
      </trkpt>
      <trkpt lat="43.25817" lon="1.19553">
        <ele>226</ele>
        <time>2022-07-07T07:42:48Z</time>
      </trkpt>
      <trkpt lat="43.25812" lon="1.19558">
        <ele>225</ele>
        <time>2022-07-07T07:42:52Z</time>
      </trkpt>
      <trkpt lat="43.25811" lon="1.19565">
        <ele>225</ele>
        <time>2022-07-07T07:42:56Z</time>
      </trkpt>
      <trkpt lat="43.2581" lon="1.19572">
        <ele>225</ele>
        <time>2022-07-07T07:43:00Z</time>
      </trkpt>
      <trkpt lat="43.25808" lon="1.19579">
        <ele>226</ele>
        <time>2022-07-07T07:43:04Z</time>
      </trkpt>
      <trkpt lat="43.25807" lon="1.19585">
        <ele>225</ele>
        <time>2022-07-07T07:43:08Z</time>
      </trkpt>
      <trkpt lat="43.25804" lon="1.1959">
        <ele>225</ele>
        <time>2022-07-07T07:43:12Z</time>
      </trkpt>
      <trkpt lat="43.25803" lon="1.19596">
        <ele>225</ele>
        <time>2022-07-07T07:43:15Z</time>
      </trkpt>
      <trkpt lat="43.258" lon="1.19601">
        <ele>225</ele>
        <time>2022-07-07T07:43:19Z</time>
      </trkpt>
      <trkpt lat="43.25801" lon="1.19607">
        <ele>225</ele>
        <time>2022-07-07T07:43:21Z</time>
      </trkpt>
      <trkpt lat="43.25798" lon="1.19612">
        <ele>225</ele>
        <time>2022-07-07T07:43:24Z</time>
      </trkpt>
      <trkpt lat="43.25795" lon="1.19618">
        <ele>225</ele>
        <time>2022-07-07T07:43:28Z</time>
      </trkpt>
      <trkpt lat="43.25793" lon="1.19623">
        <ele>225</ele>
        <time>2022-07-07T07:43:31Z</time>
      </trkpt>
      <trkpt lat="43.25788" lon="1.19635">
        <ele>225</ele>
        <time>2022-07-07T07:43:40Z</time>
      </trkpt>
      <trkpt lat="43.25784" lon="1.19645">
        <ele>224</ele>
        <time>2022-07-07T07:43:46Z</time>
      </trkpt>
      <trkpt lat="43.25779" lon="1.19653">
        <ele>225</ele>
        <time>2022-07-07T07:43:56Z</time>
      </trkpt>
      <trkpt lat="43.25769" lon="1.19675">
        <ele>225</ele>
        <time>2022-07-07T07:44:13Z</time>
      </trkpt>
      <trkpt lat="43.25767" lon="1.19683">
        <ele>225</ele>
        <time>2022-07-07T07:44:19Z</time>
      </trkpt>
      <trkpt lat="43.2576" lon="1.19698">
        <ele>224</ele>
        <time>2022-07-07T07:44:29Z</time>
      </trkpt>
      <trkpt lat="43.25761" lon="1.19707">
        <ele>225</ele>
        <time>2022-07-07T07:44:34Z</time>
      </trkpt>
      <trkpt lat="43.25756" lon="1.19725">
        <ele>224</ele>
        <time>2022-07-07T07:44:46Z</time>
      </trkpt>
      <trkpt lat="43.25747" lon="1.19774">
        <ele>224</ele>
        <time>2022-07-07T07:45:21Z</time>
      </trkpt>
      <trkpt lat="43.25741" lon="1.19783">
        <ele>224</ele>
        <time>2022-07-07T07:45:31Z</time>
      </trkpt>
      <trkpt lat="43.25738" lon="1.1979">
        <ele>224</ele>
        <time>2022-07-07T07:45:36Z</time>
      </trkpt>
      <trkpt lat="43.25739" lon="1.19808">
        <ele>224</ele>
        <time>2022-07-07T07:45:46Z</time>
      </trkpt>
      <trkpt lat="43.25729" lon="1.19851">
        <ele>223</ele>
        <time>2022-07-07T07:46:14Z</time>
      </trkpt>
      <trkpt lat="43.2573" lon="1.19858">
        <ele>223</ele>
        <time>2022-07-07T07:46:16Z</time>
      </trkpt>
      <trkpt lat="43.25733" lon="1.19863">
        <ele>223</ele>
        <time>2022-07-07T07:46:19Z</time>
      </trkpt>
      <trkpt lat="43.25732" lon="1.19869">
        <ele>223</ele>
        <time>2022-07-07T07:46:22Z</time>
      </trkpt>
      <trkpt lat="43.25731" lon="1.19875">
        <ele>223</ele>
        <time>2022-07-07T07:46:26Z</time>
      </trkpt>
      <trkpt lat="43.25727" lon="1.19878">
        <ele>223</ele>
        <time>2022-07-07T07:46:30Z</time>
      </trkpt>
      <trkpt lat="43.25727" lon="1.19886">
        <ele>223</ele>
        <time>2022-07-07T07:46:35Z</time>
      </trkpt>
      <trkpt lat="43.25723" lon="1.19891">
        <ele>224</ele>
        <time>2022-07-07T07:46:50Z</time>
      </trkpt>
      <trkpt lat="43.25726" lon="1.19888">
        <ele>224</ele>
        <time>2022-07-07T07:48:02Z</time>
      </trkpt>
      <trkpt lat="43.25731" lon="1.19886">
        <ele>224</ele>
        <time>2022-07-07T07:48:14Z</time>
      </trkpt>
      <trkpt lat="43.25732" lon="1.19889">
        <ele>223</ele>
        <time>2022-07-07T07:49:00Z</time>
      </trkpt>
      <trkpt lat="43.25728" lon="1.19893">
        <ele>223</ele>
        <time>2022-07-07T07:49:05Z</time>
      </trkpt>
      <trkpt lat="43.25725" lon="1.19894">
        <ele>223</ele>
        <time>2022-07-07T07:50:00Z</time>
      </trkpt>
      <trkpt lat="43.25726" lon="1.19901">
        <ele>223</ele>
        <time>2022-07-07T07:50:12Z</time>
      </trkpt>
      <trkpt lat="43.25723" lon="1.19906">
        <ele>223</ele>
        <time>2022-07-07T07:50:18Z</time>
      </trkpt>
      <trkpt lat="43.25717" lon="1.19925">
        <ele>223</ele>
        <time>2022-07-07T07:50:35Z</time>
      </trkpt>
      <trkpt lat="43.25716" lon="1.19933">
        <ele>222</ele>
        <time>2022-07-07T07:50:41Z</time>
      </trkpt>
      <trkpt lat="43.25719" lon="1.1995">
        <ele>223</ele>
        <time>2022-07-07T07:50:51Z</time>
      </trkpt>
      <trkpt lat="43.25729" lon="1.19989">
        <ele>222</ele>
        <time>2022-07-07T07:51:21Z</time>
      </trkpt>
      <trkpt lat="43.25741" lon="1.20027">
        <ele>222</ele>
        <time>2022-07-07T07:51:57Z</time>
      </trkpt>
      <trkpt lat="43.25748" lon="1.20047">
        <ele>222</ele>
        <time>2022-07-07T07:52:09Z</time>
      </trkpt>
      <trkpt lat="43.25754" lon="1.20053">
        <ele>222</ele>
        <time>2022-07-07T07:52:15Z</time>
      </trkpt>
      <trkpt lat="43.25758" lon="1.2006">
        <ele>222</ele>
        <time>2022-07-07T07:52:21Z</time>
      </trkpt>
      <trkpt lat="43.25761" lon="1.20068">
        <ele>222</ele>
        <time>2022-07-07T07:52:26Z</time>
      </trkpt>
      <trkpt lat="43.25766" lon="1.20075">
        <ele>222</ele>
        <time>2022-07-07T07:52:32Z</time>
      </trkpt>
      <trkpt lat="43.25772" lon="1.20091">
        <ele>222</ele>
        <time>2022-07-07T07:52:47Z</time>
      </trkpt>
      <trkpt lat="43.25772" lon="1.20099">
        <ele>222</ele>
        <time>2022-07-07T07:52:53Z</time>
      </trkpt>
      <trkpt lat="43.25749" lon="1.20117">
        <ele>222</ele>
        <time>2022-07-07T07:53:18Z</time>
      </trkpt>
      <trkpt lat="43.25755" lon="1.20108">
        <ele>222</ele>
        <time>2022-07-07T07:53:43Z</time>
      </trkpt>
      <trkpt lat="43.25761" lon="1.20106">
        <ele>223</ele>
        <time>2022-07-07T07:53:53Z</time>
      </trkpt>
      <trkpt lat="43.25769" lon="1.2011">
        <ele>223</ele>
        <time>2022-07-07T07:54:05Z</time>
      </trkpt>
      <trkpt lat="43.25774" lon="1.20109">
        <ele>223</ele>
        <time>2022-07-07T07:54:11Z</time>
      </trkpt>
      <trkpt lat="43.25785" lon="1.20131">
        <ele>223</ele>
        <time>2022-07-07T07:54:23Z</time>
      </trkpt>
      <trkpt lat="43.25791" lon="1.20173">
        <ele>223</ele>
        <time>2022-07-07T07:54:58Z</time>
      </trkpt>
      <trkpt lat="43.25793" lon="1.20186">
        <ele>222</ele>
        <time>2022-07-07T07:55:09Z</time>
      </trkpt>
      <trkpt lat="43.2579" lon="1.20211">
        <ele>222</ele>
        <time>2022-07-07T07:55:26Z</time>
      </trkpt>
      <trkpt lat="43.25792" lon="1.20221">
        <ele>222</ele>
        <time>2022-07-07T07:55:33Z</time>
      </trkpt>
      <trkpt lat="43.25805" lon="1.20263">
        <ele>221</ele>
        <time>2022-07-07T07:56:12Z</time>
      </trkpt>
      <trkpt lat="43.25808" lon="1.20271">
        <ele>221</ele>
        <time>2022-07-07T07:56:17Z</time>
      </trkpt>
      <trkpt lat="43.25809" lon="1.2028">
        <ele>220</ele>
        <time>2022-07-07T07:56:24Z</time>
      </trkpt>
      <trkpt lat="43.25813" lon="1.20288">
        <ele>220</ele>
        <time>2022-07-07T07:56:44Z</time>
      </trkpt>
      <trkpt lat="43.25819" lon="1.20285">
        <ele>220</ele>
        <time>2022-07-07T07:57:02Z</time>
      </trkpt>
      <trkpt lat="43.25821" lon="1.203">
        <ele>220</ele>
        <time>2022-07-07T07:57:27Z</time>
      </trkpt>
      <trkpt lat="43.25825" lon="1.20303">
        <ele>220</ele>
        <time>2022-07-07T07:57:35Z</time>
      </trkpt>
      <trkpt lat="43.25826" lon="1.20311">
        <ele>219</ele>
        <time>2022-07-07T07:57:47Z</time>
      </trkpt>
      <trkpt lat="43.25822" lon="1.20327">
        <ele>220</ele>
        <time>2022-07-07T07:59:47Z</time>
      </trkpt>
      <trkpt lat="43.25824" lon="1.20336">
        <ele>220</ele>
        <time>2022-07-07T07:59:56Z</time>
      </trkpt>
      <trkpt lat="43.25824" lon="1.2035">
        <ele>220</ele>
        <time>2022-07-07T08:00:09Z</time>
      </trkpt>
      <trkpt lat="43.25823" lon="1.2036">
        <ele>221</ele>
        <time>2022-07-07T08:00:24Z</time>
      </trkpt>
      <trkpt lat="43.2582" lon="1.20368">
        <ele>221</ele>
        <time>2022-07-07T08:00:36Z</time>
      </trkpt>
      <trkpt lat="43.25821" lon="1.2038">
        <ele>222</ele>
        <time>2022-07-07T08:00:47Z</time>
      </trkpt>
      <trkpt lat="43.25818" lon="1.20376">
        <ele>221</ele>
        <time>2022-07-07T08:01:05Z</time>
      </trkpt>
      <trkpt lat="43.25818" lon="1.20369">
        <ele>221</ele>
        <time>2022-07-07T08:01:17Z</time>
      </trkpt>
      <trkpt lat="43.25816" lon="1.20362">
        <ele>220</ele>
        <time>2022-07-07T08:01:29Z</time>
      </trkpt>
      <trkpt lat="43.25816" lon="1.20356">
        <ele>220</ele>
        <time>2022-07-07T08:01:41Z</time>
      </trkpt>
      <trkpt lat="43.25815" lon="1.20357">
        <ele>219</ele>
        <time>2022-07-07T08:02:45Z</time>
      </trkpt>
      <trkpt lat="43.2581" lon="1.20364">
        <ele>219</ele>
        <time>2022-07-07T08:02:51Z</time>
      </trkpt>
      <trkpt lat="43.25804" lon="1.20366">
        <ele>218</ele>
        <time>2022-07-07T08:02:56Z</time>
      </trkpt>
      <trkpt lat="43.25799" lon="1.2036">
        <ele>218</ele>
        <time>2022-07-07T08:03:10Z</time>
      </trkpt>
      <trkpt lat="43.25775" lon="1.20363">
        <ele>218</ele>
        <time>2022-07-07T08:03:42Z</time>
      </trkpt>
      <trkpt lat="43.25769" lon="1.20364">
        <ele>218</ele>
        <time>2022-07-07T08:03:47Z</time>
      </trkpt>
      <trkpt lat="43.25765" lon="1.20364">
        <ele>218</ele>
        <time>2022-07-07T08:03:51Z</time>
      </trkpt>
      <trkpt lat="43.25755" lon="1.2036">
        <ele>219</ele>
        <time>2022-07-07T08:04:00Z</time>
      </trkpt>
      <trkpt lat="43.25749" lon="1.20363">
        <ele>219</ele>
        <time>2022-07-07T08:04:09Z</time>
      </trkpt>
      <trkpt lat="43.25741" lon="1.20356">
        <ele>219</ele>
        <time>2022-07-07T08:04:18Z</time>
      </trkpt>
      <trkpt lat="43.25738" lon="1.20348">
        <ele>220</ele>
        <time>2022-07-07T08:04:26Z</time>
      </trkpt>
      <trkpt lat="43.25734" lon="1.20343">
        <ele>220</ele>
        <time>2022-07-07T08:04:31Z</time>
      </trkpt>
      <trkpt lat="43.25729" lon="1.20341">
        <ele>220</ele>
        <time>2022-07-07T08:04:39Z</time>
      </trkpt>
      <trkpt lat="43.25721" lon="1.20339">
        <ele>219</ele>
        <time>2022-07-07T08:05:10Z</time>
      </trkpt>
      <trkpt lat="43.25716" lon="1.2034">
        <ele>220</ele>
        <time>2022-07-07T08:05:15Z</time>
      </trkpt>
      <trkpt lat="43.25706" lon="1.20342">
        <ele>220</ele>
        <time>2022-07-07T08:05:23Z</time>
      </trkpt>
      <trkpt lat="43.25685" lon="1.20339">
        <ele>220</ele>
        <time>2022-07-07T08:05:45Z</time>
      </trkpt>
      <trkpt lat="43.25672" lon="1.20334">
        <ele>220</ele>
        <time>2022-07-07T08:05:58Z</time>
      </trkpt>
      <trkpt lat="43.25671" lon="1.20308">
        <ele>220</ele>
        <time>2022-07-07T08:06:13Z</time>
      </trkpt>
      <trkpt lat="43.25673" lon="1.20299">
        <ele>221</ele>
        <time>2022-07-07T08:06:19Z</time>
      </trkpt>
      <trkpt lat="43.25674" lon="1.20274">
        <ele>221</ele>
        <time>2022-07-07T08:06:37Z</time>
      </trkpt>
      <trkpt lat="43.2567" lon="1.2027">
        <ele>221</ele>
        <time>2022-07-07T08:06:45Z</time>
      </trkpt>
      <trkpt lat="43.25665" lon="1.20267">
        <ele>221</ele>
        <time>2022-07-07T08:06:51Z</time>
      </trkpt>
      <trkpt lat="43.25657" lon="1.20265">
        <ele>220</ele>
        <time>2022-07-07T08:07:00Z</time>
      </trkpt>
      <trkpt lat="43.25663" lon="1.20221">
        <ele>220</ele>
        <time>2022-07-07T08:07:29Z</time>
      </trkpt>
      <trkpt lat="43.25666" lon="1.20211">
        <ele>220</ele>
        <time>2022-07-07T08:07:36Z</time>
      </trkpt>
      <trkpt lat="43.25668" lon="1.20189">
        <ele>221</ele>
        <time>2022-07-07T08:07:53Z</time>
      </trkpt>
      <trkpt lat="43.25669" lon="1.20183">
        <ele>221</ele>
        <time>2022-07-07T08:07:57Z</time>
      </trkpt>
      <trkpt lat="43.2567" lon="1.20177">
        <ele>220</ele>
        <time>2022-07-07T08:08:01Z</time>
      </trkpt>
      <trkpt lat="43.25679" lon="1.20134">
        <ele>219</ele>
        <time>2022-07-07T08:08:32Z</time>
      </trkpt>
      <trkpt lat="43.25683" lon="1.20115">
        <ele>219</ele>
        <time>2022-07-07T08:08:44Z</time>
      </trkpt>
      <trkpt lat="43.25684" lon="1.20107">
        <ele>218</ele>
        <time>2022-07-07T08:08:51Z</time>
      </trkpt>
      <trkpt lat="43.25687" lon="1.201">
        <ele>218</ele>
        <time>2022-07-07T08:09:03Z</time>
      </trkpt>
      <trkpt lat="43.25699" lon="1.20095">
        <ele>218</ele>
        <time>2022-07-07T08:09:15Z</time>
      </trkpt>
      <trkpt lat="43.25703" lon="1.20095">
        <ele>219</ele>
        <time>2022-07-07T08:09:19Z</time>
      </trkpt>
      <trkpt lat="43.25737" lon="1.20104">
        <ele>221</ele>
        <time>2022-07-07T08:09:55Z</time>
      </trkpt>
      <trkpt lat="43.25762" lon="1.20108">
        <ele>222</ele>
        <time>2022-07-07T08:10:16Z</time>
      </trkpt>
      <trkpt lat="43.25768" lon="1.20102">
        <ele>222</ele>
        <time>2022-07-07T08:10:22Z</time>
      </trkpt>
      <trkpt lat="43.25766" lon="1.20083">
        <ele>223</ele>
        <time>2022-07-07T08:10:39Z</time>
      </trkpt>
      <trkpt lat="43.25763" lon="1.20072">
        <ele>223</ele>
        <time>2022-07-07T08:10:48Z</time>
      </trkpt>
      <trkpt lat="43.25763" lon="1.2006">
        <ele>223</ele>
        <time>2022-07-07T08:10:55Z</time>
      </trkpt>
      <trkpt lat="43.25757" lon="1.20038">
        <ele>223</ele>
        <time>2022-07-07T08:11:07Z</time>
      </trkpt>
      <trkpt lat="43.25752" lon="1.2003">
        <ele>223</ele>
        <time>2022-07-07T08:11:15Z</time>
      </trkpt>
      <trkpt lat="43.25749" lon="1.20017">
        <ele>223</ele>
        <time>2022-07-07T08:11:23Z</time>
      </trkpt>
      <trkpt lat="43.25727" lon="1.19967">
        <ele>223</ele>
        <time>2022-07-07T08:12:03Z</time>
      </trkpt>
      <trkpt lat="43.2572" lon="1.19941">
        <ele>222</ele>
        <time>2022-07-07T08:12:19Z</time>
      </trkpt>
      <trkpt lat="43.2571" lon="1.19932">
        <ele>223</ele>
        <time>2022-07-07T08:12:29Z</time>
      </trkpt>
      <trkpt lat="43.2571" lon="1.19923">
        <ele>222</ele>
        <time>2022-07-07T08:12:35Z</time>
      </trkpt>
      <trkpt lat="43.25711" lon="1.19915">
        <ele>222</ele>
        <time>2022-07-07T08:12:39Z</time>
      </trkpt>
      <trkpt lat="43.25717" lon="1.19899">
        <ele>222</ele>
        <time>2022-07-07T08:12:51Z</time>
      </trkpt>
      <trkpt lat="43.2572" lon="1.19896">
        <ele>222</ele>
        <time>2022-07-07T08:12:55Z</time>
      </trkpt>
      <trkpt lat="43.25729" lon="1.19893">
        <ele>222</ele>
        <time>2022-07-07T08:13:03Z</time>
      </trkpt>
      <trkpt lat="43.25726" lon="1.1989">
        <ele>222</ele>
        <time>2022-07-07T08:13:26Z</time>
      </trkpt>
      <trkpt lat="43.25727" lon="1.19853">
        <ele>223</ele>
        <time>2022-07-07T08:13:49Z</time>
      </trkpt>
      <trkpt lat="43.25731" lon="1.19839">
        <ele>223</ele>
        <time>2022-07-07T08:13:58Z</time>
      </trkpt>
      <trkpt lat="43.25734" lon="1.19831">
        <ele>223</ele>
        <time>2022-07-07T08:14:04Z</time>
      </trkpt>
      <trkpt lat="43.25735" lon="1.19823">
        <ele>223</ele>
        <time>2022-07-07T08:14:10Z</time>
      </trkpt>
      <trkpt lat="43.25738" lon="1.19814">
        <ele>223</ele>
        <time>2022-07-07T08:14:17Z</time>
      </trkpt>
      <trkpt lat="43.25745" lon="1.19776">
        <ele>224</ele>
        <time>2022-07-07T08:14:47Z</time>
      </trkpt>
      <trkpt lat="43.2575" lon="1.19747">
        <ele>224</ele>
        <time>2022-07-07T08:15:07Z</time>
      </trkpt>
      <trkpt lat="43.25753" lon="1.19729">
        <ele>224</ele>
        <time>2022-07-07T08:15:19Z</time>
      </trkpt>
      <trkpt lat="43.25758" lon="1.19711">
        <ele>224</ele>
        <time>2022-07-07T08:15:33Z</time>
      </trkpt>
      <trkpt lat="43.25762" lon="1.19695">
        <ele>225</ele>
        <time>2022-07-07T08:15:45Z</time>
      </trkpt>
      <trkpt lat="43.25763" lon="1.19686">
        <ele>225</ele>
        <time>2022-07-07T08:15:53Z</time>
      </trkpt>
      <trkpt lat="43.25765" lon="1.19675">
        <ele>225</ele>
        <time>2022-07-07T08:16:06Z</time>
      </trkpt>
      <trkpt lat="43.25769" lon="1.1967">
        <ele>225</ele>
        <time>2022-07-07T08:16:10Z</time>
      </trkpt>
      <trkpt lat="43.25773" lon="1.19662">
        <ele>225</ele>
        <time>2022-07-07T08:16:17Z</time>
      </trkpt>
      <trkpt lat="43.25776" lon="1.19658">
        <ele>225</ele>
        <time>2022-07-07T08:16:21Z</time>
      </trkpt>
      <trkpt lat="43.2578" lon="1.19655">
        <ele>225</ele>
        <time>2022-07-07T08:17:00Z</time>
      </trkpt>
      <trkpt lat="43.25782" lon="1.1965">
        <ele>224</ele>
        <time>2022-07-07T08:17:18Z</time>
      </trkpt>
      <trkpt lat="43.25777" lon="1.19642">
        <ele>224</ele>
        <time>2022-07-07T08:17:35Z</time>
      </trkpt>
      <trkpt lat="43.25777" lon="1.19636">
        <ele>225</ele>
        <time>2022-07-07T08:17:39Z</time>
      </trkpt>
      <trkpt lat="43.25786" lon="1.19606">
        <ele>224</ele>
        <time>2022-07-07T08:18:01Z</time>
      </trkpt>
      <trkpt lat="43.25792" lon="1.19605">
        <ele>224</ele>
        <time>2022-07-07T08:18:09Z</time>
      </trkpt>
      <trkpt lat="43.25796" lon="1.19604">
        <ele>225</ele>
        <time>2022-07-07T08:24:14Z</time>
      </trkpt>
      <trkpt lat="43.25795" lon="1.19588">
        <ele>225</ele>
        <time>2022-07-07T08:24:26Z</time>
      </trkpt>
      <trkpt lat="43.25798" lon="1.19582">
        <ele>225</ele>
        <time>2022-07-07T08:24:32Z</time>
      </trkpt>
      <trkpt lat="43.25799" lon="1.19571">
        <ele>225</ele>
        <time>2022-07-07T08:24:41Z</time>
      </trkpt>
      <trkpt lat="43.25802" lon="1.19552">
        <ele>225</ele>
        <time>2022-07-07T08:24:53Z</time>
      </trkpt>
      <trkpt lat="43.25803" lon="1.19544">
        <ele>225</ele>
        <time>2022-07-07T08:24:59Z</time>
      </trkpt>
      <trkpt lat="43.25807" lon="1.19538">
        <ele>224</ele>
        <time>2022-07-07T08:25:03Z</time>
      </trkpt>
      <trkpt lat="43.25819" lon="1.19517">
        <ele>224</ele>
        <time>2022-07-07T08:25:20Z</time>
      </trkpt>
      <trkpt lat="43.25822" lon="1.195">
        <ele>223</ele>
        <time>2022-07-07T08:25:30Z</time>
      </trkpt>
      <trkpt lat="43.25817" lon="1.1949">
        <ele>223</ele>
        <time>2022-07-07T08:25:42Z</time>
      </trkpt>
      <trkpt lat="43.25819" lon="1.19482">
        <ele>222</ele>
        <time>2022-07-07T08:25:50Z</time>
      </trkpt>
      <trkpt lat="43.25819" lon="1.19468">
        <ele>221</ele>
        <time>2022-07-07T08:26:20Z</time>
      </trkpt>
      <trkpt lat="43.25822" lon="1.19438">
        <ele>220</ele>
        <time>2022-07-07T08:26:45Z</time>
      </trkpt>
      <trkpt lat="43.25822" lon="1.19431">
        <ele>220</ele>
        <time>2022-07-07T08:26:49Z</time>
      </trkpt>
      <trkpt lat="43.25824" lon="1.19407">
        <ele>221</ele>
        <time>2022-07-07T08:27:02Z</time>
      </trkpt>
      <trkpt lat="43.25826" lon="1.19402">
        <ele>221</ele>
        <time>2022-07-07T08:27:07Z</time>
      </trkpt>
      <trkpt lat="43.25825" lon="1.1939">
        <ele>221</ele>
        <time>2022-07-07T08:27:15Z</time>
      </trkpt>
      <trkpt lat="43.25825" lon="1.19375">
        <ele>222</ele>
        <time>2022-07-07T08:27:24Z</time>
      </trkpt>
      <trkpt lat="43.2582" lon="1.19342">
        <ele>222</ele>
        <time>2022-07-07T08:27:48Z</time>
      </trkpt>
      <trkpt lat="43.2582" lon="1.19333">
        <ele>222</ele>
        <time>2022-07-07T08:27:55Z</time>
      </trkpt>
      <trkpt lat="43.25813" lon="1.19303">
        <ele>222</ele>
        <time>2022-07-07T08:28:11Z</time>
      </trkpt>
      <trkpt lat="43.25815" lon="1.19285">
        <ele>222</ele>
        <time>2022-07-07T08:28:27Z</time>
      </trkpt>
      <trkpt lat="43.25811" lon="1.19245">
        <ele>223</ele>
        <time>2022-07-07T08:28:53Z</time>
      </trkpt>
      <trkpt lat="43.25814" lon="1.19238">
        <ele>223</ele>
        <time>2022-07-07T08:29:25Z</time>
      </trkpt>
      <trkpt lat="43.25811" lon="1.19232">
        <ele>223</ele>
        <time>2022-07-07T08:30:12Z</time>
      </trkpt>
      <trkpt lat="43.2582" lon="1.19186">
        <ele>224</ele>
        <time>2022-07-07T08:30:44Z</time>
      </trkpt>
      <trkpt lat="43.25825" lon="1.19171">
        <ele>224</ele>
        <time>2022-07-07T08:30:54Z</time>
      </trkpt>
      <trkpt lat="43.25826" lon="1.19164">
        <ele>224</ele>
        <time>2022-07-07T08:30:59Z</time>
      </trkpt>
      <trkpt lat="43.25833" lon="1.19147">
        <ele>225</ele>
        <time>2022-07-07T08:31:12Z</time>
      </trkpt>
      <trkpt lat="43.25834" lon="1.19141">
        <ele>225</ele>
        <time>2022-07-07T08:31:17Z</time>
      </trkpt>
      <trkpt lat="43.25836" lon="1.19133">
        <ele>225</ele>
        <time>2022-07-07T08:31:22Z</time>
      </trkpt>
      <trkpt lat="43.25836" lon="1.19094">
        <ele>226</ele>
        <time>2022-07-07T08:31:48Z</time>
      </trkpt>
      <trkpt lat="43.25833" lon="1.19051">
        <ele>227</ele>
        <time>2022-07-07T08:32:20Z</time>
      </trkpt>
      <trkpt lat="43.25835" lon="1.19044">
        <ele>227</ele>
        <time>2022-07-07T08:32:58Z</time>
      </trkpt>
      <trkpt lat="43.25825" lon="1.19017">
        <ele>228</ele>
        <time>2022-07-07T08:33:18Z</time>
      </trkpt>
      <trkpt lat="43.25821" lon="1.19013">
        <ele>227</ele>
        <time>2022-07-07T08:33:22Z</time>
      </trkpt>
      <trkpt lat="43.2581" lon="1.18984">
        <ele>229</ele>
        <time>2022-07-07T08:33:45Z</time>
      </trkpt>
      <trkpt lat="43.25807" lon="1.18975">
        <ele>229</ele>
        <time>2022-07-07T08:33:53Z</time>
      </trkpt>
      <trkpt lat="43.25804" lon="1.18966">
        <ele>229</ele>
        <time>2022-07-07T08:34:00Z</time>
      </trkpt>
      <trkpt lat="43.25798" lon="1.18944">
        <ele>231</ele>
        <time>2022-07-07T08:34:16Z</time>
      </trkpt>
      <trkpt lat="43.25798" lon="1.18937">
        <ele>231</ele>
        <time>2022-07-07T08:34:20Z</time>
      </trkpt>
      <trkpt lat="43.25795" lon="1.1893">
        <ele>231</ele>
        <time>2022-07-07T08:34:26Z</time>
      </trkpt>
      <trkpt lat="43.25792" lon="1.18916">
        <ele>232</ele>
        <time>2022-07-07T08:34:37Z</time>
      </trkpt>
      <trkpt lat="43.25788" lon="1.18917">
        <ele>232</ele>
        <time>2022-07-07T08:34:57Z</time>
      </trkpt>
      <trkpt lat="43.25789" lon="1.18917">
        <ele>232</ele>
        <time>2022-07-07T08:38:14Z</time>
      </trkpt>
      <trkpt lat="43.2579" lon="1.18914">
        <ele>233</ele>
        <time>2022-07-07T08:47:51Z</time>
      </trkpt>
      <trkpt lat="43.25788" lon="1.18907">
        <ele>233</ele>
        <time>2022-07-07T08:48:33Z</time>
      </trkpt>
      <trkpt lat="43.25783" lon="1.18881">
        <ele>234</ele>
        <time>2022-07-07T08:48:52Z</time>
      </trkpt>
      <trkpt lat="43.25782" lon="1.18868">
        <ele>234</ele>
        <time>2022-07-07T08:49:01Z</time>
      </trkpt>
      <trkpt lat="43.25781" lon="1.1886">
        <ele>234</ele>
        <time>2022-07-07T08:49:08Z</time>
      </trkpt>
      <trkpt lat="43.25782" lon="1.1885">
        <ele>233</ele>
        <time>2022-07-07T08:49:27Z</time>
      </trkpt>
      <trkpt lat="43.25774" lon="1.18803">
        <ele>234</ele>
        <time>2022-07-07T08:49:58Z</time>
      </trkpt>
      <trkpt lat="43.25772" lon="1.18797">
        <ele>234</ele>
        <time>2022-07-07T08:50:02Z</time>
      </trkpt>
      <trkpt lat="43.25772" lon="1.18774">
        <ele>234</ele>
        <time>2022-07-07T08:50:15Z</time>
      </trkpt>
      <trkpt lat="43.25771" lon="1.18768">
        <ele>234</ele>
        <time>2022-07-07T08:50:19Z</time>
      </trkpt>
      <trkpt lat="43.25769" lon="1.18761">
        <ele>234</ele>
        <time>2022-07-07T08:50:24Z</time>
      </trkpt>
      <trkpt lat="43.2577" lon="1.18753">
        <ele>235</ele>
        <time>2022-07-07T08:50:29Z</time>
      </trkpt>
      <trkpt lat="43.25768" lon="1.18738">
        <ele>234</ele>
        <time>2022-07-07T08:50:38Z</time>
      </trkpt>
      <trkpt lat="43.25767" lon="1.18718">
        <ele>234</ele>
        <time>2022-07-07T08:50:50Z</time>
      </trkpt>
      <trkpt lat="43.25767" lon="1.18704">
        <ele>235</ele>
        <time>2022-07-07T08:50:58Z</time>
      </trkpt>
      <trkpt lat="43.2576" lon="1.18649">
        <ele>236</ele>
        <time>2022-07-07T08:51:31Z</time>
      </trkpt>
      <trkpt lat="43.2576" lon="1.18634">
        <ele>236</ele>
        <time>2022-07-07T08:51:40Z</time>
      </trkpt>
      <trkpt lat="43.25747" lon="1.18585">
        <ele>236</ele>
        <time>2022-07-07T08:52:11Z</time>
      </trkpt>
      <trkpt lat="43.25745" lon="1.18573">
        <ele>236</ele>
        <time>2022-07-07T08:52:18Z</time>
      </trkpt>
      <trkpt lat="43.25744" lon="1.18566">
        <ele>236</ele>
        <time>2022-07-07T08:52:23Z</time>
      </trkpt>
      <trkpt lat="43.25743" lon="1.1856">
        <ele>236</ele>
        <time>2022-07-07T08:52:27Z</time>
      </trkpt>
      <trkpt lat="43.25732" lon="1.18511">
        <ele>236</ele>
        <time>2022-07-07T08:52:58Z</time>
      </trkpt>
      <trkpt lat="43.25731" lon="1.18504">
        <ele>236</ele>
        <time>2022-07-07T08:53:02Z</time>
      </trkpt>
      <trkpt lat="43.25725" lon="1.18493">
        <ele>236</ele>
        <time>2022-07-07T08:53:10Z</time>
      </trkpt>
      <trkpt lat="43.25724" lon="1.18487">
        <ele>236</ele>
        <time>2022-07-07T08:53:14Z</time>
      </trkpt>
      <trkpt lat="43.25721" lon="1.18482">
        <ele>236</ele>
        <time>2022-07-07T08:53:19Z</time>
      </trkpt>
      <trkpt lat="43.25717" lon="1.18458">
        <ele>237</ele>
        <time>2022-07-07T08:53:32Z</time>
      </trkpt>
      <trkpt lat="43.25715" lon="1.18452">
        <ele>237</ele>
        <time>2022-07-07T08:53:36Z</time>
      </trkpt>
      <trkpt lat="43.25713" lon="1.18442">
        <ele>237</ele>
        <time>2022-07-07T08:53:43Z</time>
      </trkpt>
      <trkpt lat="43.25712" lon="1.18436">
        <ele>237</ele>
        <time>2022-07-07T08:53:47Z</time>
      </trkpt>
      <trkpt lat="43.25709" lon="1.18424">
        <ele>237</ele>
        <time>2022-07-07T08:53:54Z</time>
      </trkpt>
      <trkpt lat="43.25709" lon="1.18417">
        <ele>237</ele>
        <time>2022-07-07T08:53:58Z</time>
      </trkpt>
      <trkpt lat="43.25709" lon="1.1841">
        <ele>237</ele>
        <time>2022-07-07T08:54:02Z</time>
      </trkpt>
      <trkpt lat="43.25708" lon="1.18404">
        <ele>237</ele>
        <time>2022-07-07T08:54:05Z</time>
      </trkpt>
      <trkpt lat="43.25707" lon="1.18391">
        <ele>237</ele>
        <time>2022-07-07T08:54:13Z</time>
      </trkpt>
      <trkpt lat="43.25707" lon="1.18385">
        <ele>237</ele>
        <time>2022-07-07T08:54:17Z</time>
      </trkpt>
      <trkpt lat="43.25706" lon="1.18379">
        <ele>237</ele>
        <time>2022-07-07T08:54:21Z</time>
      </trkpt>
      <trkpt lat="43.25705" lon="1.18367">
        <ele>236</ele>
        <time>2022-07-07T08:54:30Z</time>
      </trkpt>
      <trkpt lat="43.25705" lon="1.18353">
        <ele>237</ele>
        <time>2022-07-07T08:54:38Z</time>
      </trkpt>
      <trkpt lat="43.25704" lon="1.1832">
        <ele>236</ele>
        <time>2022-07-07T08:54:57Z</time>
      </trkpt>
      <trkpt lat="43.25705" lon="1.18314">
        <ele>237</ele>
        <time>2022-07-07T08:55:01Z</time>
      </trkpt>
      <trkpt lat="43.25705" lon="1.18308">
        <ele>237</ele>
        <time>2022-07-07T08:55:05Z</time>
      </trkpt>
      <trkpt lat="43.25703" lon="1.18302">
        <ele>237</ele>
        <time>2022-07-07T08:55:07Z</time>
      </trkpt>
      <trkpt lat="43.25704" lon="1.18281">
        <ele>237</ele>
        <time>2022-07-07T08:55:19Z</time>
      </trkpt>
      <trkpt lat="43.25703" lon="1.18274">
        <ele>236</ele>
        <time>2022-07-07T08:55:23Z</time>
      </trkpt>
      <trkpt lat="43.25703" lon="1.18268">
        <ele>237</ele>
        <time>2022-07-07T08:55:27Z</time>
      </trkpt>
      <trkpt lat="43.25701" lon="1.18256">
        <ele>237</ele>
        <time>2022-07-07T08:55:34Z</time>
      </trkpt>
      <trkpt lat="43.257" lon="1.1825">
        <ele>237</ele>
        <time>2022-07-07T08:55:38Z</time>
      </trkpt>
      <trkpt lat="43.257" lon="1.18225">
        <ele>237</ele>
        <time>2022-07-07T08:55:54Z</time>
      </trkpt>
      <trkpt lat="43.25694" lon="1.18207">
        <ele>237</ele>
        <time>2022-07-07T08:56:06Z</time>
      </trkpt>
      <trkpt lat="43.25684" lon="1.18194">
        <ele>237</ele>
        <time>2022-07-07T08:56:17Z</time>
      </trkpt>
      <trkpt lat="43.25665" lon="1.18184">
        <ele>238</ele>
        <time>2022-07-07T08:56:34Z</time>
      </trkpt>
      <trkpt lat="43.25661" lon="1.1818">
        <ele>238</ele>
        <time>2022-07-07T08:56:38Z</time>
      </trkpt>
      <trkpt lat="43.25633" lon="1.18165">
        <ele>239</ele>
        <time>2022-07-07T08:57:06Z</time>
      </trkpt>
      <trkpt lat="43.25629" lon="1.18161">
        <ele>239</ele>
        <time>2022-07-07T08:57:10Z</time>
      </trkpt>
      <trkpt lat="43.25601" lon="1.18142">
        <ele>239</ele>
        <time>2022-07-07T08:57:36Z</time>
      </trkpt>
      <trkpt lat="43.25596" lon="1.18139">
        <ele>239</ele>
        <time>2022-07-07T08:57:41Z</time>
      </trkpt>
      <trkpt lat="43.25589" lon="1.18132">
        <ele>239</ele>
        <time>2022-07-07T08:57:48Z</time>
      </trkpt>
      <trkpt lat="43.2558" lon="1.18123">
        <ele>240</ele>
        <time>2022-07-07T08:57:58Z</time>
      </trkpt>
      <trkpt lat="43.25573" lon="1.18115">
        <ele>240</ele>
        <time>2022-07-07T08:58:06Z</time>
      </trkpt>
      <trkpt lat="43.25569" lon="1.18107">
        <ele>240</ele>
        <time>2022-07-07T08:58:13Z</time>
      </trkpt>
      <trkpt lat="43.25566" lon="1.18102">
        <ele>240</ele>
        <time>2022-07-07T08:58:17Z</time>
      </trkpt>
      <trkpt lat="43.25562" lon="1.18099">
        <ele>240</ele>
        <time>2022-07-07T08:58:21Z</time>
      </trkpt>
      <trkpt lat="43.25559" lon="1.18093">
        <ele>240</ele>
        <time>2022-07-07T08:58:25Z</time>
      </trkpt>
      <trkpt lat="43.25556" lon="1.18089">
        <ele>240</ele>
        <time>2022-07-07T08:58:29Z</time>
      </trkpt>
      <trkpt lat="43.25551" lon="1.18086">
        <ele>240</ele>
        <time>2022-07-07T08:58:32Z</time>
      </trkpt>
      <trkpt lat="43.25541" lon="1.18067">
        <ele>240</ele>
        <time>2022-07-07T08:58:47Z</time>
      </trkpt>
      <trkpt lat="43.25533" lon="1.18051">
        <ele>241</ele>
        <time>2022-07-07T08:58:59Z</time>
      </trkpt>
      <trkpt lat="43.25527" lon="1.18041">
        <ele>240</ele>
        <time>2022-07-07T08:59:08Z</time>
      </trkpt>
      <trkpt lat="43.25503" lon="1.17998">
        <ele>241</ele>
        <time>2022-07-07T08:59:41Z</time>
      </trkpt>
      <trkpt lat="43.25494" lon="1.17984">
        <ele>241</ele>
        <time>2022-07-07T08:59:52Z</time>
      </trkpt>
      <trkpt lat="43.25492" lon="1.17978">
        <ele>241</ele>
        <time>2022-07-07T08:59:56Z</time>
      </trkpt>
      <trkpt lat="43.25487" lon="1.17968">
        <ele>242</ele>
        <time>2022-07-07T09:00:04Z</time>
      </trkpt>
      <trkpt lat="43.25485" lon="1.17963">
        <ele>242</ele>
        <time>2022-07-07T09:00:09Z</time>
      </trkpt>
      <trkpt lat="43.25478" lon="1.17952">
        <ele>242</ele>
        <time>2022-07-07T09:00:19Z</time>
      </trkpt>
      <trkpt lat="43.25467" lon="1.17926">
        <ele>242</ele>
        <time>2022-07-07T09:00:45Z</time>
      </trkpt>
      <trkpt lat="43.25463" lon="1.17924">
        <ele>242</ele>
        <time>2022-07-07T09:00:50Z</time>
      </trkpt>
      <trkpt lat="43.25439" lon="1.17885">
        <ele>243</ele>
        <time>2022-07-07T09:01:20Z</time>
      </trkpt>
      <trkpt lat="43.25433" lon="1.17876">
        <ele>243</ele>
        <time>2022-07-07T09:01:29Z</time>
      </trkpt>
      <trkpt lat="43.2543" lon="1.17871">
        <ele>243</ele>
        <time>2022-07-07T09:01:33Z</time>
      </trkpt>
      <trkpt lat="43.25428" lon="1.17866">
        <ele>243</ele>
        <time>2022-07-07T09:01:36Z</time>
      </trkpt>
      <trkpt lat="43.25408" lon="1.17834">
        <ele>244</ele>
        <time>2022-07-07T09:02:03Z</time>
      </trkpt>
      <trkpt lat="43.25401" lon="1.17818">
        <ele>244</ele>
        <time>2022-07-07T09:02:14Z</time>
      </trkpt>
      <trkpt lat="43.25397" lon="1.17814">
        <ele>244</ele>
        <time>2022-07-07T09:02:18Z</time>
      </trkpt>
      <trkpt lat="43.25374" lon="1.17771">
        <ele>245</ele>
        <time>2022-07-07T09:02:51Z</time>
      </trkpt>
      <trkpt lat="43.25369" lon="1.17762">
        <ele>246</ele>
        <time>2022-07-07T09:02:59Z</time>
      </trkpt>
      <trkpt lat="43.25361" lon="1.17747">
        <ele>246</ele>
        <time>2022-07-07T09:03:11Z</time>
      </trkpt>
      <trkpt lat="43.25359" lon="1.17743">
        <ele>246</ele>
        <time>2022-07-07T09:03:14Z</time>
      </trkpt>
      <trkpt lat="43.25357" lon="1.17737">
        <ele>246</ele>
        <time>2022-07-07T09:03:18Z</time>
      </trkpt>
      <trkpt lat="43.25346" lon="1.17717">
        <ele>246</ele>
        <time>2022-07-07T09:03:34Z</time>
      </trkpt>
      <trkpt lat="43.25336" lon="1.17697">
        <ele>247</ele>
        <time>2022-07-07T09:03:49Z</time>
      </trkpt>
      <trkpt lat="43.25331" lon="1.17689">
        <ele>247</ele>
        <time>2022-07-07T09:03:56Z</time>
      </trkpt>
      <trkpt lat="43.25325" lon="1.17678">
        <ele>247</ele>
        <time>2022-07-07T09:04:05Z</time>
      </trkpt>
      <trkpt lat="43.25323" lon="1.17674">
        <ele>247</ele>
        <time>2022-07-07T09:04:09Z</time>
      </trkpt>
      <trkpt lat="43.25321" lon="1.17668">
        <ele>247</ele>
        <time>2022-07-07T09:04:13Z</time>
      </trkpt>
      <trkpt lat="43.25318" lon="1.17664">
        <ele>248</ele>
        <time>2022-07-07T09:04:17Z</time>
      </trkpt>
      <trkpt lat="43.25315" lon="1.17659">
        <ele>248</ele>
        <time>2022-07-07T09:04:21Z</time>
      </trkpt>
      <trkpt lat="43.25311" lon="1.17655">
        <ele>248</ele>
        <time>2022-07-07T09:04:25Z</time>
      </trkpt>
      <trkpt lat="43.25303" lon="1.17645">
        <ele>248</ele>
        <time>2022-07-07T09:04:35Z</time>
      </trkpt>
      <trkpt lat="43.25299" lon="1.17641">
        <ele>248</ele>
        <time>2022-07-07T09:04:39Z</time>
      </trkpt>
      <trkpt lat="43.25296" lon="1.17635">
        <ele>248</ele>
        <time>2022-07-07T09:04:43Z</time>
      </trkpt>
      <trkpt lat="43.25296" lon="1.17629">
        <ele>248</ele>
        <time>2022-07-07T09:04:46Z</time>
      </trkpt>
      <trkpt lat="43.253" lon="1.17624">
        <ele>248</ele>
        <time>2022-07-07T09:05:00Z</time>
      </trkpt>
      <trkpt lat="43.25292" lon="1.17618">
        <ele>248</ele>
        <time>2022-07-07T09:05:30Z</time>
      </trkpt>
      <trkpt lat="43.25282" lon="1.17598">
        <ele>248</ele>
        <time>2022-07-07T09:05:47Z</time>
      </trkpt>
      <trkpt lat="43.25277" lon="1.17587">
        <ele>249</ele>
        <time>2022-07-07T09:05:55Z</time>
      </trkpt>
      <trkpt lat="43.25274" lon="1.17582">
        <ele>248</ele>
        <time>2022-07-07T09:05:59Z</time>
      </trkpt>
      <trkpt lat="43.25269" lon="1.17576">
        <ele>249</ele>
        <time>2022-07-07T09:06:04Z</time>
      </trkpt>
      <trkpt lat="43.25245" lon="1.17557">
        <ele>249</ele>
        <time>2022-07-07T09:06:26Z</time>
      </trkpt>
      <trkpt lat="43.25241" lon="1.17555">
        <ele>249</ele>
        <time>2022-07-07T09:06:29Z</time>
      </trkpt>
      <trkpt lat="43.25236" lon="1.17553">
        <ele>249</ele>
        <time>2022-07-07T09:06:34Z</time>
      </trkpt>
      <trkpt lat="43.25232" lon="1.17551">
        <ele>249</ele>
        <time>2022-07-07T09:06:38Z</time>
      </trkpt>
      <trkpt lat="43.25226" lon="1.17547">
        <ele>250</ele>
        <time>2022-07-07T09:07:03Z</time>
      </trkpt>
      <trkpt lat="43.25223" lon="1.17544">
        <ele>250</ele>
        <time>2022-07-07T09:07:07Z</time>
      </trkpt>
      <trkpt lat="43.25218" lon="1.17542">
        <ele>250</ele>
        <time>2022-07-07T09:07:11Z</time>
      </trkpt>
      <trkpt lat="43.25214" lon="1.17539">
        <ele>249</ele>
        <time>2022-07-07T09:07:15Z</time>
      </trkpt>
      <trkpt lat="43.25209" lon="1.17535">
        <ele>250</ele>
        <time>2022-07-07T09:07:19Z</time>
      </trkpt>
      <trkpt lat="43.25206" lon="1.17531">
        <ele>250</ele>
        <time>2022-07-07T09:07:23Z</time>
      </trkpt>
      <trkpt lat="43.25202" lon="1.17529">
        <ele>250</ele>
        <time>2022-07-07T09:07:27Z</time>
      </trkpt>
      <trkpt lat="43.25182" lon="1.17508">
        <ele>250</ele>
        <time>2022-07-07T09:07:48Z</time>
      </trkpt>
      <trkpt lat="43.25173" lon="1.17499">
        <ele>250</ele>
        <time>2022-07-07T09:07:56Z</time>
      </trkpt>
      <trkpt lat="43.25169" lon="1.17496">
        <ele>250</ele>
        <time>2022-07-07T09:07:59Z</time>
      </trkpt>
      <trkpt lat="43.25162" lon="1.1749">
        <ele>251</ele>
        <time>2022-07-07T09:08:05Z</time>
      </trkpt>
      <trkpt lat="43.25157" lon="1.17485">
        <ele>251</ele>
        <time>2022-07-07T09:08:12Z</time>
      </trkpt>
      <trkpt lat="43.25128" lon="1.17454">
        <ele>252</ele>
        <time>2022-07-07T09:08:45Z</time>
      </trkpt>
      <trkpt lat="43.2512" lon="1.17446">
        <ele>252</ele>
        <time>2022-07-07T09:08:54Z</time>
      </trkpt>
      <trkpt lat="43.25117" lon="1.17442">
        <ele>252</ele>
        <time>2022-07-07T09:08:57Z</time>
      </trkpt>
      <trkpt lat="43.25087" lon="1.17411">
        <ele>253</ele>
        <time>2022-07-07T09:09:30Z</time>
      </trkpt>
      <trkpt lat="43.25054" lon="1.17378">
        <ele>254</ele>
        <time>2022-07-07T09:10:05Z</time>
      </trkpt>
      <trkpt lat="43.25037" lon="1.17358">
        <ele>255</ele>
        <time>2022-07-07T09:10:23Z</time>
      </trkpt>
      <trkpt lat="43.25034" lon="1.17351">
        <ele>255</ele>
        <time>2022-07-07T09:10:28Z</time>
      </trkpt>
      <trkpt lat="43.25023" lon="1.17338">
        <ele>256</ele>
        <time>2022-07-07T09:10:42Z</time>
      </trkpt>
      <trkpt lat="43.25014" lon="1.17318">
        <ele>257</ele>
        <time>2022-07-07T09:10:57Z</time>
      </trkpt>
      <trkpt lat="43.25003" lon="1.17286">
        <ele>259</ele>
        <time>2022-07-07T09:11:23Z</time>
      </trkpt>
      <trkpt lat="43.25" lon="1.17281">
        <ele>259</ele>
        <time>2022-07-07T09:11:27Z</time>
      </trkpt>
      <trkpt lat="43.24999" lon="1.17276">
        <ele>260</ele>
        <time>2022-07-07T09:11:31Z</time>
      </trkpt>
      <trkpt lat="43.24997" lon="1.1727">
        <ele>260</ele>
        <time>2022-07-07T09:11:36Z</time>
      </trkpt>
      <trkpt lat="43.24991" lon="1.17259">
        <ele>261</ele>
        <time>2022-07-07T09:11:47Z</time>
      </trkpt>
      <trkpt lat="43.24986" lon="1.17247">
        <ele>262</ele>
        <time>2022-07-07T09:11:57Z</time>
      </trkpt>
      <trkpt lat="43.24983" lon="1.17242">
        <ele>262</ele>
        <time>2022-07-07T09:12:01Z</time>
      </trkpt>
      <trkpt lat="43.24975" lon="1.17224">
        <ele>262</ele>
        <time>2022-07-07T09:12:17Z</time>
      </trkpt>
      <trkpt lat="43.24973" lon="1.17216">
        <ele>263</ele>
        <time>2022-07-07T09:12:25Z</time>
      </trkpt>
      <trkpt lat="43.24971" lon="1.17209">
        <ele>263</ele>
        <time>2022-07-07T09:12:55Z</time>
      </trkpt>
      <trkpt lat="43.2498" lon="1.17204">
        <ele>260</ele>
        <time>2022-07-07T09:21:12Z</time>
      </trkpt>
      <trkpt lat="43.24977" lon="1.17173">
        <ele>262</ele>
        <time>2022-07-07T09:21:40Z</time>
      </trkpt>
      <trkpt lat="43.24973" lon="1.17166">
        <ele>263</ele>
        <time>2022-07-07T09:21:48Z</time>
      </trkpt>
      <trkpt lat="43.24968" lon="1.17164">
        <ele>262</ele>
        <time>2022-07-07T09:21:53Z</time>
      </trkpt>
      <trkpt lat="43.24957" lon="1.17149">
        <ele>263</ele>
        <time>2022-07-07T09:22:06Z</time>
      </trkpt>
      <trkpt lat="43.24953" lon="1.17147">
        <ele>263</ele>
        <time>2022-07-07T09:22:10Z</time>
      </trkpt>
      <trkpt lat="43.24931" lon="1.17115">
        <ele>264</ele>
        <time>2022-07-07T09:22:41Z</time>
      </trkpt>
      <trkpt lat="43.24922" lon="1.17103">
        <ele>265</ele>
        <time>2022-07-07T09:22:54Z</time>
      </trkpt>
      <trkpt lat="43.2492" lon="1.17098">
        <ele>265</ele>
        <time>2022-07-07T09:22:58Z</time>
      </trkpt>
      <trkpt lat="43.24918" lon="1.17092">
        <ele>265</ele>
        <time>2022-07-07T09:23:09Z</time>
      </trkpt>
      <trkpt lat="43.24911" lon="1.17088">
        <ele>265</ele>
        <time>2022-07-07T09:23:20Z</time>
      </trkpt>
      <trkpt lat="43.24908" lon="1.17082">
        <ele>266</ele>
        <time>2022-07-07T09:23:25Z</time>
      </trkpt>
      <trkpt lat="43.24906" lon="1.17077">
        <ele>266</ele>
        <time>2022-07-07T09:23:29Z</time>
      </trkpt>
      <trkpt lat="43.24896" lon="1.17066">
        <ele>266</ele>
        <time>2022-07-07T09:23:39Z</time>
      </trkpt>
      <trkpt lat="43.24893" lon="1.17059">
        <ele>266</ele>
        <time>2022-07-07T09:23:43Z</time>
      </trkpt>
      <trkpt lat="43.24883" lon="1.17042">
        <ele>267</ele>
        <time>2022-07-07T09:23:57Z</time>
      </trkpt>
      <trkpt lat="43.24872" lon="1.17021">
        <ele>267</ele>
        <time>2022-07-07T09:24:13Z</time>
      </trkpt>
      <trkpt lat="43.24872" lon="1.17014">
        <ele>267</ele>
        <time>2022-07-07T09:24:17Z</time>
      </trkpt>
      <trkpt lat="43.24867" lon="1.1701">
        <ele>267</ele>
        <time>2022-07-07T09:24:23Z</time>
      </trkpt>
      <trkpt lat="43.24863" lon="1.17005">
        <ele>267</ele>
        <time>2022-07-07T09:24:28Z</time>
      </trkpt>
      <trkpt lat="43.24857" lon="1.17001">
        <ele>267</ele>
        <time>2022-07-07T09:24:35Z</time>
      </trkpt>
      <trkpt lat="43.24847" lon="1.17">
        <ele>266</ele>
        <time>2022-07-07T09:24:45Z</time>
      </trkpt>
      <trkpt lat="43.24834" lon="1.16994">
        <ele>267</ele>
        <time>2022-07-07T09:25:01Z</time>
      </trkpt>
      <trkpt lat="43.24831" lon="1.16989">
        <ele>267</ele>
        <time>2022-07-07T09:25:19Z</time>
      </trkpt>
      <trkpt lat="43.24828" lon="1.16993">
        <ele>267</ele>
        <time>2022-07-07T09:25:31Z</time>
      </trkpt>
      <trkpt lat="43.24824" lon="1.16994">
        <ele>267</ele>
        <time>2022-07-07T09:25:36Z</time>
      </trkpt>
      <trkpt lat="43.24819" lon="1.16994">
        <ele>267</ele>
        <time>2022-07-07T09:25:41Z</time>
      </trkpt>
      <trkpt lat="43.24795" lon="1.16997">
        <ele>269</ele>
        <time>2022-07-07T09:26:03Z</time>
      </trkpt>
      <trkpt lat="43.24791" lon="1.16995">
        <ele>270</ele>
        <time>2022-07-07T09:26:06Z</time>
      </trkpt>
      <trkpt lat="43.24786" lon="1.16993">
        <ele>270</ele>
        <time>2022-07-07T09:26:10Z</time>
      </trkpt>
      <trkpt lat="43.24771" lon="1.16973">
        <ele>271</ele>
        <time>2022-07-07T09:26:26Z</time>
      </trkpt>
      <trkpt lat="43.24754" lon="1.16962">
        <ele>271</ele>
        <time>2022-07-07T09:26:42Z</time>
      </trkpt>
      <trkpt lat="43.24745" lon="1.16956">
        <ele>270</ele>
        <time>2022-07-07T09:26:51Z</time>
      </trkpt>
      <trkpt lat="43.24742" lon="1.16952">
        <ele>270</ele>
        <time>2022-07-07T09:26:55Z</time>
      </trkpt>
      <trkpt lat="43.24738" lon="1.16954">
        <ele>270</ele>
        <time>2022-07-07T09:27:09Z</time>
      </trkpt>
      <trkpt lat="43.24733" lon="1.16952">
        <ele>269</ele>
        <time>2022-07-07T09:27:15Z</time>
      </trkpt>
      <trkpt lat="43.24727" lon="1.1694">
        <ele>269</ele>
        <time>2022-07-07T09:27:23Z</time>
      </trkpt>
      <trkpt lat="43.24725" lon="1.16933">
        <ele>268</ele>
        <time>2022-07-07T09:27:27Z</time>
      </trkpt>
      <trkpt lat="43.24712" lon="1.16913">
        <ele>267</ele>
        <time>2022-07-07T09:27:54Z</time>
      </trkpt>
      <trkpt lat="43.24679" lon="1.16874">
        <ele>267</ele>
        <time>2022-07-07T09:28:29Z</time>
      </trkpt>
      <trkpt lat="43.24674" lon="1.16864">
        <ele>268</ele>
        <time>2022-07-07T09:28:37Z</time>
      </trkpt>
      <trkpt lat="43.24669" lon="1.16859">
        <ele>269</ele>
        <time>2022-07-07T09:28:42Z</time>
      </trkpt>
      <trkpt lat="43.2466" lon="1.16845">
        <ele>271</ele>
        <time>2022-07-07T09:28:55Z</time>
      </trkpt>
      <trkpt lat="43.24656" lon="1.16839">
        <ele>271</ele>
        <time>2022-07-07T09:29:00Z</time>
      </trkpt>
      <trkpt lat="43.24643" lon="1.1682">
        <ele>270</ele>
        <time>2022-07-07T09:29:17Z</time>
      </trkpt>
      <trkpt lat="43.24635" lon="1.16812">
        <ele>271</ele>
        <time>2022-07-07T09:29:26Z</time>
      </trkpt>
      <trkpt lat="43.24622" lon="1.16801">
        <ele>271</ele>
        <time>2022-07-07T09:29:39Z</time>
      </trkpt>
      <trkpt lat="43.24603" lon="1.1677">
        <ele>272</ele>
        <time>2022-07-07T09:30:05Z</time>
      </trkpt>
      <trkpt lat="43.24583" lon="1.16726">
        <ele>274</ele>
        <time>2022-07-07T09:30:38Z</time>
      </trkpt>
      <trkpt lat="43.24567" lon="1.16704">
        <ele>275</ele>
        <time>2022-07-07T09:31:00Z</time>
      </trkpt>
      <trkpt lat="43.24558" lon="1.16695">
        <ele>275</ele>
        <time>2022-07-07T09:31:14Z</time>
      </trkpt>
      <trkpt lat="43.24541" lon="1.1667">
        <ele>275</ele>
        <time>2022-07-07T09:31:35Z</time>
      </trkpt>
      <trkpt lat="43.24536" lon="1.16658">
        <ele>275</ele>
        <time>2022-07-07T09:31:44Z</time>
      </trkpt>
      <trkpt lat="43.24535" lon="1.16651">
        <ele>275</ele>
        <time>2022-07-07T09:31:48Z</time>
      </trkpt>
      <trkpt lat="43.24533" lon="1.16646">
        <ele>275</ele>
        <time>2022-07-07T09:31:52Z</time>
      </trkpt>
      <trkpt lat="43.2453" lon="1.16639">
        <ele>275</ele>
        <time>2022-07-07T09:31:57Z</time>
      </trkpt>
      <trkpt lat="43.24527" lon="1.16634">
        <ele>276</ele>
        <time>2022-07-07T09:32:02Z</time>
      </trkpt>
      <trkpt lat="43.24521" lon="1.16624">
        <ele>276</ele>
        <time>2022-07-07T09:32:11Z</time>
      </trkpt>
      <trkpt lat="43.2451" lon="1.16608">
        <ele>276</ele>
        <time>2022-07-07T09:32:25Z</time>
      </trkpt>
      <trkpt lat="43.24509" lon="1.16601">
        <ele>276</ele>
        <time>2022-07-07T09:32:34Z</time>
      </trkpt>
      <trkpt lat="43.24505" lon="1.16596">
        <ele>276</ele>
        <time>2022-07-07T09:33:12Z</time>
      </trkpt>
      <trkpt lat="43.245" lon="1.16594">
        <ele>276</ele>
        <time>2022-07-07T09:33:16Z</time>
      </trkpt>
      <trkpt lat="43.24488" lon="1.16587">
        <ele>276</ele>
        <time>2022-07-07T09:33:28Z</time>
      </trkpt>
      <trkpt lat="43.24485" lon="1.16583">
        <ele>276</ele>
        <time>2022-07-07T09:33:32Z</time>
      </trkpt>
      <trkpt lat="43.24464" lon="1.16575">
        <ele>274</ele>
        <time>2022-07-07T09:33:50Z</time>
      </trkpt>
      <trkpt lat="43.2446" lon="1.16572">
        <ele>274</ele>
        <time>2022-07-07T09:33:54Z</time>
      </trkpt>
      <trkpt lat="43.24455" lon="1.1657">
        <ele>274</ele>
        <time>2022-07-07T09:33:58Z</time>
      </trkpt>
      <trkpt lat="43.24432" lon="1.16563">
        <ele>271</ele>
        <time>2022-07-07T09:34:33Z</time>
      </trkpt>
      <trkpt lat="43.24426" lon="1.16561">
        <ele>271</ele>
        <time>2022-07-07T09:34:39Z</time>
      </trkpt>
      <trkpt lat="43.24416" lon="1.1656">
        <ele>270</ele>
        <time>2022-07-07T09:34:48Z</time>
      </trkpt>
      <trkpt lat="43.24398" lon="1.16552">
        <ele>269</ele>
        <time>2022-07-07T09:35:06Z</time>
      </trkpt>
      <trkpt lat="43.24385" lon="1.16541">
        <ele>268</ele>
        <time>2022-07-07T09:35:18Z</time>
      </trkpt>
      <trkpt lat="43.2438" lon="1.1654">
        <ele>268</ele>
        <time>2022-07-07T09:35:22Z</time>
      </trkpt>
      <trkpt lat="43.24376" lon="1.16535">
        <ele>268</ele>
        <time>2022-07-07T09:35:26Z</time>
      </trkpt>
      <trkpt lat="43.24367" lon="1.16519">
        <ele>268</ele>
        <time>2022-07-07T09:35:37Z</time>
      </trkpt>
      <trkpt lat="43.24362" lon="1.16505">
        <ele>268</ele>
        <time>2022-07-07T09:35:47Z</time>
      </trkpt>
      <trkpt lat="43.24352" lon="1.16487">
        <ele>268</ele>
        <time>2022-07-07T09:36:01Z</time>
      </trkpt>
      <trkpt lat="43.24337" lon="1.16466">
        <ele>267</ele>
        <time>2022-07-07T09:36:19Z</time>
      </trkpt>
      <trkpt lat="43.24323" lon="1.16454">
        <ele>267</ele>
        <time>2022-07-07T09:36:34Z</time>
      </trkpt>
      <trkpt lat="43.24312" lon="1.1644">
        <ele>267</ele>
        <time>2022-07-07T09:36:46Z</time>
      </trkpt>
      <trkpt lat="43.24308" lon="1.16436">
        <ele>267</ele>
        <time>2022-07-07T09:36:50Z</time>
      </trkpt>
      <trkpt lat="43.24303" lon="1.16434">
        <ele>267</ele>
        <time>2022-07-07T09:36:55Z</time>
      </trkpt>
      <trkpt lat="43.24299" lon="1.16428">
        <ele>267</ele>
        <time>2022-07-07T09:37:01Z</time>
      </trkpt>
      <trkpt lat="43.24286" lon="1.16414">
        <ele>267</ele>
        <time>2022-07-07T09:37:14Z</time>
      </trkpt>
      <trkpt lat="43.24254" lon="1.16383">
        <ele>265</ele>
        <time>2022-07-07T09:37:45Z</time>
      </trkpt>
      <trkpt lat="43.24239" lon="1.16372">
        <ele>265</ele>
        <time>2022-07-07T09:37:59Z</time>
      </trkpt>
      <trkpt lat="43.24233" lon="1.16369">
        <ele>264</ele>
        <time>2022-07-07T09:38:04Z</time>
      </trkpt>
      <trkpt lat="43.24201" lon="1.16379">
        <ele>263</ele>
        <time>2022-07-07T09:38:36Z</time>
      </trkpt>
      <trkpt lat="43.24195" lon="1.1638">
        <ele>262</ele>
        <time>2022-07-07T09:39:10Z</time>
      </trkpt>
      <trkpt lat="43.24187" lon="1.16373">
        <ele>262</ele>
        <time>2022-07-07T09:39:23Z</time>
      </trkpt>
      <trkpt lat="43.24186" lon="1.16361">
        <ele>261</ele>
        <time>2022-07-07T09:39:31Z</time>
      </trkpt>
      <trkpt lat="43.24181" lon="1.16304">
        <ele>258</ele>
        <time>2022-07-07T09:40:02Z</time>
      </trkpt>
      <trkpt lat="43.2418" lon="1.16296">
        <ele>258</ele>
        <time>2022-07-07T09:40:06Z</time>
      </trkpt>
      <trkpt lat="43.24179" lon="1.16288">
        <ele>257</ele>
        <time>2022-07-07T09:40:19Z</time>
      </trkpt>
      <trkpt lat="43.24156" lon="1.16245">
        <ele>254</ele>
        <time>2022-07-07T09:40:52Z</time>
      </trkpt>
      <trkpt lat="43.24153" lon="1.16237">
        <ele>254</ele>
        <time>2022-07-07T09:40:57Z</time>
      </trkpt>
      <trkpt lat="43.2414" lon="1.16219">
        <ele>253</ele>
        <time>2022-07-07T09:41:11Z</time>
      </trkpt>
      <trkpt lat="43.24133" lon="1.16206">
        <ele>252</ele>
        <time>2022-07-07T09:41:20Z</time>
      </trkpt>
      <trkpt lat="43.24129" lon="1.16202">
        <ele>252</ele>
        <time>2022-07-07T09:41:25Z</time>
      </trkpt>
      <trkpt lat="43.24123" lon="1.16189">
        <ele>251</ele>
        <time>2022-07-07T09:41:34Z</time>
      </trkpt>
      <trkpt lat="43.24118" lon="1.16184">
        <ele>251</ele>
        <time>2022-07-07T09:41:39Z</time>
      </trkpt>
      <trkpt lat="43.24102" lon="1.16159">
        <ele>249</ele>
        <time>2022-07-07T09:41:59Z</time>
      </trkpt>
      <trkpt lat="43.241" lon="1.16152">
        <ele>249</ele>
        <time>2022-07-07T09:42:04Z</time>
      </trkpt>
      <trkpt lat="43.24083" lon="1.16128">
        <ele>248</ele>
        <time>2022-07-07T09:42:23Z</time>
      </trkpt>
      <trkpt lat="43.24061" lon="1.16087">
        <ele>245</ele>
        <time>2022-07-07T09:42:56Z</time>
      </trkpt>
      <trkpt lat="43.24058" lon="1.1608">
        <ele>244</ele>
        <time>2022-07-07T09:43:00Z</time>
      </trkpt>
      <trkpt lat="43.24045" lon="1.16051">
        <ele>243</ele>
        <time>2022-07-07T09:43:21Z</time>
      </trkpt>
      <trkpt lat="43.24044" lon="1.16045">
        <ele>243</ele>
        <time>2022-07-07T09:43:25Z</time>
      </trkpt>
      <trkpt lat="43.24039" lon="1.16032">
        <ele>243</ele>
        <time>2022-07-07T09:43:34Z</time>
      </trkpt>
      <trkpt lat="43.24035" lon="1.16018">
        <ele>242</ele>
        <time>2022-07-07T09:43:42Z</time>
      </trkpt>
      <trkpt lat="43.24035" lon="1.16012">
        <ele>242</ele>
        <time>2022-07-07T09:43:46Z</time>
      </trkpt>
      <trkpt lat="43.24026" lon="1.15986">
        <ele>240</ele>
        <time>2022-07-07T09:44:09Z</time>
      </trkpt>
      <trkpt lat="43.24024" lon="1.15967">
        <ele>239</ele>
        <time>2022-07-07T09:44:21Z</time>
      </trkpt>
      <trkpt lat="43.24025" lon="1.15941">
        <ele>238</ele>
        <time>2022-07-07T09:44:37Z</time>
      </trkpt>
      <trkpt lat="43.24023" lon="1.15933">
        <ele>238</ele>
        <time>2022-07-07T09:44:45Z</time>
      </trkpt>
      <trkpt lat="43.24022" lon="1.15926">
        <ele>238</ele>
        <time>2022-07-07T09:44:56Z</time>
      </trkpt>
      <trkpt lat="43.24028" lon="1.15923">
        <ele>239</ele>
        <time>2022-07-07T09:45:30Z</time>
      </trkpt>
      <trkpt lat="43.24046" lon="1.15889">
        <ele>236</ele>
        <time>2022-07-07T09:46:04Z</time>
      </trkpt>
      <trkpt lat="43.24049" lon="1.15883">
        <ele>235</ele>
        <time>2022-07-07T09:46:08Z</time>
      </trkpt>
      <trkpt lat="43.24075" lon="1.15843">
        <ele>233</ele>
        <time>2022-07-07T09:46:39Z</time>
      </trkpt>
      <trkpt lat="43.24078" lon="1.15839">
        <ele>233</ele>
        <time>2022-07-07T09:46:42Z</time>
      </trkpt>
      <trkpt lat="43.24081" lon="1.15834">
        <ele>233</ele>
        <time>2022-07-07T09:46:46Z</time>
      </trkpt>
      <trkpt lat="43.24088" lon="1.15825">
        <ele>232</ele>
        <time>2022-07-07T09:46:54Z</time>
      </trkpt>
      <trkpt lat="43.24098" lon="1.15805">
        <ele>232</ele>
        <time>2022-07-07T09:47:09Z</time>
      </trkpt>
      <trkpt lat="43.24111" lon="1.15786">
        <ele>231</ele>
        <time>2022-07-07T09:47:23Z</time>
      </trkpt>
      <trkpt lat="43.24123" lon="1.15766">
        <ele>231</ele>
        <time>2022-07-07T09:47:40Z</time>
      </trkpt>
      <trkpt lat="43.24128" lon="1.15757">
        <ele>230</ele>
        <time>2022-07-07T09:47:47Z</time>
      </trkpt>
      <trkpt lat="43.24131" lon="1.15754">
        <ele>230</ele>
        <time>2022-07-07T09:47:50Z</time>
      </trkpt>
      <trkpt lat="43.24143" lon="1.15733">
        <ele>230</ele>
        <time>2022-07-07T09:48:05Z</time>
      </trkpt>
      <trkpt lat="43.24148" lon="1.15724">
        <ele>230</ele>
        <time>2022-07-07T09:48:12Z</time>
      </trkpt>
      <trkpt lat="43.24153" lon="1.15715">
        <ele>229</ele>
        <time>2022-07-07T09:48:19Z</time>
      </trkpt>
      <trkpt lat="43.24158" lon="1.15707">
        <ele>230</ele>
        <time>2022-07-07T09:48:25Z</time>
      </trkpt>
      <trkpt lat="43.24165" lon="1.15697">
        <ele>229</ele>
        <time>2022-07-07T09:48:34Z</time>
      </trkpt>
      <trkpt lat="43.2419" lon="1.15655">
        <ele>228</ele>
        <time>2022-07-07T09:49:08Z</time>
      </trkpt>
      <trkpt lat="43.24196" lon="1.15647">
        <ele>228</ele>
        <time>2022-07-07T09:49:16Z</time>
      </trkpt>
      <trkpt lat="43.24207" lon="1.1564">
        <ele>227</ele>
        <time>2022-07-07T09:49:51Z</time>
      </trkpt>
      <trkpt lat="43.2421" lon="1.15636">
        <ele>227</ele>
        <time>2022-07-07T09:49:59Z</time>
      </trkpt>
      <trkpt lat="43.24239" lon="1.15605">
        <ele>228</ele>
        <time>2022-07-07T09:50:31Z</time>
      </trkpt>
      <trkpt lat="43.24246" lon="1.15597">
        <ele>227</ele>
        <time>2022-07-07T09:50:39Z</time>
      </trkpt>
      <trkpt lat="43.2425" lon="1.15593">
        <ele>228</ele>
        <time>2022-07-07T09:50:43Z</time>
      </trkpt>
      <trkpt lat="43.24254" lon="1.15591">
        <ele>228</ele>
        <time>2022-07-07T09:50:47Z</time>
      </trkpt>
      <trkpt lat="43.24258" lon="1.15587">
        <ele>228</ele>
        <time>2022-07-07T09:50:51Z</time>
      </trkpt>
      <trkpt lat="43.24264" lon="1.15579">
        <ele>227</ele>
        <time>2022-07-07T09:50:59Z</time>
      </trkpt>
      <trkpt lat="43.24268" lon="1.15576">
        <ele>227</ele>
        <time>2022-07-07T09:51:10Z</time>
      </trkpt>
      <trkpt lat="43.24282" lon="1.15563">
        <ele>228</ele>
        <time>2022-07-07T09:51:27Z</time>
      </trkpt>
      <trkpt lat="43.24309" lon="1.15531">
        <ele>228</ele>
        <time>2022-07-07T09:51:59Z</time>
      </trkpt>
      <trkpt lat="43.24336" lon="1.15504">
        <ele>229</ele>
        <time>2022-07-07T09:52:30Z</time>
      </trkpt>
      <trkpt lat="43.2434" lon="1.155">
        <ele>229</ele>
        <time>2022-07-07T09:52:33Z</time>
      </trkpt>
      <trkpt lat="43.24365" lon="1.15469">
        <ele>230</ele>
        <time>2022-07-07T09:53:05Z</time>
      </trkpt>
      <trkpt lat="43.2437" lon="1.15464">
        <ele>229</ele>
        <time>2022-07-07T09:53:09Z</time>
      </trkpt>
      <trkpt lat="43.24372" lon="1.15458">
        <ele>229</ele>
        <time>2022-07-07T09:53:13Z</time>
      </trkpt>
      <trkpt lat="43.24373" lon="1.15451">
        <ele>229</ele>
        <time>2022-07-07T09:53:16Z</time>
      </trkpt>
      <trkpt lat="43.24378" lon="1.15446">
        <ele>230</ele>
        <time>2022-07-07T09:53:42Z</time>
      </trkpt>
      <trkpt lat="43.2438" lon="1.15428">
        <ele>230</ele>
        <time>2022-07-07T09:53:59Z</time>
      </trkpt>
      <trkpt lat="43.24381" lon="1.15423">
        <ele>229</ele>
        <time>2022-07-07T09:54:03Z</time>
      </trkpt>
      <trkpt lat="43.24382" lon="1.15417">
        <ele>228</ele>
        <time>2022-07-07T09:56:35Z</time>
      </trkpt>
      <trkpt lat="43.24383" lon="1.15407">
        <ele>228</ele>
        <time>2022-07-07T09:56:47Z</time>
      </trkpt>
      <trkpt lat="43.24383" lon="1.15398">
        <ele>227</ele>
        <time>2022-07-07T09:56:58Z</time>
      </trkpt>
      <trkpt lat="43.2438" lon="1.15394">
        <ele>227</ele>
        <time>2022-07-07T09:57:03Z</time>
      </trkpt>
      <trkpt lat="43.24376" lon="1.15391">
        <ele>227</ele>
        <time>2022-07-07T09:57:08Z</time>
      </trkpt>
      <trkpt lat="43.24376" lon="1.15384">
        <ele>227</ele>
        <time>2022-07-07T09:57:12Z</time>
      </trkpt>
      <trkpt lat="43.24377" lon="1.15378">
        <ele>228</ele>
        <time>2022-07-07T09:57:17Z</time>
      </trkpt>
      <trkpt lat="43.24377" lon="1.15369">
        <ele>228</ele>
        <time>2022-07-07T09:57:26Z</time>
      </trkpt>
      <trkpt lat="43.24369" lon="1.1537">
        <ele>229</ele>
        <time>2022-07-07T09:57:38Z</time>
      </trkpt>
      <trkpt lat="43.24364" lon="1.15368">
        <ele>229</ele>
        <time>2022-07-07T09:57:43Z</time>
      </trkpt>
      <trkpt lat="43.24357" lon="1.15373">
        <ele>229</ele>
        <time>2022-07-07T09:57:51Z</time>
      </trkpt>
      <trkpt lat="43.24343" lon="1.15387">
        <ele>228</ele>
        <time>2022-07-07T09:58:08Z</time>
      </trkpt>
      <trkpt lat="43.24337" lon="1.15389">
        <ele>229</ele>
        <time>2022-07-07T09:58:16Z</time>
      </trkpt>
      <trkpt lat="43.24324" lon="1.15387">
        <ele>229</ele>
        <time>2022-07-07T09:58:25Z</time>
      </trkpt>
      <trkpt lat="43.24313" lon="1.15375">
        <ele>230</ele>
        <time>2022-07-07T09:58:37Z</time>
      </trkpt>
      <trkpt lat="43.24308" lon="1.15364">
        <ele>229</ele>
        <time>2022-07-07T09:58:47Z</time>
      </trkpt>
      <trkpt lat="43.24316" lon="1.15341">
        <ele>230</ele>
        <time>2022-07-07T09:59:00Z</time>
      </trkpt>
      <trkpt lat="43.24315" lon="1.15333">
        <ele>230</ele>
        <time>2022-07-07T09:59:03Z</time>
      </trkpt>
      <trkpt lat="43.24317" lon="1.15329">
        <ele>230</ele>
        <time>2022-07-07T09:59:13Z</time>
      </trkpt>
      <trkpt lat="43.24298" lon="1.15316">
        <ele>230</ele>
        <time>2022-07-07T09:59:36Z</time>
      </trkpt>
      <trkpt lat="43.2429" lon="1.15308">
        <ele>231</ele>
        <time>2022-07-07T09:59:44Z</time>
      </trkpt>
      <trkpt lat="43.24285" lon="1.15306">
        <ele>231</ele>
        <time>2022-07-07T09:59:48Z</time>
      </trkpt>
      <trkpt lat="43.24277" lon="1.15295">
        <ele>230</ele>
        <time>2022-07-07T09:59:57Z</time>
      </trkpt>
      <trkpt lat="43.24267" lon="1.15289">
        <ele>230</ele>
        <time>2022-07-07T10:00:07Z</time>
      </trkpt>
      <trkpt lat="43.24263" lon="1.15284">
        <ele>231</ele>
        <time>2022-07-07T10:00:12Z</time>
      </trkpt>
      <trkpt lat="43.24258" lon="1.15281">
        <ele>231</ele>
        <time>2022-07-07T10:00:16Z</time>
      </trkpt>
      <trkpt lat="43.24255" lon="1.15277">
        <ele>231</ele>
        <time>2022-07-07T10:00:20Z</time>
      </trkpt>
      <trkpt lat="43.24243" lon="1.15268">
        <ele>231</ele>
        <time>2022-07-07T10:00:31Z</time>
      </trkpt>
      <trkpt lat="43.24232" lon="1.15255">
        <ele>231</ele>
        <time>2022-07-07T10:00:44Z</time>
      </trkpt>
      <trkpt lat="43.24233" lon="1.15246">
        <ele>231</ele>
        <time>2022-07-07T10:00:49Z</time>
      </trkpt>
      <trkpt lat="43.2424" lon="1.15225">
        <ele>231</ele>
        <time>2022-07-07T10:01:01Z</time>
      </trkpt>
      <trkpt lat="43.24246" lon="1.15212">
        <ele>232</ele>
        <time>2022-07-07T10:01:09Z</time>
      </trkpt>
      <trkpt lat="43.2426" lon="1.15192">
        <ele>233</ele>
        <time>2022-07-07T10:01:27Z</time>
      </trkpt>
      <trkpt lat="43.24263" lon="1.15186">
        <ele>233</ele>
        <time>2022-07-07T10:01:32Z</time>
      </trkpt>
      <trkpt lat="43.24263" lon="1.15179">
        <ele>233</ele>
        <time>2022-07-07T10:01:36Z</time>
      </trkpt>
      <trkpt lat="43.24247" lon="1.15169">
        <ele>233</ele>
        <time>2022-07-07T10:01:51Z</time>
      </trkpt>
      <trkpt lat="43.24242" lon="1.15162">
        <ele>233</ele>
        <time>2022-07-07T10:01:57Z</time>
      </trkpt>
      <trkpt lat="43.2423" lon="1.15156">
        <ele>233</ele>
        <time>2022-07-07T10:02:10Z</time>
      </trkpt>
      <trkpt lat="43.24222" lon="1.15154">
        <ele>232</ele>
        <time>2022-07-07T10:02:25Z</time>
      </trkpt>
      <trkpt lat="43.24214" lon="1.15147">
        <ele>231</ele>
        <time>2022-07-07T10:02:39Z</time>
      </trkpt>
      <trkpt lat="43.24212" lon="1.15144">
        <ele>233</ele>
        <time>2022-07-07T10:03:02Z</time>
      </trkpt>
      <trkpt lat="43.24206" lon="1.15146">
        <ele>233</ele>
        <time>2022-07-07T10:03:07Z</time>
      </trkpt>
      <trkpt lat="43.24201" lon="1.15144">
        <ele>233</ele>
        <time>2022-07-07T10:03:12Z</time>
      </trkpt>
      <trkpt lat="43.24196" lon="1.1514">
        <ele>234</ele>
        <time>2022-07-07T10:03:16Z</time>
      </trkpt>
      <trkpt lat="43.24177" lon="1.15127">
        <ele>233</ele>
        <time>2022-07-07T10:03:34Z</time>
      </trkpt>
      <trkpt lat="43.2417" lon="1.15125">
        <ele>233</ele>
        <time>2022-07-07T10:03:41Z</time>
      </trkpt>
      <trkpt lat="43.24164" lon="1.15126">
        <ele>233</ele>
        <time>2022-07-07T10:03:51Z</time>
      </trkpt>
      <trkpt lat="43.24161" lon="1.1513">
        <ele>233</ele>
        <time>2022-07-07T10:03:55Z</time>
      </trkpt>
      <trkpt lat="43.24159" lon="1.15136">
        <ele>233</ele>
        <time>2022-07-07T10:03:59Z</time>
      </trkpt>
      <trkpt lat="43.24147" lon="1.15162">
        <ele>232</ele>
        <time>2022-07-07T10:04:19Z</time>
      </trkpt>
      <trkpt lat="43.24142" lon="1.15167">
        <ele>232</ele>
        <time>2022-07-07T10:04:23Z</time>
      </trkpt>
      <trkpt lat="43.24117" lon="1.15175">
        <ele>231</ele>
        <time>2022-07-07T10:04:43Z</time>
      </trkpt>
      <trkpt lat="43.24101" lon="1.15173">
        <ele>232</ele>
        <time>2022-07-07T10:04:56Z</time>
      </trkpt>
      <trkpt lat="43.24097" lon="1.1517">
        <ele>232</ele>
        <time>2022-07-07T10:05:00Z</time>
      </trkpt>
      <trkpt lat="43.24092" lon="1.15169">
        <ele>232</ele>
        <time>2022-07-07T10:05:04Z</time>
      </trkpt>
      <trkpt lat="43.24088" lon="1.15167">
        <ele>232</ele>
        <time>2022-07-07T10:05:08Z</time>
      </trkpt>
      <trkpt lat="43.24084" lon="1.15164">
        <ele>231</ele>
        <time>2022-07-07T10:05:12Z</time>
      </trkpt>
      <trkpt lat="43.24076" lon="1.15158">
        <ele>232</ele>
        <time>2022-07-07T10:05:18Z</time>
      </trkpt>
      <trkpt lat="43.24044" lon="1.15136">
        <ele>231</ele>
        <time>2022-07-07T10:05:50Z</time>
      </trkpt>
      <trkpt lat="43.24038" lon="1.15135">
        <ele>231</ele>
        <time>2022-07-07T10:05:54Z</time>
      </trkpt>
      <trkpt lat="43.24034" lon="1.15132">
        <ele>231</ele>
        <time>2022-07-07T10:05:59Z</time>
      </trkpt>
      <trkpt lat="43.24029" lon="1.15129">
        <ele>231</ele>
        <time>2022-07-07T10:06:03Z</time>
      </trkpt>
      <trkpt lat="43.24015" lon="1.15115">
        <ele>231</ele>
        <time>2022-07-07T10:06:17Z</time>
      </trkpt>
      <trkpt lat="43.24005" lon="1.15096">
        <ele>231</ele>
        <time>2022-07-07T10:06:30Z</time>
      </trkpt>
      <trkpt lat="43.24001" lon="1.15091">
        <ele>231</ele>
        <time>2022-07-07T10:06:34Z</time>
      </trkpt>
      <trkpt lat="43.24" lon="1.15084">
        <ele>231</ele>
        <time>2022-07-07T10:06:38Z</time>
      </trkpt>
      <trkpt lat="43.23986" lon="1.15066">
        <ele>232</ele>
        <time>2022-07-07T10:06:56Z</time>
      </trkpt>
      <trkpt lat="43.23981" lon="1.15063">
        <ele>232</ele>
        <time>2022-07-07T10:07:01Z</time>
      </trkpt>
      <trkpt lat="43.23977" lon="1.1506">
        <ele>232</ele>
        <time>2022-07-07T10:07:09Z</time>
      </trkpt>
      <trkpt lat="43.2398" lon="1.15053">
        <ele>232</ele>
        <time>2022-07-07T10:07:33Z</time>
      </trkpt>
      <trkpt lat="43.2398" lon="1.15047">
        <ele>230</ele>
        <time>2022-07-07T10:17:21Z</time>
      </trkpt>
      <trkpt lat="43.23981" lon="1.15038">
        <ele>230</ele>
        <time>2022-07-07T10:17:34Z</time>
      </trkpt>
      <trkpt lat="43.23984" lon="1.15032">
        <ele>230</ele>
        <time>2022-07-07T10:17:39Z</time>
      </trkpt>
      <trkpt lat="43.23983" lon="1.15025">
        <ele>230</ele>
        <time>2022-07-07T10:17:48Z</time>
      </trkpt>
      <trkpt lat="43.23979" lon="1.15033">
        <ele>231</ele>
        <time>2022-07-07T10:17:59Z</time>
      </trkpt>
      <trkpt lat="43.23978" lon="1.15039">
        <ele>231</ele>
        <time>2022-07-07T10:18:03Z</time>
      </trkpt>
      <trkpt lat="43.23976" lon="1.15045">
        <ele>231</ele>
        <time>2022-07-07T10:18:07Z</time>
      </trkpt>
      <trkpt lat="43.23974" lon="1.15051">
        <ele>231</ele>
        <time>2022-07-07T10:18:11Z</time>
      </trkpt>
      <trkpt lat="43.23971" lon="1.15057">
        <ele>231</ele>
        <time>2022-07-07T10:18:16Z</time>
      </trkpt>
      <trkpt lat="43.23967" lon="1.1506">
        <ele>231</ele>
        <time>2022-07-07T10:18:20Z</time>
      </trkpt>
      <trkpt lat="43.23962" lon="1.15061">
        <ele>231</ele>
        <time>2022-07-07T10:18:24Z</time>
      </trkpt>
      <trkpt lat="43.23957" lon="1.15061">
        <ele>231</ele>
        <time>2022-07-07T10:18:27Z</time>
      </trkpt>
      <trkpt lat="43.23944" lon="1.15055">
        <ele>231</ele>
        <time>2022-07-07T10:18:37Z</time>
      </trkpt>
      <trkpt lat="43.2394" lon="1.15052">
        <ele>231</ele>
        <time>2022-07-07T10:18:41Z</time>
      </trkpt>
      <trkpt lat="43.23937" lon="1.15049">
        <ele>231</ele>
        <time>2022-07-07T10:18:45Z</time>
      </trkpt>
      <trkpt lat="43.23924" lon="1.15044">
        <ele>232</ele>
        <time>2022-07-07T10:18:57Z</time>
      </trkpt>
      <trkpt lat="43.23908" lon="1.15033">
        <ele>232</ele>
        <time>2022-07-07T10:19:12Z</time>
      </trkpt>
      <trkpt lat="43.23886" lon="1.15024">
        <ele>232</ele>
        <time>2022-07-07T10:19:33Z</time>
      </trkpt>
      <trkpt lat="43.23874" lon="1.15016">
        <ele>233</ele>
        <time>2022-07-07T10:19:44Z</time>
      </trkpt>
      <trkpt lat="43.2387" lon="1.15014">
        <ele>232</ele>
        <time>2022-07-07T10:19:48Z</time>
      </trkpt>
      <trkpt lat="43.23854" lon="1.15014">
        <ele>232</ele>
        <time>2022-07-07T10:20:02Z</time>
      </trkpt>
      <trkpt lat="43.23834" lon="1.15021">
        <ele>233</ele>
        <time>2022-07-07T10:20:21Z</time>
      </trkpt>
      <trkpt lat="43.23825" lon="1.15031">
        <ele>233</ele>
        <time>2022-07-07T10:20:34Z</time>
      </trkpt>
      <trkpt lat="43.23822" lon="1.15036">
        <ele>233</ele>
        <time>2022-07-07T10:20:39Z</time>
      </trkpt>
      <trkpt lat="43.23812" lon="1.15043">
        <ele>234</ele>
        <time>2022-07-07T10:20:48Z</time>
      </trkpt>
      <trkpt lat="43.23808" lon="1.15048">
        <ele>234</ele>
        <time>2022-07-07T10:20:53Z</time>
      </trkpt>
      <trkpt lat="43.23802" lon="1.15057">
        <ele>235</ele>
        <time>2022-07-07T10:21:01Z</time>
      </trkpt>
      <trkpt lat="43.23799" lon="1.1506">
        <ele>235</ele>
        <time>2022-07-07T10:21:05Z</time>
      </trkpt>
      <trkpt lat="43.23798" lon="1.15069">
        <ele>235</ele>
        <time>2022-07-07T10:21:12Z</time>
      </trkpt>
      <trkpt lat="43.23798" lon="1.15088">
        <ele>236</ele>
        <time>2022-07-07T10:21:29Z</time>
      </trkpt>
      <trkpt lat="43.23799" lon="1.15094">
        <ele>236</ele>
        <time>2022-07-07T10:21:33Z</time>
      </trkpt>
      <trkpt lat="43.238" lon="1.151">
        <ele>236</ele>
        <time>2022-07-07T10:21:37Z</time>
      </trkpt>
      <trkpt lat="43.23796" lon="1.15104">
        <ele>236</ele>
        <time>2022-07-07T10:21:44Z</time>
      </trkpt>
      <trkpt lat="43.23791" lon="1.15113">
        <ele>236</ele>
        <time>2022-07-07T10:22:08Z</time>
      </trkpt>
      <trkpt lat="43.23787" lon="1.15116">
        <ele>236</ele>
        <time>2022-07-07T10:22:12Z</time>
      </trkpt>
      <trkpt lat="43.23784" lon="1.15121">
        <ele>236</ele>
        <time>2022-07-07T10:22:16Z</time>
      </trkpt>
      <trkpt lat="43.23779" lon="1.15124">
        <ele>236</ele>
        <time>2022-07-07T10:22:20Z</time>
      </trkpt>
      <trkpt lat="43.23776" lon="1.15128">
        <ele>236</ele>
        <time>2022-07-07T10:22:24Z</time>
      </trkpt>
      <trkpt lat="43.23771" lon="1.15129">
        <ele>236</ele>
        <time>2022-07-07T10:22:28Z</time>
      </trkpt>
      <trkpt lat="43.23767" lon="1.15127">
        <ele>236</ele>
        <time>2022-07-07T10:22:32Z</time>
      </trkpt>
      <trkpt lat="43.23762" lon="1.15123">
        <ele>236</ele>
        <time>2022-07-07T10:22:38Z</time>
      </trkpt>
      <trkpt lat="43.23761" lon="1.15117">
        <ele>236</ele>
        <time>2022-07-07T10:23:40Z</time>
      </trkpt>
      <trkpt lat="43.23759" lon="1.15112">
        <ele>236</ele>
        <time>2022-07-07T10:23:46Z</time>
      </trkpt>
      <trkpt lat="43.23757" lon="1.15108">
        <ele>236</ele>
        <time>2022-07-07T10:23:50Z</time>
      </trkpt>
      <trkpt lat="43.23755" lon="1.15104">
        <ele>236</ele>
        <time>2022-07-07T10:24:10Z</time>
      </trkpt>
      <trkpt lat="43.23753" lon="1.15097">
        <ele>236</ele>
        <time>2022-07-07T10:24:25Z</time>
      </trkpt>
      <trkpt lat="43.23747" lon="1.15081">
        <ele>237</ele>
        <time>2022-07-07T10:24:37Z</time>
      </trkpt>
      <trkpt lat="43.23742" lon="1.15072">
        <ele>236</ele>
        <time>2022-07-07T10:24:43Z</time>
      </trkpt>
      <trkpt lat="43.23727" lon="1.15034">
        <ele>237</ele>
        <time>2022-07-07T10:25:09Z</time>
      </trkpt>
      <trkpt lat="43.23724" lon="1.1503">
        <ele>237</ele>
        <time>2022-07-07T10:25:13Z</time>
      </trkpt>
      <trkpt lat="43.23706" lon="1.14984">
        <ele>237</ele>
        <time>2022-07-07T10:25:45Z</time>
      </trkpt>
      <trkpt lat="43.23704" lon="1.14978">
        <ele>237</ele>
        <time>2022-07-07T10:25:49Z</time>
      </trkpt>
      <trkpt lat="43.23702" lon="1.14973">
        <ele>238</ele>
        <time>2022-07-07T10:25:53Z</time>
      </trkpt>
      <trkpt lat="43.23695" lon="1.14956">
        <ele>238</ele>
        <time>2022-07-07T10:26:05Z</time>
      </trkpt>
      <trkpt lat="43.23688" lon="1.14936">
        <ele>238</ele>
        <time>2022-07-07T10:26:18Z</time>
      </trkpt>
      <trkpt lat="43.23685" lon="1.14932">
        <ele>238</ele>
        <time>2022-07-07T10:26:21Z</time>
      </trkpt>
      <trkpt lat="43.23673" lon="1.14902">
        <ele>238</ele>
        <time>2022-07-07T10:26:43Z</time>
      </trkpt>
      <trkpt lat="43.23672" lon="1.14897">
        <ele>238</ele>
        <time>2022-07-07T10:26:46Z</time>
      </trkpt>
      <trkpt lat="43.23665" lon="1.14884">
        <ele>238</ele>
        <time>2022-07-07T10:26:56Z</time>
      </trkpt>
      <trkpt lat="43.23663" lon="1.14879">
        <ele>238</ele>
        <time>2022-07-07T10:27:00Z</time>
      </trkpt>
      <trkpt lat="43.23659" lon="1.1487">
        <ele>238</ele>
        <time>2022-07-07T10:27:06Z</time>
      </trkpt>
      <trkpt lat="43.23657" lon="1.14864">
        <ele>238</ele>
        <time>2022-07-07T10:27:10Z</time>
      </trkpt>
      <trkpt lat="43.23655" lon="1.14859">
        <ele>238</ele>
        <time>2022-07-07T10:27:13Z</time>
      </trkpt>
      <trkpt lat="43.23651" lon="1.1485">
        <ele>239</ele>
        <time>2022-07-07T10:27:19Z</time>
      </trkpt>
      <trkpt lat="43.23649" lon="1.14845">
        <ele>238</ele>
        <time>2022-07-07T10:27:22Z</time>
      </trkpt>
      <trkpt lat="43.23648" lon="1.1484">
        <ele>238</ele>
        <time>2022-07-07T10:27:25Z</time>
      </trkpt>
      <trkpt lat="43.23646" lon="1.14836">
        <ele>238</ele>
        <time>2022-07-07T10:27:28Z</time>
      </trkpt>
      <trkpt lat="43.23644" lon="1.1483">
        <ele>238</ele>
        <time>2022-07-07T10:27:32Z</time>
      </trkpt>
      <trkpt lat="43.23642" lon="1.14826">
        <ele>238</ele>
        <time>2022-07-07T10:27:35Z</time>
      </trkpt>
      <trkpt lat="43.23641" lon="1.14821">
        <ele>238</ele>
        <time>2022-07-07T10:27:38Z</time>
      </trkpt>
      <trkpt lat="43.23639" lon="1.14816">
        <ele>238</ele>
        <time>2022-07-07T10:27:42Z</time>
      </trkpt>
      <trkpt lat="43.23623" lon="1.14783">
        <ele>239</ele>
        <time>2022-07-07T10:28:05Z</time>
      </trkpt>
      <trkpt lat="43.2362" lon="1.14773">
        <ele>239</ele>
        <time>2022-07-07T10:28:12Z</time>
      </trkpt>
      <trkpt lat="43.23611" lon="1.14753">
        <ele>239</ele>
        <time>2022-07-07T10:28:26Z</time>
      </trkpt>
      <trkpt lat="43.2361" lon="1.14747">
        <ele>239</ele>
        <time>2022-07-07T10:28:30Z</time>
      </trkpt>
      <trkpt lat="43.23591" lon="1.14703">
        <ele>238</ele>
        <time>2022-07-07T10:29:01Z</time>
      </trkpt>
      <trkpt lat="43.23589" lon="1.14697">
        <ele>239</ele>
        <time>2022-07-07T10:29:05Z</time>
      </trkpt>
      <trkpt lat="43.23587" lon="1.14693">
        <ele>239</ele>
        <time>2022-07-07T10:29:08Z</time>
      </trkpt>
      <trkpt lat="43.23585" lon="1.14689">
        <ele>239</ele>
        <time>2022-07-07T10:29:11Z</time>
      </trkpt>
      <trkpt lat="43.23581" lon="1.14678">
        <ele>239</ele>
        <time>2022-07-07T10:29:19Z</time>
      </trkpt>
      <trkpt lat="43.23578" lon="1.14673">
        <ele>239</ele>
        <time>2022-07-07T10:29:23Z</time>
      </trkpt>
      <trkpt lat="43.23577" lon="1.14668">
        <ele>239</ele>
        <time>2022-07-07T10:29:26Z</time>
      </trkpt>
      <trkpt lat="43.23575" lon="1.14664">
        <ele>239</ele>
        <time>2022-07-07T10:29:29Z</time>
      </trkpt>
      <trkpt lat="43.23572" lon="1.14654">
        <ele>239</ele>
        <time>2022-07-07T10:29:36Z</time>
      </trkpt>
      <trkpt lat="43.23566" lon="1.1464">
        <ele>239</ele>
        <time>2022-07-07T10:29:45Z</time>
      </trkpt>
      <trkpt lat="43.23564" lon="1.14636">
        <ele>239</ele>
        <time>2022-07-07T10:29:48Z</time>
      </trkpt>
      <trkpt lat="43.23563" lon="1.14631">
        <ele>239</ele>
        <time>2022-07-07T10:29:51Z</time>
      </trkpt>
      <trkpt lat="43.23554" lon="1.14613">
        <ele>238</ele>
        <time>2022-07-07T10:30:04Z</time>
      </trkpt>
      <trkpt lat="43.23549" lon="1.14599">
        <ele>238</ele>
        <time>2022-07-07T10:30:14Z</time>
      </trkpt>
      <trkpt lat="43.23547" lon="1.14595">
        <ele>238</ele>
        <time>2022-07-07T10:30:17Z</time>
      </trkpt>
      <trkpt lat="43.23545" lon="1.14591">
        <ele>238</ele>
        <time>2022-07-07T10:30:20Z</time>
      </trkpt>
      <trkpt lat="43.23539" lon="1.14571">
        <ele>238</ele>
        <time>2022-07-07T10:30:33Z</time>
      </trkpt>
      <trkpt lat="43.23536" lon="1.14566">
        <ele>238</ele>
        <time>2022-07-07T10:30:37Z</time>
      </trkpt>
      <trkpt lat="43.23534" lon="1.14562">
        <ele>238</ele>
        <time>2022-07-07T10:30:40Z</time>
      </trkpt>
      <trkpt lat="43.23524" lon="1.14538">
        <ele>238</ele>
        <time>2022-07-07T10:30:56Z</time>
      </trkpt>
      <trkpt lat="43.23519" lon="1.14527">
        <ele>238</ele>
        <time>2022-07-07T10:31:04Z</time>
      </trkpt>
      <trkpt lat="43.23514" lon="1.14515">
        <ele>238</ele>
        <time>2022-07-07T10:31:29Z</time>
      </trkpt>
      <trkpt lat="43.23503" lon="1.14487">
        <ele>238</ele>
        <time>2022-07-07T10:31:47Z</time>
      </trkpt>
      <trkpt lat="43.23497" lon="1.14473">
        <ele>238</ele>
        <time>2022-07-07T10:31:58Z</time>
      </trkpt>
      <trkpt lat="43.23495" lon="1.14469">
        <ele>238</ele>
        <time>2022-07-07T10:32:01Z</time>
      </trkpt>
      <trkpt lat="43.23491" lon="1.14459">
        <ele>238</ele>
        <time>2022-07-07T10:32:08Z</time>
      </trkpt>
      <trkpt lat="43.23489" lon="1.14454">
        <ele>238</ele>
        <time>2022-07-07T10:32:11Z</time>
      </trkpt>
      <trkpt lat="43.23486" lon="1.14445">
        <ele>238</ele>
        <time>2022-07-07T10:32:17Z</time>
      </trkpt>
      <trkpt lat="43.23484" lon="1.1444">
        <ele>238</ele>
        <time>2022-07-07T10:32:20Z</time>
      </trkpt>
      <trkpt lat="43.23481" lon="1.14431">
        <ele>237</ele>
        <time>2022-07-07T10:32:26Z</time>
      </trkpt>
      <trkpt lat="43.23472" lon="1.14414">
        <ele>237</ele>
        <time>2022-07-07T10:32:39Z</time>
      </trkpt>
      <trkpt lat="43.23461" lon="1.14386">
        <ele>237</ele>
        <time>2022-07-07T10:32:58Z</time>
      </trkpt>
      <trkpt lat="43.23459" lon="1.1438">
        <ele>238</ele>
        <time>2022-07-07T10:33:02Z</time>
      </trkpt>
      <trkpt lat="43.23457" lon="1.14375">
        <ele>238</ele>
        <time>2022-07-07T10:33:06Z</time>
      </trkpt>
      <trkpt lat="43.23452" lon="1.14365">
        <ele>238</ele>
        <time>2022-07-07T10:33:13Z</time>
      </trkpt>
      <trkpt lat="43.2345" lon="1.14361">
        <ele>238</ele>
        <time>2022-07-07T10:33:16Z</time>
      </trkpt>
      <trkpt lat="43.23449" lon="1.14356">
        <ele>238</ele>
        <time>2022-07-07T10:33:19Z</time>
      </trkpt>
      <trkpt lat="43.23435" lon="1.14325">
        <ele>237</ele>
        <time>2022-07-07T10:33:42Z</time>
      </trkpt>
      <trkpt lat="43.23433" lon="1.1432">
        <ele>237</ele>
        <time>2022-07-07T10:33:46Z</time>
      </trkpt>
      <trkpt lat="43.23432" lon="1.14316">
        <ele>237</ele>
        <time>2022-07-07T10:33:49Z</time>
      </trkpt>
      <trkpt lat="43.23427" lon="1.14307">
        <ele>237</ele>
        <time>2022-07-07T10:33:56Z</time>
      </trkpt>
      <trkpt lat="43.23425" lon="1.14303">
        <ele>237</ele>
        <time>2022-07-07T10:33:59Z</time>
      </trkpt>
      <trkpt lat="43.23421" lon="1.14293">
        <ele>237</ele>
        <time>2022-07-07T10:34:06Z</time>
      </trkpt>
      <trkpt lat="43.23419" lon="1.14288">
        <ele>237</ele>
        <time>2022-07-07T10:34:10Z</time>
      </trkpt>
      <trkpt lat="43.23417" lon="1.14283">
        <ele>237</ele>
        <time>2022-07-07T10:34:14Z</time>
      </trkpt>
      <trkpt lat="43.23412" lon="1.14272">
        <ele>236</ele>
        <time>2022-07-07T10:34:22Z</time>
      </trkpt>
      <trkpt lat="43.23393" lon="1.14226">
        <ele>237</ele>
        <time>2022-07-07T10:34:54Z</time>
      </trkpt>
      <trkpt lat="43.23388" lon="1.14215">
        <ele>237</ele>
        <time>2022-07-07T10:35:03Z</time>
      </trkpt>
      <trkpt lat="43.23384" lon="1.14206">
        <ele>237</ele>
        <time>2022-07-07T10:35:09Z</time>
      </trkpt>
      <trkpt lat="43.23378" lon="1.14192">
        <ele>237</ele>
        <time>2022-07-07T10:35:19Z</time>
      </trkpt>
      <trkpt lat="43.23376" lon="1.14186">
        <ele>237</ele>
        <time>2022-07-07T10:35:23Z</time>
      </trkpt>
      <trkpt lat="43.23358" lon="1.14144">
        <ele>237</ele>
        <time>2022-07-07T10:35:54Z</time>
      </trkpt>
      <trkpt lat="43.23354" lon="1.14132">
        <ele>237</ele>
        <time>2022-07-07T10:36:01Z</time>
      </trkpt>
      <trkpt lat="43.2335" lon="1.14122">
        <ele>237</ele>
        <time>2022-07-07T10:36:08Z</time>
      </trkpt>
      <trkpt lat="43.23341" lon="1.14097">
        <ele>237</ele>
        <time>2022-07-07T10:36:25Z</time>
      </trkpt>
      <trkpt lat="43.23338" lon="1.14094">
        <ele>238</ele>
        <time>2022-07-07T10:36:28Z</time>
      </trkpt>
      <trkpt lat="43.23334" lon="1.14084">
        <ele>238</ele>
        <time>2022-07-07T10:36:34Z</time>
      </trkpt>
      <trkpt lat="43.23332" lon="1.1408">
        <ele>238</ele>
        <time>2022-07-07T10:36:37Z</time>
      </trkpt>
      <trkpt lat="43.23331" lon="1.14075">
        <ele>238</ele>
        <time>2022-07-07T10:36:40Z</time>
      </trkpt>
      <trkpt lat="43.23328" lon="1.14071">
        <ele>238</ele>
        <time>2022-07-07T10:36:43Z</time>
      </trkpt>
      <trkpt lat="43.23325" lon="1.14062">
        <ele>238</ele>
        <time>2022-07-07T10:36:49Z</time>
      </trkpt>
      <trkpt lat="43.23323" lon="1.14056">
        <ele>238</ele>
        <time>2022-07-07T10:36:53Z</time>
      </trkpt>
      <trkpt lat="43.23322" lon="1.14051">
        <ele>238</ele>
        <time>2022-07-07T10:36:56Z</time>
      </trkpt>
      <trkpt lat="43.23308" lon="1.14019">
        <ele>239</ele>
        <time>2022-07-07T10:37:19Z</time>
      </trkpt>
      <trkpt lat="43.23299" lon="1.14">
        <ele>237</ele>
        <time>2022-07-07T10:37:33Z</time>
      </trkpt>
      <trkpt lat="43.23296" lon="1.13995">
        <ele>237</ele>
        <time>2022-07-07T10:37:36Z</time>
      </trkpt>
      <trkpt lat="43.23292" lon="1.13985">
        <ele>237</ele>
        <time>2022-07-07T10:37:43Z</time>
      </trkpt>
      <trkpt lat="43.23285" lon="1.13968">
        <ele>237</ele>
        <time>2022-07-07T10:37:55Z</time>
      </trkpt>
      <trkpt lat="43.23283" lon="1.13962">
        <ele>237</ele>
        <time>2022-07-07T10:37:59Z</time>
      </trkpt>
      <trkpt lat="43.23279" lon="1.13956">
        <ele>237</ele>
        <time>2022-07-07T10:38:03Z</time>
      </trkpt>
      <trkpt lat="43.23277" lon="1.13951">
        <ele>237</ele>
        <time>2022-07-07T10:38:07Z</time>
      </trkpt>
      <trkpt lat="43.23266" lon="1.13923">
        <ele>237</ele>
        <time>2022-07-07T10:38:27Z</time>
      </trkpt>
      <trkpt lat="43.23264" lon="1.13919">
        <ele>237</ele>
        <time>2022-07-07T10:38:30Z</time>
      </trkpt>
      <trkpt lat="43.23262" lon="1.13913">
        <ele>237</ele>
        <time>2022-07-07T10:38:34Z</time>
      </trkpt>
      <trkpt lat="43.23259" lon="1.13909">
        <ele>237</ele>
        <time>2022-07-07T10:38:37Z</time>
      </trkpt>
      <trkpt lat="43.23252" lon="1.13888">
        <ele>237</ele>
        <time>2022-07-07T10:38:51Z</time>
      </trkpt>
      <trkpt lat="43.2325" lon="1.13883">
        <ele>237</ele>
        <time>2022-07-07T10:38:54Z</time>
      </trkpt>
      <trkpt lat="43.23247" lon="1.13877">
        <ele>237</ele>
        <time>2022-07-07T10:38:58Z</time>
      </trkpt>
      <trkpt lat="43.23243" lon="1.13869">
        <ele>237</ele>
        <time>2022-07-07T10:39:04Z</time>
      </trkpt>
      <trkpt lat="43.23241" lon="1.13864">
        <ele>236</ele>
        <time>2022-07-07T10:39:08Z</time>
      </trkpt>
      <trkpt lat="43.23238" lon="1.13858">
        <ele>237</ele>
        <time>2022-07-07T10:39:12Z</time>
      </trkpt>
      <trkpt lat="43.23236" lon="1.13854">
        <ele>236</ele>
        <time>2022-07-07T10:39:15Z</time>
      </trkpt>
      <trkpt lat="43.23231" lon="1.13838">
        <ele>237</ele>
        <time>2022-07-07T10:39:25Z</time>
      </trkpt>
      <trkpt lat="43.23229" lon="1.13833">
        <ele>237</ele>
        <time>2022-07-07T10:39:29Z</time>
      </trkpt>
      <trkpt lat="43.23226" lon="1.13827">
        <ele>237</ele>
        <time>2022-07-07T10:39:33Z</time>
      </trkpt>
      <trkpt lat="43.23218" lon="1.1381">
        <ele>237</ele>
        <time>2022-07-07T10:39:45Z</time>
      </trkpt>
      <trkpt lat="43.23211" lon="1.13794">
        <ele>237</ele>
        <time>2022-07-07T10:39:56Z</time>
      </trkpt>
      <trkpt lat="43.23203" lon="1.13779">
        <ele>237</ele>
        <time>2022-07-07T10:40:08Z</time>
      </trkpt>
      <trkpt lat="43.23193" lon="1.13756">
        <ele>237</ele>
        <time>2022-07-07T10:40:23Z</time>
      </trkpt>
      <trkpt lat="43.2319" lon="1.13751">
        <ele>237</ele>
        <time>2022-07-07T10:40:27Z</time>
      </trkpt>
      <trkpt lat="43.23188" lon="1.13745">
        <ele>237</ele>
        <time>2022-07-07T10:40:31Z</time>
      </trkpt>
      <trkpt lat="43.23165" lon="1.13703">
        <ele>238</ele>
        <time>2022-07-07T10:41:03Z</time>
      </trkpt>
      <trkpt lat="43.23139" lon="1.13662">
        <ele>238</ele>
        <time>2022-07-07T10:41:35Z</time>
      </trkpt>
      <trkpt lat="43.23137" lon="1.13657">
        <ele>238</ele>
        <time>2022-07-07T10:41:39Z</time>
      </trkpt>
      <trkpt lat="43.23131" lon="1.13647">
        <ele>238</ele>
        <time>2022-07-07T10:41:46Z</time>
      </trkpt>
      <trkpt lat="43.23119" lon="1.13631">
        <ele>238</ele>
        <time>2022-07-07T10:42:00Z</time>
      </trkpt>
      <trkpt lat="43.23113" lon="1.13621">
        <ele>238</ele>
        <time>2022-07-07T10:42:08Z</time>
      </trkpt>
      <trkpt lat="43.23102" lon="1.13607">
        <ele>238</ele>
        <time>2022-07-07T10:42:20Z</time>
      </trkpt>
      <trkpt lat="43.23085" lon="1.1358">
        <ele>238</ele>
        <time>2022-07-07T10:42:42Z</time>
      </trkpt>
      <trkpt lat="43.23076" lon="1.13573">
        <ele>238</ele>
        <time>2022-07-07T10:42:50Z</time>
      </trkpt>
      <trkpt lat="43.23065" lon="1.13553">
        <ele>239</ele>
        <time>2022-07-07T10:43:05Z</time>
      </trkpt>
      <trkpt lat="43.23056" lon="1.13544">
        <ele>238</ele>
        <time>2022-07-07T10:43:14Z</time>
      </trkpt>
      <trkpt lat="43.23036" lon="1.13515">
        <ele>238</ele>
        <time>2022-07-07T10:43:38Z</time>
      </trkpt>
      <trkpt lat="43.23009" lon="1.13482">
        <ele>238</ele>
        <time>2022-07-07T10:44:08Z</time>
      </trkpt>
      <trkpt lat="43.23004" lon="1.13474">
        <ele>238</ele>
        <time>2022-07-07T10:44:14Z</time>
      </trkpt>
      <trkpt lat="43.23" lon="1.13471">
        <ele>238</ele>
        <time>2022-07-07T10:44:17Z</time>
      </trkpt>
      <trkpt lat="43.22983" lon="1.13445">
        <ele>238</ele>
        <time>2022-07-07T10:44:38Z</time>
      </trkpt>
      <trkpt lat="43.22973" lon="1.13432">
        <ele>239</ele>
        <time>2022-07-07T10:44:49Z</time>
      </trkpt>
      <trkpt lat="43.22943" lon="1.13393">
        <ele>239</ele>
        <time>2022-07-07T10:45:23Z</time>
      </trkpt>
      <trkpt lat="43.2292" lon="1.13364">
        <ele>240</ele>
        <time>2022-07-07T10:45:49Z</time>
      </trkpt>
      <trkpt lat="43.22914" lon="1.13354">
        <ele>240</ele>
        <time>2022-07-07T10:45:56Z</time>
      </trkpt>
      <trkpt lat="43.2291" lon="1.13351">
        <ele>240</ele>
        <time>2022-07-07T10:46:00Z</time>
      </trkpt>
      <trkpt lat="43.22908" lon="1.13347">
        <ele>240</ele>
        <time>2022-07-07T10:46:03Z</time>
      </trkpt>
      <trkpt lat="43.22904" lon="1.13343">
        <ele>240</ele>
        <time>2022-07-07T10:46:06Z</time>
      </trkpt>
      <trkpt lat="43.2289" lon="1.1332">
        <ele>240</ele>
        <time>2022-07-07T10:46:25Z</time>
      </trkpt>
      <trkpt lat="43.22885" lon="1.13317">
        <ele>240</ele>
        <time>2022-07-07T10:46:29Z</time>
      </trkpt>
      <trkpt lat="43.22879" lon="1.13308">
        <ele>240</ele>
        <time>2022-07-07T10:46:37Z</time>
      </trkpt>
      <trkpt lat="43.22875" lon="1.13305">
        <ele>240</ele>
        <time>2022-07-07T10:46:41Z</time>
      </trkpt>
      <trkpt lat="43.22873" lon="1.133">
        <ele>240</ele>
        <time>2022-07-07T10:46:44Z</time>
      </trkpt>
      <trkpt lat="43.22849" lon="1.13268">
        <ele>239</ele>
        <time>2022-07-07T10:47:12Z</time>
      </trkpt>
      <trkpt lat="43.22845" lon="1.13263">
        <ele>240</ele>
        <time>2022-07-07T10:47:16Z</time>
      </trkpt>
      <trkpt lat="43.22842" lon="1.13259">
        <ele>240</ele>
        <time>2022-07-07T10:47:20Z</time>
      </trkpt>
      <trkpt lat="43.22836" lon="1.1325">
        <ele>239</ele>
        <time>2022-07-07T10:47:28Z</time>
      </trkpt>
      <trkpt lat="43.22807" lon="1.13214">
        <ele>239</ele>
        <time>2022-07-07T10:48:01Z</time>
      </trkpt>
      <trkpt lat="43.22797" lon="1.13202">
        <ele>239</ele>
        <time>2022-07-07T10:48:11Z</time>
      </trkpt>
      <trkpt lat="43.22794" lon="1.13197">
        <ele>239</ele>
        <time>2022-07-07T10:48:15Z</time>
      </trkpt>
      <trkpt lat="43.22791" lon="1.13192">
        <ele>239</ele>
        <time>2022-07-07T10:48:19Z</time>
      </trkpt>
      <trkpt lat="43.22785" lon="1.13182">
        <ele>239</ele>
        <time>2022-07-07T10:48:27Z</time>
      </trkpt>
      <trkpt lat="43.22778" lon="1.13175">
        <ele>240</ele>
        <time>2022-07-07T10:48:34Z</time>
      </trkpt>
      <trkpt lat="43.22774" lon="1.13171">
        <ele>239</ele>
        <time>2022-07-07T10:48:37Z</time>
      </trkpt>
      <trkpt lat="43.22746" lon="1.13134">
        <ele>239</ele>
        <time>2022-07-07T10:49:09Z</time>
      </trkpt>
      <trkpt lat="43.2274" lon="1.13126">
        <ele>239</ele>
        <time>2022-07-07T10:49:16Z</time>
      </trkpt>
      <trkpt lat="43.22733" lon="1.13119">
        <ele>239</ele>
        <time>2022-07-07T10:49:24Z</time>
      </trkpt>
      <trkpt lat="43.22713" lon="1.13088">
        <ele>239</ele>
        <time>2022-07-07T10:49:49Z</time>
      </trkpt>
      <trkpt lat="43.22706" lon="1.13082">
        <ele>239</ele>
        <time>2022-07-07T10:49:56Z</time>
      </trkpt>
      <trkpt lat="43.22703" lon="1.13077">
        <ele>239</ele>
        <time>2022-07-07T10:50:00Z</time>
      </trkpt>
      <trkpt lat="43.22689" lon="1.13061">
        <ele>239</ele>
        <time>2022-07-07T10:50:14Z</time>
      </trkpt>
      <trkpt lat="43.22665" lon="1.13029">
        <ele>238</ele>
        <time>2022-07-07T10:50:46Z</time>
      </trkpt>
      <trkpt lat="43.22661" lon="1.13024">
        <ele>238</ele>
        <time>2022-07-07T10:50:50Z</time>
      </trkpt>
      <trkpt lat="43.22655" lon="1.13016">
        <ele>237</ele>
        <time>2022-07-07T10:51:28Z</time>
      </trkpt>
      <trkpt lat="43.22637" lon="1.12995">
        <ele>238</ele>
        <time>2022-07-07T10:51:48Z</time>
      </trkpt>
      <trkpt lat="43.22611" lon="1.12959">
        <ele>238</ele>
        <time>2022-07-07T10:52:17Z</time>
      </trkpt>
      <trkpt lat="43.22606" lon="1.12951">
        <ele>238</ele>
        <time>2022-07-07T10:52:24Z</time>
      </trkpt>
      <trkpt lat="43.22603" lon="1.12946">
        <ele>238</ele>
        <time>2022-07-07T10:52:28Z</time>
      </trkpt>
      <trkpt lat="43.22601" lon="1.12942">
        <ele>238</ele>
        <time>2022-07-07T10:52:31Z</time>
      </trkpt>
      <trkpt lat="43.22587" lon="1.12924">
        <ele>238</ele>
        <time>2022-07-07T10:52:50Z</time>
      </trkpt>
      <trkpt lat="43.22581" lon="1.12918">
        <ele>239</ele>
        <time>2022-07-07T10:53:01Z</time>
      </trkpt>
      <trkpt lat="43.2258" lon="1.12911">
        <ele>240</ele>
        <time>2022-07-07T10:53:07Z</time>
      </trkpt>
      <trkpt lat="43.22581" lon="1.12902">
        <ele>240</ele>
        <time>2022-07-07T10:53:15Z</time>
      </trkpt>
      <trkpt lat="43.22582" lon="1.12896">
        <ele>240</ele>
        <time>2022-07-07T10:53:19Z</time>
      </trkpt>
      <trkpt lat="43.22585" lon="1.12884">
        <ele>240</ele>
        <time>2022-07-07T10:53:27Z</time>
      </trkpt>
      <trkpt lat="43.22586" lon="1.12879">
        <ele>241</ele>
        <time>2022-07-07T10:53:31Z</time>
      </trkpt>
      <trkpt lat="43.22588" lon="1.12874">
        <ele>241</ele>
        <time>2022-07-07T10:53:35Z</time>
      </trkpt>
      <trkpt lat="43.2259" lon="1.12862">
        <ele>241</ele>
        <time>2022-07-07T10:53:43Z</time>
      </trkpt>
      <trkpt lat="43.22596" lon="1.12842">
        <ele>240</ele>
        <time>2022-07-07T10:53:58Z</time>
      </trkpt>
      <trkpt lat="43.22597" lon="1.12835">
        <ele>240</ele>
        <time>2022-07-07T10:54:03Z</time>
      </trkpt>
      <trkpt lat="43.22598" lon="1.1283">
        <ele>240</ele>
        <time>2022-07-07T10:54:07Z</time>
      </trkpt>
      <trkpt lat="43.22599" lon="1.12824">
        <ele>240</ele>
        <time>2022-07-07T10:54:11Z</time>
      </trkpt>
      <trkpt lat="43.22602" lon="1.1282">
        <ele>240</ele>
        <time>2022-07-07T10:54:15Z</time>
      </trkpt>
      <trkpt lat="43.22602" lon="1.12812">
        <ele>240</ele>
        <time>2022-07-07T10:54:27Z</time>
      </trkpt>
      <trkpt lat="43.22604" lon="1.12806">
        <ele>240</ele>
        <time>2022-07-07T10:54:32Z</time>
      </trkpt>
      <trkpt lat="43.22604" lon="1.128">
        <ele>239</ele>
        <time>2022-07-07T10:54:36Z</time>
      </trkpt>
      <trkpt lat="43.22607" lon="1.12793">
        <ele>239</ele>
        <time>2022-07-07T10:54:41Z</time>
      </trkpt>
      <trkpt lat="43.22607" lon="1.12786">
        <ele>239</ele>
        <time>2022-07-07T10:54:46Z</time>
      </trkpt>
      <trkpt lat="43.22606" lon="1.1278">
        <ele>237</ele>
        <time>2022-07-07T10:58:59Z</time>
      </trkpt>
      <trkpt lat="43.2261" lon="1.12782">
        <ele>234</ele>
        <time>2022-07-07T11:04:31Z</time>
      </trkpt>
      <trkpt lat="43.22609" lon="1.12794">
        <ele>234</ele>
        <time>2022-07-07T11:05:30Z</time>
      </trkpt>
      <trkpt lat="43.22609" lon="1.128">
        <ele>233</ele>
        <time>2022-07-07T11:05:34Z</time>
      </trkpt>
      <trkpt lat="43.22605" lon="1.12811">
        <ele>233</ele>
        <time>2022-07-07T11:05:42Z</time>
      </trkpt>
      <trkpt lat="43.22603" lon="1.12816">
        <ele>233</ele>
        <time>2022-07-07T11:05:46Z</time>
      </trkpt>
      <trkpt lat="43.22598" lon="1.12817">
        <ele>233</ele>
        <time>2022-07-07T11:05:49Z</time>
      </trkpt>
      <trkpt lat="43.22594" lon="1.12814">
        <ele>234</ele>
        <time>2022-07-07T11:05:53Z</time>
      </trkpt>
      <trkpt lat="43.22567" lon="1.12779">
        <ele>235</ele>
        <time>2022-07-07T11:06:25Z</time>
      </trkpt>
      <trkpt lat="43.22541" lon="1.12743">
        <ele>235</ele>
        <time>2022-07-07T11:06:58Z</time>
      </trkpt>
      <trkpt lat="43.22516" lon="1.12709">
        <ele>235</ele>
        <time>2022-07-07T11:07:29Z</time>
      </trkpt>
      <trkpt lat="43.22513" lon="1.12706">
        <ele>235</ele>
        <time>2022-07-07T11:07:33Z</time>
      </trkpt>
      <trkpt lat="43.22509" lon="1.12702">
        <ele>236</ele>
        <time>2022-07-07T11:07:37Z</time>
      </trkpt>
      <trkpt lat="43.22506" lon="1.12698">
        <ele>235</ele>
        <time>2022-07-07T11:07:41Z</time>
      </trkpt>
      <trkpt lat="43.22503" lon="1.12694">
        <ele>236</ele>
        <time>2022-07-07T11:07:45Z</time>
      </trkpt>
      <trkpt lat="43.225" lon="1.1269">
        <ele>236</ele>
        <time>2022-07-07T11:07:48Z</time>
      </trkpt>
      <trkpt lat="43.22485" lon="1.12669">
        <ele>236</ele>
        <time>2022-07-07T11:08:07Z</time>
      </trkpt>
      <trkpt lat="43.22482" lon="1.12666">
        <ele>236</ele>
        <time>2022-07-07T11:08:10Z</time>
      </trkpt>
      <trkpt lat="43.22479" lon="1.12663">
        <ele>236</ele>
        <time>2022-07-07T11:08:13Z</time>
      </trkpt>
      <trkpt lat="43.22472" lon="1.12652">
        <ele>236</ele>
        <time>2022-07-07T11:08:22Z</time>
      </trkpt>
      <trkpt lat="43.22446" lon="1.12617">
        <ele>236</ele>
        <time>2022-07-07T11:08:56Z</time>
      </trkpt>
      <trkpt lat="43.2242" lon="1.12582">
        <ele>236</ele>
        <time>2022-07-07T11:09:29Z</time>
      </trkpt>
      <trkpt lat="43.22393" lon="1.12548">
        <ele>236</ele>
        <time>2022-07-07T11:10:01Z</time>
      </trkpt>
      <trkpt lat="43.2239" lon="1.12543">
        <ele>236</ele>
        <time>2022-07-07T11:10:05Z</time>
      </trkpt>
      <trkpt lat="43.2237" lon="1.12516">
        <ele>236</ele>
        <time>2022-07-07T11:10:29Z</time>
      </trkpt>
      <trkpt lat="43.22347" lon="1.12488">
        <ele>236</ele>
        <time>2022-07-07T11:10:55Z</time>
      </trkpt>
      <trkpt lat="43.22341" lon="1.1248">
        <ele>237</ele>
        <time>2022-07-07T11:11:03Z</time>
      </trkpt>
      <trkpt lat="43.22338" lon="1.12477">
        <ele>237</ele>
        <time>2022-07-07T11:11:06Z</time>
      </trkpt>
      <trkpt lat="43.22332" lon="1.12469">
        <ele>237</ele>
        <time>2022-07-07T11:11:13Z</time>
      </trkpt>
      <trkpt lat="43.22317" lon="1.12447">
        <ele>237</ele>
        <time>2022-07-07T11:11:33Z</time>
      </trkpt>
      <trkpt lat="43.22311" lon="1.1244">
        <ele>237</ele>
        <time>2022-07-07T11:11:39Z</time>
      </trkpt>
      <trkpt lat="43.22309" lon="1.12436">
        <ele>237</ele>
        <time>2022-07-07T11:11:42Z</time>
      </trkpt>
      <trkpt lat="43.22305" lon="1.12432">
        <ele>237</ele>
        <time>2022-07-07T11:11:46Z</time>
      </trkpt>
      <trkpt lat="43.22296" lon="1.12421">
        <ele>237</ele>
        <time>2022-07-07T11:11:56Z</time>
      </trkpt>
      <trkpt lat="43.22293" lon="1.12417">
        <ele>237</ele>
        <time>2022-07-07T11:12:00Z</time>
      </trkpt>
      <trkpt lat="43.22282" lon="1.124">
        <ele>237</ele>
        <time>2022-07-07T11:12:15Z</time>
      </trkpt>
      <trkpt lat="43.22278" lon="1.12396">
        <ele>237</ele>
        <time>2022-07-07T11:12:19Z</time>
      </trkpt>
      <trkpt lat="43.22254" lon="1.12363">
        <ele>238</ele>
        <time>2022-07-07T11:12:47Z</time>
      </trkpt>
      <trkpt lat="43.2225" lon="1.12361">
        <ele>238</ele>
        <time>2022-07-07T11:12:50Z</time>
      </trkpt>
      <trkpt lat="43.22241" lon="1.12347">
        <ele>238</ele>
        <time>2022-07-07T11:13:02Z</time>
      </trkpt>
      <trkpt lat="43.22234" lon="1.12339">
        <ele>238</ele>
        <time>2022-07-07T11:13:10Z</time>
      </trkpt>
      <trkpt lat="43.22227" lon="1.12331">
        <ele>238</ele>
        <time>2022-07-07T11:13:17Z</time>
      </trkpt>
      <trkpt lat="43.22224" lon="1.12326">
        <ele>238</ele>
        <time>2022-07-07T11:13:21Z</time>
      </trkpt>
      <trkpt lat="43.22221" lon="1.12322">
        <ele>238</ele>
        <time>2022-07-07T11:13:25Z</time>
      </trkpt>
      <trkpt lat="43.22215" lon="1.12313">
        <ele>237</ele>
        <time>2022-07-07T11:13:33Z</time>
      </trkpt>
      <trkpt lat="43.22208" lon="1.12304">
        <ele>238</ele>
        <time>2022-07-07T11:13:42Z</time>
      </trkpt>
      <trkpt lat="43.22205" lon="1.123">
        <ele>238</ele>
        <time>2022-07-07T11:13:45Z</time>
      </trkpt>
      <trkpt lat="43.22195" lon="1.12287">
        <ele>238</ele>
        <time>2022-07-07T11:13:57Z</time>
      </trkpt>
      <trkpt lat="43.22174" lon="1.12261">
        <ele>238</ele>
        <time>2022-07-07T11:14:21Z</time>
      </trkpt>
      <trkpt lat="43.22163" lon="1.12242">
        <ele>238</ele>
        <time>2022-07-07T11:14:36Z</time>
      </trkpt>
      <trkpt lat="43.22155" lon="1.12232">
        <ele>238</ele>
        <time>2022-07-07T11:14:45Z</time>
      </trkpt>
      <trkpt lat="43.22151" lon="1.12229">
        <ele>238</ele>
        <time>2022-07-07T11:14:48Z</time>
      </trkpt>
      <trkpt lat="43.22149" lon="1.12225">
        <ele>238</ele>
        <time>2022-07-07T11:14:52Z</time>
      </trkpt>
      <trkpt lat="43.22147" lon="1.12221">
        <ele>238</ele>
        <time>2022-07-07T11:14:55Z</time>
      </trkpt>
      <trkpt lat="43.22144" lon="1.12217">
        <ele>238</ele>
        <time>2022-07-07T11:14:59Z</time>
      </trkpt>
      <trkpt lat="43.22133" lon="1.12207">
        <ele>238</ele>
        <time>2022-07-07T11:15:09Z</time>
      </trkpt>
      <trkpt lat="43.2213" lon="1.12203">
        <ele>238</ele>
        <time>2022-07-07T11:15:13Z</time>
      </trkpt>
      <trkpt lat="43.22128" lon="1.12198">
        <ele>238</ele>
        <time>2022-07-07T11:15:17Z</time>
      </trkpt>
      <trkpt lat="43.221" lon="1.12162">
        <ele>238</ele>
        <time>2022-07-07T11:15:51Z</time>
      </trkpt>
      <trkpt lat="43.22094" lon="1.12152">
        <ele>239</ele>
        <time>2022-07-07T11:15:59Z</time>
      </trkpt>
      <trkpt lat="43.22091" lon="1.12149">
        <ele>239</ele>
        <time>2022-07-07T11:16:03Z</time>
      </trkpt>
      <trkpt lat="43.22082" lon="1.12145">
        <ele>239</ele>
        <time>2022-07-07T11:16:11Z</time>
      </trkpt>
      <trkpt lat="43.22068" lon="1.1212">
        <ele>240</ele>
        <time>2022-07-07T11:16:32Z</time>
      </trkpt>
      <trkpt lat="43.22061" lon="1.12112">
        <ele>239</ele>
        <time>2022-07-07T11:16:39Z</time>
      </trkpt>
      <trkpt lat="43.22034" lon="1.12075">
        <ele>239</ele>
        <time>2022-07-07T11:17:12Z</time>
      </trkpt>
      <trkpt lat="43.22006" lon="1.12041">
        <ele>239</ele>
        <time>2022-07-07T11:17:43Z</time>
      </trkpt>
      <trkpt lat="43.2198" lon="1.12005">
        <ele>239</ele>
        <time>2022-07-07T11:18:15Z</time>
      </trkpt>
      <trkpt lat="43.21976" lon="1.12">
        <ele>239</ele>
        <time>2022-07-07T11:18:19Z</time>
      </trkpt>
      <trkpt lat="43.2197" lon="1.11994">
        <ele>239</ele>
        <time>2022-07-07T11:18:26Z</time>
      </trkpt>
      <trkpt lat="43.21965" lon="1.11985">
        <ele>239</ele>
        <time>2022-07-07T11:18:33Z</time>
      </trkpt>
      <trkpt lat="43.21952" lon="1.1197">
        <ele>239</ele>
        <time>2022-07-07T11:18:47Z</time>
      </trkpt>
      <trkpt lat="43.2194" lon="1.11952">
        <ele>240</ele>
        <time>2022-07-07T11:19:03Z</time>
      </trkpt>
      <trkpt lat="43.21932" lon="1.11944">
        <ele>240</ele>
        <time>2022-07-07T11:19:11Z</time>
      </trkpt>
      <trkpt lat="43.21925" lon="1.11931">
        <ele>240</ele>
        <time>2022-07-07T11:19:21Z</time>
      </trkpt>
      <trkpt lat="43.21921" lon="1.11927">
        <ele>240</ele>
        <time>2022-07-07T11:19:25Z</time>
      </trkpt>
      <trkpt lat="43.21917" lon="1.11924">
        <ele>240</ele>
        <time>2022-07-07T11:19:29Z</time>
      </trkpt>
      <trkpt lat="43.21903" lon="1.11907">
        <ele>241</ele>
        <time>2022-07-07T11:19:44Z</time>
      </trkpt>
      <trkpt lat="43.219" lon="1.11902">
        <ele>241</ele>
        <time>2022-07-07T11:19:48Z</time>
      </trkpt>
      <trkpt lat="43.21894" lon="1.11893">
        <ele>240</ele>
        <time>2022-07-07T11:19:56Z</time>
      </trkpt>
      <trkpt lat="43.21881" lon="1.11876">
        <ele>240</ele>
        <time>2022-07-07T11:20:11Z</time>
      </trkpt>
      <trkpt lat="43.21878" lon="1.11872">
        <ele>240</ele>
        <time>2022-07-07T11:20:15Z</time>
      </trkpt>
      <trkpt lat="43.21875" lon="1.11868">
        <ele>240</ele>
        <time>2022-07-07T11:20:18Z</time>
      </trkpt>
      <trkpt lat="43.21864" lon="1.11851">
        <ele>240</ele>
        <time>2022-07-07T11:20:33Z</time>
      </trkpt>
      <trkpt lat="43.21857" lon="1.11843">
        <ele>240</ele>
        <time>2022-07-07T11:20:41Z</time>
      </trkpt>
      <trkpt lat="43.21851" lon="1.11834">
        <ele>240</ele>
        <time>2022-07-07T11:20:48Z</time>
      </trkpt>
      <trkpt lat="43.21847" lon="1.11832">
        <ele>240</ele>
        <time>2022-07-07T11:20:51Z</time>
      </trkpt>
      <trkpt lat="43.21818" lon="1.11792">
        <ele>240</ele>
        <time>2022-07-07T11:21:27Z</time>
      </trkpt>
      <trkpt lat="43.21789" lon="1.11757">
        <ele>240</ele>
        <time>2022-07-07T11:22:00Z</time>
      </trkpt>
      <trkpt lat="43.21786" lon="1.11753">
        <ele>241</ele>
        <time>2022-07-07T11:22:04Z</time>
      </trkpt>
      <trkpt lat="43.21783" lon="1.11749">
        <ele>241</ele>
        <time>2022-07-07T11:22:08Z</time>
      </trkpt>
      <trkpt lat="43.2178" lon="1.11745">
        <ele>241</ele>
        <time>2022-07-07T11:22:11Z</time>
      </trkpt>
      <trkpt lat="43.21768" lon="1.11731">
        <ele>241</ele>
        <time>2022-07-07T11:22:26Z</time>
      </trkpt>
      <trkpt lat="43.21765" lon="1.11727">
        <ele>241</ele>
        <time>2022-07-07T11:22:29Z</time>
      </trkpt>
      <trkpt lat="43.21762" lon="1.11725">
        <ele>241</ele>
        <time>2022-07-07T11:22:32Z</time>
      </trkpt>
      <trkpt lat="43.21758" lon="1.11722">
        <ele>241</ele>
        <time>2022-07-07T11:22:36Z</time>
      </trkpt>
      <trkpt lat="43.21725" lon="1.11694">
        <ele>241</ele>
        <time>2022-07-07T11:23:09Z</time>
      </trkpt>
      <trkpt lat="43.21713" lon="1.11687">
        <ele>242</ele>
        <time>2022-07-07T11:23:20Z</time>
      </trkpt>
      <trkpt lat="43.21708" lon="1.11685">
        <ele>241</ele>
        <time>2022-07-07T11:23:24Z</time>
      </trkpt>
      <trkpt lat="43.21701" lon="1.11678">
        <ele>241</ele>
        <time>2022-07-07T11:23:32Z</time>
      </trkpt>
      <trkpt lat="43.21693" lon="1.11673">
        <ele>242</ele>
        <time>2022-07-07T11:23:40Z</time>
      </trkpt>
      <trkpt lat="43.21678" lon="1.11664">
        <ele>242</ele>
        <time>2022-07-07T11:23:54Z</time>
      </trkpt>
      <trkpt lat="43.21667" lon="1.1166">
        <ele>242</ele>
        <time>2022-07-07T11:24:04Z</time>
      </trkpt>
      <trkpt lat="43.21659" lon="1.11655">
        <ele>242</ele>
        <time>2022-07-07T11:24:11Z</time>
      </trkpt>
      <trkpt lat="43.2165" lon="1.11653">
        <ele>242</ele>
        <time>2022-07-07T11:24:18Z</time>
      </trkpt>
      <trkpt lat="43.21622" lon="1.11642">
        <ele>242</ele>
        <time>2022-07-07T11:24:44Z</time>
      </trkpt>
      <trkpt lat="43.21611" lon="1.11641">
        <ele>242</ele>
        <time>2022-07-07T11:24:54Z</time>
      </trkpt>
      <trkpt lat="43.21602" lon="1.11636">
        <ele>241</ele>
        <time>2022-07-07T11:25:03Z</time>
      </trkpt>
      <trkpt lat="43.21596" lon="1.11637">
        <ele>242</ele>
        <time>2022-07-07T11:25:20Z</time>
      </trkpt>
      <trkpt lat="43.21586" lon="1.11637">
        <ele>241</ele>
        <time>2022-07-07T11:25:29Z</time>
      </trkpt>
      <trkpt lat="43.21546" lon="1.1162">
        <ele>241</ele>
        <time>2022-07-07T11:26:03Z</time>
      </trkpt>
      <trkpt lat="43.21514" lon="1.11593">
        <ele>241</ele>
        <time>2022-07-07T11:26:35Z</time>
      </trkpt>
      <trkpt lat="43.21505" lon="1.11587">
        <ele>241</ele>
        <time>2022-07-07T11:26:43Z</time>
      </trkpt>
      <trkpt lat="43.21491" lon="1.11574">
        <ele>241</ele>
        <time>2022-07-07T11:26:58Z</time>
      </trkpt>
      <trkpt lat="43.21478" lon="1.11565">
        <ele>240</ele>
        <time>2022-07-07T11:27:10Z</time>
      </trkpt>
      <trkpt lat="43.2146" lon="1.11548">
        <ele>240</ele>
        <time>2022-07-07T11:27:29Z</time>
      </trkpt>
      <trkpt lat="43.21443" lon="1.11538">
        <ele>240</ele>
        <time>2022-07-07T11:27:46Z</time>
      </trkpt>
      <trkpt lat="43.21425" lon="1.11523">
        <ele>240</ele>
        <time>2022-07-07T11:28:02Z</time>
      </trkpt>
      <trkpt lat="43.21421" lon="1.11521">
        <ele>240</ele>
        <time>2022-07-07T11:28:06Z</time>
      </trkpt>
      <trkpt lat="43.21417" lon="1.11517">
        <ele>240</ele>
        <time>2022-07-07T11:28:10Z</time>
      </trkpt>
      <trkpt lat="43.21404" lon="1.11507">
        <ele>240</ele>
        <time>2022-07-07T11:28:24Z</time>
      </trkpt>
      <trkpt lat="43.214" lon="1.11502">
        <ele>240</ele>
        <time>2022-07-07T11:28:29Z</time>
      </trkpt>
      <trkpt lat="43.21372" lon="1.11479">
        <ele>240</ele>
        <time>2022-07-07T11:28:56Z</time>
      </trkpt>
      <trkpt lat="43.21365" lon="1.11472">
        <ele>240</ele>
        <time>2022-07-07T11:29:03Z</time>
      </trkpt>
      <trkpt lat="43.21361" lon="1.11468">
        <ele>239</ele>
        <time>2022-07-07T11:29:07Z</time>
      </trkpt>
      <trkpt lat="43.21352" lon="1.11462">
        <ele>239</ele>
        <time>2022-07-07T11:29:16Z</time>
      </trkpt>
      <trkpt lat="43.21349" lon="1.11458">
        <ele>240</ele>
        <time>2022-07-07T11:29:21Z</time>
      </trkpt>
      <trkpt lat="43.21342" lon="1.11451">
        <ele>239</ele>
        <time>2022-07-07T11:29:28Z</time>
      </trkpt>
      <trkpt lat="43.21339" lon="1.11447">
        <ele>239</ele>
        <time>2022-07-07T11:29:31Z</time>
      </trkpt>
      <trkpt lat="43.21335" lon="1.11444">
        <ele>239</ele>
        <time>2022-07-07T11:29:34Z</time>
      </trkpt>
      <trkpt lat="43.21331" lon="1.11439">
        <ele>240</ele>
        <time>2022-07-07T11:29:39Z</time>
      </trkpt>
      <trkpt lat="43.2132" lon="1.11422">
        <ele>239</ele>
        <time>2022-07-07T11:29:54Z</time>
      </trkpt>
      <trkpt lat="43.21319" lon="1.11415">
        <ele>239</ele>
        <time>2022-07-07T11:29:58Z</time>
      </trkpt>
      <trkpt lat="43.2131" lon="1.11398">
        <ele>240</ele>
        <time>2022-07-07T11:30:12Z</time>
      </trkpt>
      <trkpt lat="43.213" lon="1.11376">
        <ele>239</ele>
        <time>2022-07-07T11:30:27Z</time>
      </trkpt>
      <trkpt lat="43.21296" lon="1.11361">
        <ele>239</ele>
        <time>2022-07-07T11:30:38Z</time>
      </trkpt>
      <trkpt lat="43.2129" lon="1.11349">
        <ele>240</ele>
        <time>2022-07-07T11:30:48Z</time>
      </trkpt>
      <trkpt lat="43.21287" lon="1.11343">
        <ele>239</ele>
        <time>2022-07-07T11:30:52Z</time>
      </trkpt>
      <trkpt lat="43.21273" lon="1.11297">
        <ele>239</ele>
        <time>2022-07-07T11:31:22Z</time>
      </trkpt>
      <trkpt lat="43.21267" lon="1.11286">
        <ele>239</ele>
        <time>2022-07-07T11:31:30Z</time>
      </trkpt>
      <trkpt lat="43.21251" lon="1.11235">
        <ele>240</ele>
        <time>2022-07-07T11:32:03Z</time>
      </trkpt>
      <trkpt lat="43.21235" lon="1.11187">
        <ele>240</ele>
        <time>2022-07-07T11:32:36Z</time>
      </trkpt>
      <trkpt lat="43.21218" lon="1.11138">
        <ele>241</ele>
        <time>2022-07-07T11:33:08Z</time>
      </trkpt>
      <trkpt lat="43.21206" lon="1.11103">
        <ele>241</ele>
        <time>2022-07-07T11:33:32Z</time>
      </trkpt>
      <trkpt lat="43.21201" lon="1.11082">
        <ele>241</ele>
        <time>2022-07-07T11:33:45Z</time>
      </trkpt>
      <trkpt lat="43.21194" lon="1.11069">
        <ele>241</ele>
        <time>2022-07-07T11:33:56Z</time>
      </trkpt>
      <trkpt lat="43.2118" lon="1.11022">
        <ele>242</ele>
        <time>2022-07-07T11:34:27Z</time>
      </trkpt>
      <trkpt lat="43.21178" lon="1.11016">
        <ele>242</ele>
        <time>2022-07-07T11:34:32Z</time>
      </trkpt>
      <trkpt lat="43.21177" lon="1.11009">
        <ele>242</ele>
        <time>2022-07-07T11:34:36Z</time>
      </trkpt>
      <trkpt lat="43.21163" lon="1.10962">
        <ele>242</ele>
        <time>2022-07-07T11:35:07Z</time>
      </trkpt>
      <trkpt lat="43.21148" lon="1.1091">
        <ele>242</ele>
        <time>2022-07-07T11:35:42Z</time>
      </trkpt>
      <trkpt lat="43.21146" lon="1.10904">
        <ele>242</ele>
        <time>2022-07-07T11:35:46Z</time>
      </trkpt>
      <trkpt lat="43.21144" lon="1.10898">
        <ele>242</ele>
        <time>2022-07-07T11:35:50Z</time>
      </trkpt>
      <trkpt lat="43.21139" lon="1.10888">
        <ele>242</ele>
        <time>2022-07-07T11:35:57Z</time>
      </trkpt>
      <trkpt lat="43.21125" lon="1.10843">
        <ele>243</ele>
        <time>2022-07-07T11:36:38Z</time>
      </trkpt>
      <trkpt lat="43.2112" lon="1.10824">
        <ele>244</ele>
        <time>2022-07-07T11:36:53Z</time>
      </trkpt>
      <trkpt lat="43.21117" lon="1.10819">
        <ele>244</ele>
        <time>2022-07-07T11:36:57Z</time>
      </trkpt>
      <trkpt lat="43.2111" lon="1.10796">
        <ele>244</ele>
        <time>2022-07-07T11:37:12Z</time>
      </trkpt>
      <trkpt lat="43.21109" lon="1.1079">
        <ele>245</ele>
        <time>2022-07-07T11:37:16Z</time>
      </trkpt>
      <trkpt lat="43.21103" lon="1.10772">
        <ele>245</ele>
        <time>2022-07-07T11:37:29Z</time>
      </trkpt>
      <trkpt lat="43.21101" lon="1.10765">
        <ele>246</ele>
        <time>2022-07-07T11:37:33Z</time>
      </trkpt>
      <trkpt lat="43.21097" lon="1.10754">
        <ele>246</ele>
        <time>2022-07-07T11:37:42Z</time>
      </trkpt>
      <trkpt lat="43.21093" lon="1.1074">
        <ele>246</ele>
        <time>2022-07-07T11:37:52Z</time>
      </trkpt>
      <trkpt lat="43.21092" lon="1.10734">
        <ele>246</ele>
        <time>2022-07-07T11:37:56Z</time>
      </trkpt>
      <trkpt lat="43.21087" lon="1.10716">
        <ele>246</ele>
        <time>2022-07-07T11:38:08Z</time>
      </trkpt>
      <trkpt lat="43.2108" lon="1.107">
        <ele>246</ele>
        <time>2022-07-07T11:38:19Z</time>
      </trkpt>
      <trkpt lat="43.21078" lon="1.10695">
        <ele>245</ele>
        <time>2022-07-07T11:38:23Z</time>
      </trkpt>
      <trkpt lat="43.21073" lon="1.10683">
        <ele>245</ele>
        <time>2022-07-07T11:38:31Z</time>
      </trkpt>
      <trkpt lat="43.21067" lon="1.10663">
        <ele>246</ele>
        <time>2022-07-07T11:38:46Z</time>
      </trkpt>
      <trkpt lat="43.21051" lon="1.10618">
        <ele>245</ele>
        <time>2022-07-07T11:39:18Z</time>
      </trkpt>
      <trkpt lat="43.21048" lon="1.10612">
        <ele>245</ele>
        <time>2022-07-07T11:39:22Z</time>
      </trkpt>
      <trkpt lat="43.21041" lon="1.10583">
        <ele>244</ele>
        <time>2022-07-07T11:39:42Z</time>
      </trkpt>
      <trkpt lat="43.21022" lon="1.10538">
        <ele>244</ele>
        <time>2022-07-07T11:40:14Z</time>
      </trkpt>
      <trkpt lat="43.21016" lon="1.1052">
        <ele>244</ele>
        <time>2022-07-07T11:40:27Z</time>
      </trkpt>
      <trkpt lat="43.21002" lon="1.10489">
        <ele>244</ele>
        <time>2022-07-07T11:40:50Z</time>
      </trkpt>
      <trkpt lat="43.20986" lon="1.10441">
        <ele>244</ele>
        <time>2022-07-07T11:41:22Z</time>
      </trkpt>
      <trkpt lat="43.20976" lon="1.10411">
        <ele>244</ele>
        <time>2022-07-07T11:41:42Z</time>
      </trkpt>
      <trkpt lat="43.20972" lon="1.10392">
        <ele>244</ele>
        <time>2022-07-07T11:41:55Z</time>
      </trkpt>
      <trkpt lat="43.20972" lon="1.10385">
        <ele>244</ele>
        <time>2022-07-07T11:41:59Z</time>
      </trkpt>
      <trkpt lat="43.20971" lon="1.10379">
        <ele>244</ele>
        <time>2022-07-07T11:42:03Z</time>
      </trkpt>
      <trkpt lat="43.2097" lon="1.10372">
        <ele>244</ele>
        <time>2022-07-07T11:42:07Z</time>
      </trkpt>
      <trkpt lat="43.2097" lon="1.10359">
        <ele>244</ele>
        <time>2022-07-07T11:42:16Z</time>
      </trkpt>
      <trkpt lat="43.20969" lon="1.10353">
        <ele>244</ele>
        <time>2022-07-07T11:42:21Z</time>
      </trkpt>
      <trkpt lat="43.20966" lon="1.10339">
        <ele>244</ele>
        <time>2022-07-07T11:42:31Z</time>
      </trkpt>
      <trkpt lat="43.20966" lon="1.10333">
        <ele>244</ele>
        <time>2022-07-07T11:42:35Z</time>
      </trkpt>
      <trkpt lat="43.20968" lon="1.10328">
        <ele>244</ele>
        <time>2022-07-07T11:42:44Z</time>
      </trkpt>
      <trkpt lat="43.20966" lon="1.10324">
        <ele>243</ele>
        <time>2022-07-07T11:43:48Z</time>
      </trkpt>
      <trkpt lat="43.20961" lon="1.10297">
        <ele>243</ele>
        <time>2022-07-07T11:44:07Z</time>
      </trkpt>
      <trkpt lat="43.2096" lon="1.10285">
        <ele>243</ele>
        <time>2022-07-07T11:44:15Z</time>
      </trkpt>
      <trkpt lat="43.2096" lon="1.10278">
        <ele>243</ele>
        <time>2022-07-07T11:44:19Z</time>
      </trkpt>
      <trkpt lat="43.20957" lon="1.10251">
        <ele>244</ele>
        <time>2022-07-07T11:44:36Z</time>
      </trkpt>
      <trkpt lat="43.20957" lon="1.10246">
        <ele>244</ele>
        <time>2022-07-07T11:44:40Z</time>
      </trkpt>
      <trkpt lat="43.20955" lon="1.10229">
        <ele>244</ele>
        <time>2022-07-07T11:44:51Z</time>
      </trkpt>
      <trkpt lat="43.20955" lon="1.1022">
        <ele>244</ele>
        <time>2022-07-07T11:44:57Z</time>
      </trkpt>
      <trkpt lat="43.20953" lon="1.10204">
        <ele>244</ele>
        <time>2022-07-07T11:45:09Z</time>
      </trkpt>
      <trkpt lat="43.2095" lon="1.10177">
        <ele>245</ele>
        <time>2022-07-07T11:45:25Z</time>
      </trkpt>
      <trkpt lat="43.20951" lon="1.10171">
        <ele>245</ele>
        <time>2022-07-07T11:45:29Z</time>
      </trkpt>
      <trkpt lat="43.20947" lon="1.10123">
        <ele>245</ele>
        <time>2022-07-07T11:46:02Z</time>
      </trkpt>
      <trkpt lat="43.20946" lon="1.10109">
        <ele>245</ele>
        <time>2022-07-07T11:46:10Z</time>
      </trkpt>
      <trkpt lat="43.20948" lon="1.10103">
        <ele>246</ele>
        <time>2022-07-07T11:46:13Z</time>
      </trkpt>
      <trkpt lat="43.20949" lon="1.10097">
        <ele>246</ele>
        <time>2022-07-07T11:46:18Z</time>
      </trkpt>
      <trkpt lat="43.20948" lon="1.10091">
        <ele>246</ele>
        <time>2022-07-07T11:46:22Z</time>
      </trkpt>
      <trkpt lat="43.2095" lon="1.10078">
        <ele>246</ele>
        <time>2022-07-07T11:46:29Z</time>
      </trkpt>
      <trkpt lat="43.2095" lon="1.10071">
        <ele>247</ele>
        <time>2022-07-07T11:46:33Z</time>
      </trkpt>
      <trkpt lat="43.2095" lon="1.10059">
        <ele>246</ele>
        <time>2022-07-07T11:46:40Z</time>
      </trkpt>
      <trkpt lat="43.20949" lon="1.10053">
        <ele>247</ele>
        <time>2022-07-07T11:46:44Z</time>
      </trkpt>
      <trkpt lat="43.20951" lon="1.10027">
        <ele>247</ele>
        <time>2022-07-07T11:47:00Z</time>
      </trkpt>
      <trkpt lat="43.20957" lon="1.10005">
        <ele>247</ele>
        <time>2022-07-07T11:47:14Z</time>
      </trkpt>
      <trkpt lat="43.20957" lon="1.09979">
        <ele>248</ele>
        <time>2022-07-07T11:47:30Z</time>
      </trkpt>
      <trkpt lat="43.20956" lon="1.09973">
        <ele>248</ele>
        <time>2022-07-07T11:47:35Z</time>
      </trkpt>
      <trkpt lat="43.20959" lon="1.09954">
        <ele>248</ele>
        <time>2022-07-07T11:47:46Z</time>
      </trkpt>
      <trkpt lat="43.20967" lon="1.09931">
        <ele>248</ele>
        <time>2022-07-07T11:48:02Z</time>
      </trkpt>
      <trkpt lat="43.2097" lon="1.09913">
        <ele>248</ele>
        <time>2022-07-07T11:48:12Z</time>
      </trkpt>
      <trkpt lat="43.20979" lon="1.09885">
        <ele>249</ele>
        <time>2022-07-07T11:48:34Z</time>
      </trkpt>
      <trkpt lat="43.20989" lon="1.09836">
        <ele>249</ele>
        <time>2022-07-07T11:49:05Z</time>
      </trkpt>
      <trkpt lat="43.2099" lon="1.09817">
        <ele>249</ele>
        <time>2022-07-07T11:49:16Z</time>
      </trkpt>
      <trkpt lat="43.20988" lon="1.09784">
        <ele>249</ele>
        <time>2022-07-07T11:49:35Z</time>
      </trkpt>
      <trkpt lat="43.20982" lon="1.09738">
        <ele>249</ele>
        <time>2022-07-07T11:50:06Z</time>
      </trkpt>
      <trkpt lat="43.20982" lon="1.09731">
        <ele>249</ele>
        <time>2022-07-07T11:50:10Z</time>
      </trkpt>
      <trkpt lat="43.20981" lon="1.09725">
        <ele>249</ele>
        <time>2022-07-07T11:50:14Z</time>
      </trkpt>
      <trkpt lat="43.2098" lon="1.09712">
        <ele>249</ele>
        <time>2022-07-07T11:50:22Z</time>
      </trkpt>
      <trkpt lat="43.2098" lon="1.09706">
        <ele>249</ele>
        <time>2022-07-07T11:50:25Z</time>
      </trkpt>
      <trkpt lat="43.20979" lon="1.097">
        <ele>249</ele>
        <time>2022-07-07T11:50:29Z</time>
      </trkpt>
      <trkpt lat="43.20979" lon="1.09687">
        <ele>249</ele>
        <time>2022-07-07T11:50:37Z</time>
      </trkpt>
      <trkpt lat="43.20978" lon="1.09665">
        <ele>249</ele>
        <time>2022-07-07T11:50:52Z</time>
      </trkpt>
      <trkpt lat="43.20978" lon="1.09659">
        <ele>248</ele>
        <time>2022-07-07T11:50:55Z</time>
      </trkpt>
      <trkpt lat="43.20977" lon="1.09647">
        <ele>248</ele>
        <time>2022-07-07T11:51:03Z</time>
      </trkpt>
      <trkpt lat="43.20977" lon="1.09641">
        <ele>248</ele>
        <time>2022-07-07T11:51:07Z</time>
      </trkpt>
      <trkpt lat="43.20977" lon="1.09634">
        <ele>248</ele>
        <time>2022-07-07T11:51:11Z</time>
      </trkpt>
      <trkpt lat="43.20979" lon="1.09622">
        <ele>248</ele>
        <time>2022-07-07T11:51:18Z</time>
      </trkpt>
      <trkpt lat="43.20978" lon="1.09604">
        <ele>248</ele>
        <time>2022-07-07T11:51:29Z</time>
      </trkpt>
      <trkpt lat="43.20981" lon="1.09585">
        <ele>248</ele>
        <time>2022-07-07T11:51:41Z</time>
      </trkpt>
      <trkpt lat="43.2099" lon="1.09563">
        <ele>248</ele>
        <time>2022-07-07T11:51:57Z</time>
      </trkpt>
      <trkpt lat="43.20989" lon="1.09551">
        <ele>248</ele>
        <time>2022-07-07T11:52:06Z</time>
      </trkpt>
      <trkpt lat="43.2099" lon="1.09544">
        <ele>249</ele>
        <time>2022-07-07T11:52:10Z</time>
      </trkpt>
      <trkpt lat="43.20992" lon="1.09537">
        <ele>248</ele>
        <time>2022-07-07T11:52:15Z</time>
      </trkpt>
      <trkpt lat="43.20993" lon="1.09532">
        <ele>248</ele>
        <time>2022-07-07T11:52:19Z</time>
      </trkpt>
      <trkpt lat="43.20993" lon="1.09518">
        <ele>249</ele>
        <time>2022-07-07T11:52:27Z</time>
      </trkpt>
      <trkpt lat="43.20995" lon="1.09512">
        <ele>249</ele>
        <time>2022-07-07T11:52:29Z</time>
      </trkpt>
      <trkpt lat="43.20996" lon="1.09498">
        <ele>248</ele>
        <time>2022-07-07T11:52:38Z</time>
      </trkpt>
      <trkpt lat="43.20996" lon="1.09491">
        <ele>248</ele>
        <time>2022-07-07T11:52:43Z</time>
      </trkpt>
      <trkpt lat="43.20997" lon="1.09479">
        <ele>248</ele>
        <time>2022-07-07T11:52:50Z</time>
      </trkpt>
      <trkpt lat="43.21" lon="1.09473">
        <ele>248</ele>
        <time>2022-07-07T11:52:54Z</time>
      </trkpt>
      <trkpt lat="43.21002" lon="1.09463">
        <ele>249</ele>
        <time>2022-07-07T11:53:00Z</time>
      </trkpt>
      <trkpt lat="43.21005" lon="1.09456">
        <ele>248</ele>
        <time>2022-07-07T11:53:06Z</time>
      </trkpt>
      <trkpt lat="43.21006" lon="1.0945">
        <ele>248</ele>
        <time>2022-07-07T11:53:10Z</time>
      </trkpt>
      <trkpt lat="43.21005" lon="1.09424">
        <ele>248</ele>
        <time>2022-07-07T11:53:27Z</time>
      </trkpt>
      <trkpt lat="43.21004" lon="1.09417">
        <ele>248</ele>
        <time>2022-07-07T11:53:31Z</time>
      </trkpt>
      <trkpt lat="43.21005" lon="1.09411">
        <ele>248</ele>
        <time>2022-07-07T11:53:35Z</time>
      </trkpt>
      <trkpt lat="43.21002" lon="1.09392">
        <ele>248</ele>
        <time>2022-07-07T11:53:48Z</time>
      </trkpt>
      <trkpt lat="43.21001" lon="1.09386">
        <ele>248</ele>
        <time>2022-07-07T11:53:52Z</time>
      </trkpt>
      <trkpt lat="43.20995" lon="1.09362">
        <ele>248</ele>
        <time>2022-07-07T11:54:08Z</time>
      </trkpt>
      <trkpt lat="43.20993" lon="1.09356">
        <ele>248</ele>
        <time>2022-07-07T11:54:12Z</time>
      </trkpt>
      <trkpt lat="43.20988" lon="1.09332">
        <ele>248</ele>
        <time>2022-07-07T11:54:30Z</time>
      </trkpt>
      <trkpt lat="43.20986" lon="1.09326">
        <ele>248</ele>
        <time>2022-07-07T11:54:34Z</time>
      </trkpt>
      <trkpt lat="43.20983" lon="1.0932">
        <ele>248</ele>
        <time>2022-07-07T11:54:38Z</time>
      </trkpt>
      <trkpt lat="43.20982" lon="1.09315">
        <ele>248</ele>
        <time>2022-07-07T11:54:42Z</time>
      </trkpt>
      <trkpt lat="43.2098" lon="1.09308">
        <ele>248</ele>
        <time>2022-07-07T11:54:47Z</time>
      </trkpt>
      <trkpt lat="43.20968" lon="1.0929">
        <ele>248</ele>
        <time>2022-07-07T11:55:06Z</time>
      </trkpt>
      <trkpt lat="43.20964" lon="1.09284">
        <ele>248</ele>
        <time>2022-07-07T11:55:13Z</time>
      </trkpt>
      <trkpt lat="43.20962" lon="1.09278">
        <ele>248</ele>
        <time>2022-07-07T11:55:17Z</time>
      </trkpt>
      <trkpt lat="43.2096" lon="1.09272">
        <ele>248</ele>
        <time>2022-07-07T11:55:22Z</time>
      </trkpt>
      <trkpt lat="43.20959" lon="1.09265">
        <ele>248</ele>
        <time>2022-07-07T11:55:27Z</time>
      </trkpt>
      <trkpt lat="43.20953" lon="1.09258">
        <ele>247</ele>
        <time>2022-07-07T11:55:37Z</time>
      </trkpt>
      <trkpt lat="43.20951" lon="1.09251">
        <ele>246</ele>
        <time>2022-07-07T11:55:42Z</time>
      </trkpt>
      <trkpt lat="43.2096" lon="1.09256">
        <ele>245</ele>
        <time>2022-07-07T11:59:28Z</time>
      </trkpt>
      <trkpt lat="43.20963" lon="1.0926">
        <ele>245</ele>
        <time>2022-07-07T11:59:48Z</time>
      </trkpt>
      <trkpt lat="43.20969" lon="1.09265">
        <ele>245</ele>
        <time>2022-07-07T12:00:10Z</time>
      </trkpt>
      <trkpt lat="43.20973" lon="1.09259">
        <ele>245</ele>
        <time>2022-07-07T12:00:40Z</time>
      </trkpt>
      <trkpt lat="43.20973" lon="1.09264">
        <ele>245</ele>
        <time>2022-07-07T12:02:04Z</time>
      </trkpt>
      <trkpt lat="43.20972" lon="1.09265">
        <ele>246</ele>
        <time>2022-07-07T12:04:25Z</time>
      </trkpt>
      <trkpt lat="43.20956" lon="1.09254">
        <ele>246</ele>
        <time>2022-07-07T12:04:33Z</time>
      </trkpt>
      <trkpt lat="43.20955" lon="1.09249">
        <ele>246</ele>
        <time>2022-07-07T12:04:38Z</time>
      </trkpt>
      <trkpt lat="43.20953" lon="1.09239">
        <ele>248</ele>
        <time>2022-07-07T12:04:49Z</time>
      </trkpt>
      <trkpt lat="43.20949" lon="1.0923">
        <ele>247</ele>
        <time>2022-07-07T12:04:55Z</time>
      </trkpt>
      <trkpt lat="43.20948" lon="1.09223">
        <ele>247</ele>
        <time>2022-07-07T12:04:59Z</time>
      </trkpt>
      <trkpt lat="43.20945" lon="1.09218">
        <ele>247</ele>
        <time>2022-07-07T12:05:03Z</time>
      </trkpt>
      <trkpt lat="43.20943" lon="1.09214">
        <ele>248</ele>
        <time>2022-07-07T12:05:07Z</time>
      </trkpt>
      <trkpt lat="43.20937" lon="1.0921">
        <ele>248</ele>
        <time>2022-07-07T12:05:13Z</time>
      </trkpt>
      <trkpt lat="43.20933" lon="1.09207">
        <ele>247</ele>
        <time>2022-07-07T12:05:17Z</time>
      </trkpt>
      <trkpt lat="43.20932" lon="1.09201">
        <ele>248</ele>
        <time>2022-07-07T12:05:19Z</time>
      </trkpt>
      <trkpt lat="43.2093" lon="1.09195">
        <ele>248</ele>
        <time>2022-07-07T12:05:22Z</time>
      </trkpt>
      <trkpt lat="43.2093" lon="1.09189">
        <ele>248</ele>
        <time>2022-07-07T12:05:25Z</time>
      </trkpt>
      <trkpt lat="43.20931" lon="1.09184">
        <ele>248</ele>
        <time>2022-07-07T12:05:29Z</time>
      </trkpt>
      <trkpt lat="43.2093" lon="1.09177">
        <ele>248</ele>
        <time>2022-07-07T12:05:34Z</time>
      </trkpt>
      <trkpt lat="43.20928" lon="1.0917">
        <ele>248</ele>
        <time>2022-07-07T12:05:40Z</time>
      </trkpt>
      <trkpt lat="43.20927" lon="1.09164">
        <ele>248</ele>
        <time>2022-07-07T12:05:43Z</time>
      </trkpt>
      <trkpt lat="43.20925" lon="1.09159">
        <ele>248</ele>
        <time>2022-07-07T12:05:47Z</time>
      </trkpt>
      <trkpt lat="43.20922" lon="1.09157">
        <ele>249</ele>
        <time>2022-07-07T12:05:50Z</time>
      </trkpt>
      <trkpt lat="43.20919" lon="1.09147">
        <ele>249</ele>
        <time>2022-07-07T12:06:13Z</time>
      </trkpt>
      <trkpt lat="43.20918" lon="1.09142">
        <ele>249</ele>
        <time>2022-07-07T12:06:17Z</time>
      </trkpt>
      <trkpt lat="43.20917" lon="1.09137">
        <ele>249</ele>
        <time>2022-07-07T12:06:23Z</time>
      </trkpt>
      <trkpt lat="43.20915" lon="1.09132">
        <ele>249</ele>
        <time>2022-07-07T12:06:27Z</time>
      </trkpt>
      <trkpt lat="43.20905" lon="1.09101">
        <ele>249</ele>
        <time>2022-07-07T12:06:53Z</time>
      </trkpt>
      <trkpt lat="43.20902" lon="1.09097">
        <ele>249</ele>
        <time>2022-07-07T12:06:57Z</time>
      </trkpt>
      <trkpt lat="43.209" lon="1.09091">
        <ele>248</ele>
        <time>2022-07-07T12:07:01Z</time>
      </trkpt>
      <trkpt lat="43.20897" lon="1.09079">
        <ele>248</ele>
        <time>2022-07-07T12:07:10Z</time>
      </trkpt>
      <trkpt lat="43.20894" lon="1.09076">
        <ele>248</ele>
        <time>2022-07-07T12:07:13Z</time>
      </trkpt>
      <trkpt lat="43.2089" lon="1.09072">
        <ele>248</ele>
        <time>2022-07-07T12:07:16Z</time>
      </trkpt>
      <trkpt lat="43.2088" lon="1.09048">
        <ele>249</ele>
        <time>2022-07-07T12:07:34Z</time>
      </trkpt>
      <trkpt lat="43.20878" lon="1.09042">
        <ele>249</ele>
        <time>2022-07-07T12:07:38Z</time>
      </trkpt>
      <trkpt lat="43.20872" lon="1.09031">
        <ele>248</ele>
        <time>2022-07-07T12:07:45Z</time>
      </trkpt>
      <trkpt lat="43.20868" lon="1.09028">
        <ele>248</ele>
        <time>2022-07-07T12:07:48Z</time>
      </trkpt>
      <trkpt lat="43.20865" lon="1.09011">
        <ele>248</ele>
        <time>2022-07-07T12:07:59Z</time>
      </trkpt>
      <trkpt lat="43.20862" lon="1.09007">
        <ele>248</ele>
        <time>2022-07-07T12:08:03Z</time>
      </trkpt>
      <trkpt lat="43.20861" lon="1.09002">
        <ele>248</ele>
        <time>2022-07-07T12:08:06Z</time>
      </trkpt>
      <trkpt lat="43.20858" lon="1.08997">
        <ele>248</ele>
        <time>2022-07-07T12:08:09Z</time>
      </trkpt>
      <trkpt lat="43.20845" lon="1.08961">
        <ele>248</ele>
        <time>2022-07-07T12:08:45Z</time>
      </trkpt>
      <trkpt lat="43.20847" lon="1.08957">
        <ele>248</ele>
        <time>2022-07-07T12:08:49Z</time>
      </trkpt>
      <trkpt lat="43.20842" lon="1.08942">
        <ele>248</ele>
        <time>2022-07-07T12:09:01Z</time>
      </trkpt>
      <trkpt lat="43.20841" lon="1.0893">
        <ele>248</ele>
        <time>2022-07-07T12:09:07Z</time>
      </trkpt>
      <trkpt lat="43.20838" lon="1.08918">
        <ele>249</ele>
        <time>2022-07-07T12:09:15Z</time>
      </trkpt>
      <trkpt lat="43.20837" lon="1.08905">
        <ele>249</ele>
        <time>2022-07-07T12:09:23Z</time>
      </trkpt>
      <trkpt lat="43.20838" lon="1.08893">
        <ele>249</ele>
        <time>2022-07-07T12:09:29Z</time>
      </trkpt>
      <trkpt lat="43.20836" lon="1.0888">
        <ele>249</ele>
        <time>2022-07-07T12:09:35Z</time>
      </trkpt>
      <trkpt lat="43.20834" lon="1.08874">
        <ele>249</ele>
        <time>2022-07-07T12:09:39Z</time>
      </trkpt>
      <trkpt lat="43.20832" lon="1.08866">
        <ele>248</ele>
        <time>2022-07-07T12:09:58Z</time>
      </trkpt>
      <trkpt lat="43.20828" lon="1.08853">
        <ele>248</ele>
        <time>2022-07-07T12:10:06Z</time>
      </trkpt>
      <trkpt lat="43.20824" lon="1.08849">
        <ele>248</ele>
        <time>2022-07-07T12:10:10Z</time>
      </trkpt>
      <trkpt lat="43.20822" lon="1.08843">
        <ele>248</ele>
        <time>2022-07-07T12:10:14Z</time>
      </trkpt>
      <trkpt lat="43.20814" lon="1.0878">
        <ele>247</ele>
        <time>2022-07-07T12:10:48Z</time>
      </trkpt>
      <trkpt lat="43.20807" lon="1.08724">
        <ele>247</ele>
        <time>2022-07-07T12:11:20Z</time>
      </trkpt>
      <trkpt lat="43.20805" lon="1.08717">
        <ele>247</ele>
        <time>2022-07-07T12:11:24Z</time>
      </trkpt>
      <trkpt lat="43.20802" lon="1.08712">
        <ele>247</ele>
        <time>2022-07-07T12:11:28Z</time>
      </trkpt>
      <trkpt lat="43.20801" lon="1.08704">
        <ele>247</ele>
        <time>2022-07-07T12:11:33Z</time>
      </trkpt>
      <trkpt lat="43.20798" lon="1.08699">
        <ele>247</ele>
        <time>2022-07-07T12:11:37Z</time>
      </trkpt>
      <trkpt lat="43.20805" lon="1.08688">
        <ele>247</ele>
        <time>2022-07-07T12:11:42Z</time>
      </trkpt>
      <trkpt lat="43.20808" lon="1.08669">
        <ele>247</ele>
        <time>2022-07-07T12:11:53Z</time>
      </trkpt>
      <trkpt lat="43.20805" lon="1.08654">
        <ele>247</ele>
        <time>2022-07-07T12:12:01Z</time>
      </trkpt>
      <trkpt lat="43.20803" lon="1.08649">
        <ele>247</ele>
        <time>2022-07-07T12:12:04Z</time>
      </trkpt>
      <trkpt lat="43.20803" lon="1.08643">
        <ele>247</ele>
        <time>2022-07-07T12:12:07Z</time>
      </trkpt>
      <trkpt lat="43.20803" lon="1.08637">
        <ele>247</ele>
        <time>2022-07-07T12:12:10Z</time>
      </trkpt>
      <trkpt lat="43.20804" lon="1.08632">
        <ele>247</ele>
        <time>2022-07-07T12:12:14Z</time>
      </trkpt>
      <trkpt lat="43.20804" lon="1.08627">
        <ele>247</ele>
        <time>2022-07-07T12:12:18Z</time>
      </trkpt>
      <trkpt lat="43.20802" lon="1.08619">
        <ele>247</ele>
        <time>2022-07-07T12:12:49Z</time>
      </trkpt>
      <trkpt lat="43.20802" lon="1.0861">
        <ele>247</ele>
        <time>2022-07-07T12:12:57Z</time>
      </trkpt>
      <trkpt lat="43.208" lon="1.08604">
        <ele>247</ele>
        <time>2022-07-07T12:13:01Z</time>
      </trkpt>
      <trkpt lat="43.20801" lon="1.08597">
        <ele>247</ele>
        <time>2022-07-07T12:13:05Z</time>
      </trkpt>
      <trkpt lat="43.208" lon="1.0859">
        <ele>247</ele>
        <time>2022-07-07T12:13:09Z</time>
      </trkpt>
      <trkpt lat="43.20802" lon="1.08576">
        <ele>247</ele>
        <time>2022-07-07T12:13:18Z</time>
      </trkpt>
      <trkpt lat="43.20807" lon="1.08579">
        <ele>247</ele>
        <time>2022-07-07T12:13:23Z</time>
      </trkpt>
      <trkpt lat="43.20845" lon="1.0858">
        <ele>247</ele>
        <time>2022-07-07T12:13:58Z</time>
      </trkpt>
      <trkpt lat="43.20851" lon="1.08576">
        <ele>247</ele>
        <time>2022-07-07T12:14:02Z</time>
      </trkpt>
      <trkpt lat="43.20856" lon="1.08576">
        <ele>247</ele>
        <time>2022-07-07T12:14:06Z</time>
      </trkpt>
      <trkpt lat="43.20882" lon="1.08578">
        <ele>247</ele>
        <time>2022-07-07T12:14:25Z</time>
      </trkpt>
      <trkpt lat="43.20895" lon="1.08572">
        <ele>247</ele>
        <time>2022-07-07T12:14:34Z</time>
      </trkpt>
      <trkpt lat="43.20905" lon="1.08571">
        <ele>247</ele>
        <time>2022-07-07T12:14:43Z</time>
      </trkpt>
      <trkpt lat="43.20921" lon="1.08578">
        <ele>247</ele>
        <time>2022-07-07T12:14:58Z</time>
      </trkpt>
      <trkpt lat="43.20928" lon="1.08578">
        <ele>247</ele>
        <time>2022-07-07T12:15:03Z</time>
      </trkpt>
      <trkpt lat="43.20932" lon="1.08574">
        <ele>247</ele>
        <time>2022-07-07T12:15:06Z</time>
      </trkpt>
      <trkpt lat="43.20939" lon="1.08563">
        <ele>247</ele>
        <time>2022-07-07T12:15:11Z</time>
      </trkpt>
      <trkpt lat="43.20944" lon="1.0856">
        <ele>247</ele>
        <time>2022-07-07T12:15:15Z</time>
      </trkpt>
      <trkpt lat="43.20961" lon="1.08565">
        <ele>247</ele>
        <time>2022-07-07T12:15:29Z</time>
      </trkpt>
      <trkpt lat="43.20972" lon="1.08564">
        <ele>247</ele>
        <time>2022-07-07T12:15:38Z</time>
      </trkpt>
      <trkpt lat="43.20982" lon="1.08568">
        <ele>247</ele>
        <time>2022-07-07T12:15:46Z</time>
      </trkpt>
      <trkpt lat="43.21006" lon="1.08567">
        <ele>247</ele>
        <time>2022-07-07T12:16:04Z</time>
      </trkpt>
      <trkpt lat="43.21009" lon="1.08562">
        <ele>247</ele>
        <time>2022-07-07T12:16:07Z</time>
      </trkpt>
      <trkpt lat="43.21016" lon="1.08565">
        <ele>247</ele>
        <time>2022-07-07T12:16:13Z</time>
      </trkpt>
      <trkpt lat="43.21027" lon="1.08564">
        <ele>247</ele>
        <time>2022-07-07T12:16:21Z</time>
      </trkpt>
      <trkpt lat="43.21033" lon="1.08564">
        <ele>247</ele>
        <time>2022-07-07T12:16:26Z</time>
      </trkpt>
      <trkpt lat="43.21038" lon="1.0856">
        <ele>247</ele>
        <time>2022-07-07T12:16:30Z</time>
      </trkpt>
      <trkpt lat="43.21043" lon="1.08563">
        <ele>247</ele>
        <time>2022-07-07T12:16:35Z</time>
      </trkpt>
      <trkpt lat="43.21049" lon="1.08563">
        <ele>247</ele>
        <time>2022-07-07T12:16:40Z</time>
      </trkpt>
      <trkpt lat="43.21052" lon="1.08557">
        <ele>247</ele>
        <time>2022-07-07T12:16:43Z</time>
      </trkpt>
      <trkpt lat="43.21062" lon="1.08553">
        <ele>247</ele>
        <time>2022-07-07T12:16:51Z</time>
      </trkpt>
      <trkpt lat="43.21073" lon="1.08555">
        <ele>247</ele>
        <time>2022-07-07T12:16:59Z</time>
      </trkpt>
      <trkpt lat="43.21079" lon="1.08559">
        <ele>247</ele>
        <time>2022-07-07T12:17:04Z</time>
      </trkpt>
      <trkpt lat="43.21088" lon="1.08558">
        <ele>247</ele>
        <time>2022-07-07T12:17:13Z</time>
      </trkpt>
      <trkpt lat="43.21109" lon="1.08542">
        <ele>247</ele>
        <time>2022-07-07T12:17:32Z</time>
      </trkpt>
      <trkpt lat="43.21118" lon="1.08544">
        <ele>247</ele>
        <time>2022-07-07T12:17:39Z</time>
      </trkpt>
      <trkpt lat="43.21128" lon="1.08541">
        <ele>247</ele>
        <time>2022-07-07T12:17:47Z</time>
      </trkpt>
      <trkpt lat="43.21132" lon="1.08538">
        <ele>247</ele>
        <time>2022-07-07T12:17:52Z</time>
      </trkpt>
      <trkpt lat="43.21138" lon="1.08538">
        <ele>247</ele>
        <time>2022-07-07T12:17:56Z</time>
      </trkpt>
      <trkpt lat="43.21143" lon="1.0854">
        <ele>247</ele>
        <time>2022-07-07T12:18:01Z</time>
      </trkpt>
      <trkpt lat="43.21147" lon="1.08543">
        <ele>247</ele>
        <time>2022-07-07T12:18:05Z</time>
      </trkpt>
      <trkpt lat="43.21156" lon="1.08547">
        <ele>248</ele>
        <time>2022-07-07T12:18:14Z</time>
      </trkpt>
      <trkpt lat="43.21162" lon="1.08549">
        <ele>248</ele>
        <time>2022-07-07T12:18:19Z</time>
      </trkpt>
      <trkpt lat="43.21183" lon="1.08555">
        <ele>248</ele>
        <time>2022-07-07T12:18:33Z</time>
      </trkpt>
      <trkpt lat="43.21195" lon="1.08552">
        <ele>248</ele>
        <time>2022-07-07T12:18:42Z</time>
      </trkpt>
      <trkpt lat="43.21198" lon="1.08548">
        <ele>248</ele>
        <time>2022-07-07T12:18:45Z</time>
      </trkpt>
      <trkpt lat="43.21218" lon="1.08547">
        <ele>248</ele>
        <time>2022-07-07T12:19:31Z</time>
      </trkpt>
      <trkpt lat="43.21223" lon="1.08548">
        <ele>248</ele>
        <time>2022-07-07T12:19:35Z</time>
      </trkpt>
      <trkpt lat="43.21245" lon="1.08544">
        <ele>248</ele>
        <time>2022-07-07T12:19:52Z</time>
      </trkpt>
      <trkpt lat="43.21256" lon="1.08546">
        <ele>248</ele>
        <time>2022-07-07T12:20:00Z</time>
      </trkpt>
      <trkpt lat="43.21266" lon="1.08542">
        <ele>248</ele>
        <time>2022-07-07T12:20:08Z</time>
      </trkpt>
      <trkpt lat="43.21276" lon="1.0854">
        <ele>248</ele>
        <time>2022-07-07T12:20:15Z</time>
      </trkpt>
      <trkpt lat="43.21279" lon="1.08536">
        <ele>248</ele>
        <time>2022-07-07T12:20:19Z</time>
      </trkpt>
      <trkpt lat="43.21287" lon="1.08536">
        <ele>248</ele>
        <time>2022-07-07T12:20:26Z</time>
      </trkpt>
      <trkpt lat="43.21292" lon="1.08538">
        <ele>248</ele>
        <time>2022-07-07T12:20:29Z</time>
      </trkpt>
      <trkpt lat="43.21296" lon="1.08537">
        <ele>248</ele>
        <time>2022-07-07T12:20:34Z</time>
      </trkpt>
      <trkpt lat="43.21302" lon="1.08529">
        <ele>248</ele>
        <time>2022-07-07T12:20:42Z</time>
      </trkpt>
      <trkpt lat="43.21304" lon="1.08522">
        <ele>248</ele>
        <time>2022-07-07T12:20:47Z</time>
      </trkpt>
      <trkpt lat="43.21296" lon="1.08486">
        <ele>248</ele>
        <time>2022-07-07T12:21:09Z</time>
      </trkpt>
      <trkpt lat="43.21278" lon="1.08434">
        <ele>249</ele>
        <time>2022-07-07T12:21:43Z</time>
      </trkpt>
      <trkpt lat="43.21276" lon="1.08428">
        <ele>249</ele>
        <time>2022-07-07T12:21:46Z</time>
      </trkpt>
      <trkpt lat="43.21272" lon="1.08402">
        <ele>249</ele>
        <time>2022-07-07T12:22:01Z</time>
      </trkpt>
      <trkpt lat="43.21269" lon="1.08396">
        <ele>249</ele>
        <time>2022-07-07T12:22:06Z</time>
      </trkpt>
      <trkpt lat="43.21269" lon="1.08389">
        <ele>249</ele>
        <time>2022-07-07T12:22:10Z</time>
      </trkpt>
      <trkpt lat="43.21261" lon="1.08343">
        <ele>250</ele>
        <time>2022-07-07T12:22:36Z</time>
      </trkpt>
      <trkpt lat="43.21264" lon="1.0832">
        <ele>250</ele>
        <time>2022-07-07T12:22:48Z</time>
      </trkpt>
      <trkpt lat="43.21268" lon="1.08316">
        <ele>250</ele>
        <time>2022-07-07T12:22:51Z</time>
      </trkpt>
      <trkpt lat="43.21272" lon="1.08315">
        <ele>251</ele>
        <time>2022-07-07T12:22:54Z</time>
      </trkpt>
      <trkpt lat="43.21278" lon="1.08319">
        <ele>252</ele>
        <time>2022-07-07T12:26:50Z</time>
      </trkpt>
      <trkpt lat="43.21291" lon="1.08316">
        <ele>252</ele>
        <time>2022-07-07T12:27:35Z</time>
      </trkpt>
      <trkpt lat="43.21293" lon="1.0831">
        <ele>251</ele>
        <time>2022-07-07T12:27:51Z</time>
      </trkpt>
      <trkpt lat="43.21287" lon="1.08302">
        <ele>252</ele>
        <time>2022-07-07T12:28:17Z</time>
      </trkpt>
      <trkpt lat="43.21286" lon="1.08296">
        <ele>252</ele>
        <time>2022-07-07T12:28:27Z</time>
      </trkpt>
      <trkpt lat="43.21282" lon="1.08289">
        <ele>259</ele>
        <time>2022-07-07T12:29:23Z</time>
      </trkpt>
      <trkpt lat="43.21284" lon="1.08286">
        <ele>260</ele>
        <time>2022-07-07T12:29:31Z</time>
      </trkpt>
      <trkpt lat="43.21299" lon="1.08278">
        <ele>259</ele>
        <time>2022-07-07T12:29:46Z</time>
      </trkpt>
      <trkpt lat="43.21301" lon="1.08275">
        <ele>259</ele>
        <time>2022-07-07T12:30:06Z</time>
      </trkpt>
      <trkpt lat="43.21294" lon="1.08269">
        <ele>251</ele>
        <time>2022-07-07T12:30:36Z</time>
      </trkpt>
      <trkpt lat="43.21289" lon="1.0827">
        <ele>251</ele>
        <time>2022-07-07T12:30:44Z</time>
      </trkpt>
      <trkpt lat="43.21286" lon="1.08266">
        <ele>251</ele>
        <time>2022-07-07T12:30:48Z</time>
      </trkpt>
      <trkpt lat="43.21291" lon="1.08276">
        <ele>252</ele>
        <time>2022-07-07T12:31:02Z</time>
      </trkpt>
    </trkseg>
  </trk>
</gpx>